[[{"header":{"parameterUnit":"m.s-1","parameterCategory":1,"la1":31.0,"la2":29.5877,"lo1":-88.7671,"lo2":-86.6584,"dy":0.0162,"dx":0.0185,"nx":115,"ny":88,"refTime":"2023-05-21T06:00:00:Z","depth":0,"parameterNumber":2,"parameterNumberName":"U-component_of_WINDS"},"data":[0.0,0.0,0.0,0.0,0.0,0.0,0.0,0.0,0.0,0.0,0.0,0.0,0.0,0.0,0.0,0.0,0.0,0.0,0.0,0.0,0.0,0.0,0.0,0.0,0.0,0.0,0.0,0.0,0.0,0.0,0.0,0.0,0.0,0.0,0.0,0.0,0.0,0.0,0.0,0.0,0.0,0.0,0.0,0.0,0.0,0.0,0.0,0.0,0.0,0.0,0.0,0.0,0.0,0.0,0.0,0.0,0.0,0.0,0.0,0.0,0.0,0.0,0.0,0.0,0.0,0.0,0.0,0.0,0.0,0.0,0.0,0.0,0.0,0.0,0.0,0.0,0.0,0.0,0.0,0.0,0.0,0.0,0.0,0.0,0.0,0.0,0.0,0.0,0.0,0.0,0.0,0.0,0.0,0.0,0.0,0.0,0.0,0.0,0.0,0.0,0.0,0.0,0.0,0.0,0.0,0.0,0.0,0.0,0.0,0.0,0.0,0.0,0.0,0.0,0.0,0.0,0.0,0.0,0.0,0.0,0.0,0.0,0.0,0.0,0.0,0.0,0.0,0.0,0.0,0.0,0.0,0.0,0.0,0.0,0.0,0.0,0.0,0.0,0.0,0.0,0.0,0.0,0.0,0.0,0.0,0.0,0.0,0.0,0.0,0.0,0.0,0.0,0.0,0.0,0.0,0.0,0.0,0.0,0.0,0.0,0.0,0.0,0.0,0.0,0.0,0.0,0.0,0.0,0.0,0.0,0.0,0.0,0.0,0.0,0.0,0.0,0.0,0.0,0.0,0.0,0.0,0.0,0.0,0.0,0.0,0.0,0.0,0.0,0.0,0.0,0.0,0.0,0.0,0.0,0.0,0.0,0.0,0.0,0.0,0.0,0.0,0.0,0.0,0.0,0.0,0.0,0.0,0.0,0.0,0.0,0.0,0.0,0.0,0.0,0.0,0.0,0.0,0.0,0.0,0.0,0.0,0.0,0.0,0.0,0.0,0.0,0.0,0.0,0.0,0.0,0.0,0.0,0.0,0.0,0.0,0.0,0.0,0.0,0.0,0.0,0.0,0.0,0.0,0.0,0.0,0.0,0.0,0.0,0.0,0.0,0.0,0.0,0.0,0.0,0.0,0.0,0.0,0.0,0.0,0.0,0.0,0.0,0.0,0.0,0.0,0.0,0.0,0.0,0.0,0.0,0.0,0.0,0.0,0.0,0.0,0.0,0.0,0.0,0.0,0.0,0.0,0.0,0.0,0.0,0.0,0.0,0.0,0.0,0.0,0.0,0.0,0.0,0.0,0.0,0.0,0.0,0.0,0.0,0.0,0.0,0.0,0.0,0.0,0.0,0.0,0.0,0.0,0.0,0.0,0.0,0.0,0.0,0.0,0.0,0.0,0.0,0.0,0.0,0.0,0.0,0.0,0.0,0.0,0.0,0.0,0.0,0.0,0.0,0.0,0.0,0.0,0.0,0.0,0.0,0.0,0.0,0.0,0.0,0.0,0.0,0.0,0.0,0.0,0.0,0.0,0.0,0.0,0.0,0.0,0.0,0.0,0.0,0.0,0.0,0.0,0.0,0.0,0.0,0.0,0.0,0.0,0.0,0.0,0.0,0.0,0.0,0.0,0.0,0.0,0.0,0.0,0.0,0.0,0.0,0.0,0.0,0.0,0.0,0.0,0.0,0.0,0.0,0.0,0.0,0.0,0.0,0.0,0.0,0.0,0.0,0.0,0.0,0.0,0.0,0.0,0.0,0.0,0.0,0.0,0.0,0.0,0.0,0.0,0.0,0.0,0.0,0.0,0.0,0.0,0.0,0.0,0.0,0.0,0.0,0.0,0.0,0.0,0.0,0.0,0.0,0.0,0.0,0.0,0.0,0.0,0.0,0.0,0.0,0.0,0.0,0.0,0.0,0.0,0.0,0.0,0.0,0.0,0.0,0.0,0.0,0.0,0.0,0.0,0.0,0.0,0.0,0.0,0.0,0.0,0.0,0.0,0.0,0.0,0.0,0.0,0.0,0.0,0.0,0.0,0.0,0.0,0.0,0.0,0.0,0.0,0.0,0.0,0.0,0.0,0.0,0.0,0.0,0.0,0.0,0.0,0.0,0.0,0.0,0.0,0.0,0.0,0.0,0.0,0.0,0.0,0.0,0.0,0.0,0.0,0.0,0.0,0.0,0.0,0.0,0.0,0.0,0.0,0.0,0.0,0.0,0.0,0.0,0.0,0.0,0.0,0.0,0.0,0.0,0.0,0.0,0.0,0.0,0.0,0.0,0.0,0.0,0.0,0.0,0.0,0.0,0.0,0.0,0.0,0.0,0.0,0.0,0.0,0.0,0.0,0.0,0.0,0.0,0.0,0.0,0.0,0.0,0.0,0.0,0.0,0.0,0.0,0.0,0.0,0.0,0.0,0.0,0.0,0.0,0.0,0.0,0.0,0.0,0.0,0.0,0.0,0.0,0.0,0.0,0.0,0.0,0.0,0.0,0.0,0.0,0.0,0.0,0.0,0.0,0.0,0.0,0.0,0.0,0.0,0.0,0.0,0.0,0.0,0.0,0.0,0.0,0.0,0.0,0.0,0.0,0.0,0.0,0.0,0.0,0.0,0.0,0.0,0.0,0.0,0.0,0.0,0.0,0.0,0.0,0.0,0.0,0.0,0.0,0.0,0.0,0.0,0.0,0.0,0.0,0.0,0.0,0.0,0.0,0.0,0.0,0.0,0.0,0.0,0.0,0.0,0.0,0.0,0.0,0.0,0.0,0.0,0.0,0.0,0.0,0.0,0.0,0.0,0.0,0.0,0.0,0.0,0.0,0.0,0.0,0.0,0.0,0.0,0.0,0.0,0.0,0.0,0.0,0.0,0.0,0.0,0.0,0.0,0.0,0.0,0.0,0.0,0.0,0.0,0.0,0.0,0.0,0.0,0.0,0.0,0.0,0.0,0.0,0.0,0.0,0.0,0.0,0.0,0.0,0.0,0.0,0.0,0.0,0.0,0.0,0.0,0.0,0.0,0.0,0.0,0.0,0.0,0.0,0.0,0.0,0.0,0.0,0.0,0.0,0.0,0.0,0.0,0.0,0.0,0.0,0.0,0.0,0.0,0.0,0.0,0.0,0.0,0.0,0.0,0.0,0.0,0.0,0.0,0.0,0.0,0.0,0.0,0.0,0.0,0.0,0.0,0.0,0.0,0.0,0.0,0.0,0.0,0.0,0.0,0.0,0.0,0.0,0.0,0.0,0.0,0.0,0.0,0.0,0.0,0.0,0.0,0.0,0.0,0.0,0.0,0.0,0.0,0.0,0.0,0.0,0.0,0.0,0.0,0.0,0.0,0.0,0.0,0.0,0.0,0.0,0.0,0.0,0.0,0.0,0.0,0.0,0.0,0.0,0.0,0.0,0.0,0.0,0.0,0.0,0.0,0.0,0.0,0.0,0.0,0.0,0.0,0.0,0.0,0.0,0.0,0.0,0.0,0.0,0.0,0.0,0.0,0.0,0.0,0.0,0.0,0.0,0.0,0.0,0.0,0.0,0.0,0.0,0.0,0.0,0.0,0.0,0.0,0.0,0.0,0.0,0.0,0.0,0.0,0.0,0.0,0.0,0.0,0.0,0.0,0.0,0.0,0.0,0.0,0.0,0.0,0.0,0.0,0.0,0.0,0.0,0.0,0.0,0.0,0.0,0.0,0.0,0.0,0.0,0.0,0.0,0.0,0.0,0.0,0.0,0.0,0.0,0.0,0.0,0.0,0.0,0.0,0.0,0.0,0.0,0.0,0.0,0.0,0.0,0.0,0.0,0.0,0.0,0.0,0.0,0.0,0.0,0.0,0.0,0.0,0.0,0.0,0.0,0.0,0.0,0.0,0.0,0.0,0.0,0.0,0.0,0.0,0.0,0.0,0.0,0.0,0.0,0.0,0.0,0.0,0.0,0.0,0.0,0.0,0.0,0.0,0.0,0.0,0.0,0.0,0.0,0.0,0.0,0.0,0.0,0.0,0.0,0.0,0.0,0.0,0.0,0.0,0.0,0.0,0.0,0.0,0.0,0.0,0.0,0.0,0.0,0.0,0.0,0.0,0.0,0.0,0.0,0.0,0.0,0.0,0.0,0.0,0.0,0.0,0.0,0.0,0.0,0.0,0.0,0.0,0.0,0.0,0.0,0.0,0.0,0.0,0.0,0.0,0.0,0.0,0.0,0.0,0.0,0.0,0.0,0.0,0.0,0.0,0.0,0.0,0.0,0.0,0.0,0.0,0.0,0.0,0.0,0.0,0.0,3.3055,0.0,0.0,0.0,0.0,0.0,0.0,0.0,0.0,0.0,0.0,0.0,0.0,0.0,0.0,0.0,0.0,0.0,0.0,0.0,0.0,0.0,0.0,0.0,0.0,0.0,0.0,0.0,0.0,0.0,0.0,0.0,0.0,0.0,0.0,0.0,0.0,0.0,0.0,0.0,0.0,0.0,0.0,0.0,0.0,0.0,0.0,0.0,0.0,0.0,0.0,0.0,0.0,0.0,0.0,0.0,0.0,0.0,0.0,0.0,0.0,0.0,0.0,0.0,0.0,0.0,0.0,0.0,0.0,0.0,0.0,0.0,0.0,0.0,0.0,0.0,0.0,0.0,0.0,0.0,0.0,0.0,0.0,0.0,0.0,0.0,0.0,0.0,0.0,0.0,0.0,0.0,0.0,0.0,0.0,0.0,0.0,0.0,0.0,0.0,0.0,0.0,0.0,0.0,0.0,0.0,0.0,0.0,0.0,0.0,0.0,3.2925,3.2956,3.2956,3.2988,3.3051,0.0,0.0,0.0,0.0,0.0,0.0,0.0,0.0,0.0,0.0,0.0,0.0,0.0,0.0,0.0,0.0,0.0,0.0,0.0,0.0,0.0,0.0,0.0,0.0,0.0,0.0,0.0,0.0,0.0,0.0,0.0,0.0,0.0,0.0,0.0,0.0,0.0,0.0,0.0,0.0,0.0,0.0,0.0,0.0,0.0,0.0,0.0,0.0,0.0,0.0,0.0,0.0,0.0,0.0,0.0,0.0,0.0,0.0,0.0,0.0,0.0,0.0,0.0,0.0,0.0,0.0,0.0,0.0,0.0,0.0,0.0,0.0,0.0,0.0,0.0,0.0,0.0,0.0,0.0,0.0,0.0,0.0,0.0,0.0,0.0,0.0,0.0,0.0,0.0,0.0,0.0,0.0,0.0,0.0,0.0,0.0,0.0,0.0,0.0,0.0,0.0,0.0,0.0,0.0,0.0,0.0,0.0,0.0,0.0,0.0,0.0,0.0,3.3019,3.293,3.2778,0.0,0.0,0.0,0.0,0.0,0.0,0.0,0.0,0.0,0.0,0.0,0.0,0.0,0.0,0.0,0.0,0.0,0.0,0.0,0.0,0.0,0.0,0.0,0.0,0.0,0.0,0.0,0.0,0.0,0.0,0.0,0.0,0.0,0.0,0.0,0.0,0.0,0.0,0.0,0.0,0.0,0.0,0.0,0.0,0.0,0.0,0.0,0.0,0.0,0.0,0.0,0.0,0.0,0.0,0.0,0.0,0.0,0.0,0.0,0.0,0.0,0.0,0.0,0.0,0.0,0.0,0.0,0.0,0.0,0.0,0.0,0.0,0.0,0.0,0.0,0.0,0.0,0.0,0.0,0.0,0.0,0.0,0.0,0.0,0.0,0.0,0.0,0.0,0.0,0.0,0.0,0.0,0.0,0.0,0.0,0.0,0.0,0.0,0.0,0.0,0.0,0.0,0.0,0.0,0.0,0.0,0.0,0.0,0.0,0.0,3.3091,3.3271,3.3135,0.0,3.2134,0.0,0.0,0.0,0.0,0.0,0.0,0.0,0.0,0.0,0.0,0.0,0.0,0.0,0.0,0.0,0.0,0.0,0.0,0.0,0.0,0.0,0.0,0.0,0.0,0.0,0.0,0.0,0.0,0.0,0.0,0.0,0.0,0.0,0.0,0.0,0.0,0.0,0.0,0.0,0.0,0.0,0.0,0.0,0.0,0.0,0.0,0.0,0.0,0.0,0.0,0.0,0.0,0.0,0.0,0.0,0.0,0.0,0.0,0.0,0.0,0.0,0.0,0.0,0.0,0.0,0.0,0.0,0.0,0.0,0.0,0.0,0.0,0.0,0.0,0.0,0.0,0.0,0.0,0.0,0.0,0.0,0.0,0.0,0.0,0.0,0.0,0.0,0.0,0.0,0.0,0.0,0.0,0.0,0.0,0.0,0.0,0.0,0.0,0.0,0.0,0.0,0.0,0.0,0.0,0.0,0.0,0.0,0.0,0.0,0.0,3.2937,3.243,3.2013,3.1618,0.0,0.0,0.0,0.0,0.0,0.0,0.0,0.0,0.0,0.0,0.0,0.0,0.0,0.0,0.0,0.0,0.0,0.0,0.0,0.0,0.0,0.0,0.0,0.0,0.0,0.0,0.0,0.0,0.0,0.0,0.0,0.0,0.0,0.0,0.0,0.0,0.0,0.0,0.0,0.0,0.0,0.0,0.0,0.0,0.0,0.0,0.0,0.0,0.0,0.0,0.0,0.0,0.0,0.0,0.0,0.0,0.0,0.0,0.0,0.0,0.0,0.0,0.0,0.0,0.0,0.0,0.0,0.0,0.0,0.0,0.0,0.0,0.0,0.0,0.0,0.0,0.0,0.0,0.0,0.0,0.0,0.0,0.0,0.0,0.0,0.0,0.0,0.0,0.0,0.0,0.0,0.0,0.0,0.0,0.0,0.0,0.0,0.0,0.0,0.0,0.0,0.0,0.0,0.0,0.0,0.0,0.0,0.0,0.0,0.0,3.3183,3.2961,3.2269,3.18,3.1333,3.0872,0.0,0.0,0.0,0.0,0.0,0.0,0.0,0.0,0.0,0.0,0.0,0.0,0.0,0.0,0.0,0.0,0.0,0.0,0.0,0.0,0.0,0.0,0.0,0.0,0.0,0.0,0.0,0.0,0.0,0.0,0.0,0.0,0.0,0.0,0.0,0.0,0.0,0.0,0.0,0.0,0.0,0.0,0.0,0.0,0.0,0.0,0.0,0.0,0.0,0.0,0.0,0.0,0.0,0.0,0.0,0.0,0.0,0.0,0.0,0.0,0.0,0.0,0.0,0.0,0.0,0.0,0.0,0.0,0.0,0.0,0.0,0.0,0.0,0.0,0.0,0.0,0.0,0.0,0.0,0.0,0.0,0.0,0.0,0.0,0.0,0.0,0.0,0.0,0.0,0.0,0.0,0.0,0.0,0.0,0.0,0.0,0.0,0.0,0.0,0.0,0.0,0.0,0.0,0.0,0.0,0.0,0.0,0.0,3.3095,3.3214,3.3304,3.3264,3.3232,3.2491,0.0,0.0,0.0,0.0,0.0,0.0,0.0,0.0,0.0,0.0,0.0,0.0,0.0,0.0,0.0,0.0,0.0,0.0,0.0,0.0,0.0,0.0,0.0,0.0,0.0,0.0,0.0,0.0,0.0,0.0,0.0,0.0,0.0,0.0,0.0,0.0,0.0,0.0,0.0,0.0,0.0,0.0,0.0,0.0,0.0,0.0,0.0,0.0,0.0,0.0,0.0,0.0,0.0,0.0,0.0,0.0,0.0,0.0,0.0,0.0,0.0,0.0,0.0,0.0,0.0,0.0,0.0,0.0,0.0,0.0,0.0,0.0,0.0,0.0,0.0,0.0,0.0,0.0,0.0,0.0,0.0,0.0,0.0,0.0,0.0,0.0,0.0,0.0,0.0,0.0,0.0,0.0,0.0,0.0,0.0,0.0,0.0,0.0,0.0,0.0,0.0,0.0,0.0,0.0,0.0,0.0,0.0,0.0,0.0,3.3024,3.2706,3.2545,3.2614,3.2106,3.1563,0.0,0.0,0.0,0.0,0.0,0.0,0.0,0.0,0.0,0.0,0.0,0.0,0.0,0.0,0.0,0.0,0.0,0.0,0.0,0.0,0.0,0.0,0.0,0.0,0.0,0.0,0.0,0.0,0.0,0.0,0.0,0.0,0.0,0.0,0.0,0.0,0.0,0.0,0.0,0.0,0.0,0.0,0.0,0.0,0.0,0.0,0.0,0.0,0.0,0.0,0.0,0.0,0.0,0.0,0.0,0.0,0.0,0.0,0.0,0.0,0.0,0.0,0.0,0.0,0.0,0.0,0.0,0.0,0.0,0.0,0.0,0.0,0.0,0.0,0.0,0.0,0.0,0.0,0.0,0.0,0.0,0.0,0.0,0.0,0.0,0.0,0.0,0.0,0.0,0.0,0.0,0.0,0.0,0.0,0.0,0.0,0.0,0.0,0.0,0.0,0.0,0.0,0.0,0.0,0.0,0.0,0.0,0.0,0.0,3.3126,0.0,3.2529,3.2569,3.209,3.1574,0.0,0.0,0.0,0.0,0.0,0.0,0.0,0.0,0.0,0.0,0.0,0.0,0.0,0.0,0.0,0.0,0.0,0.0,0.0,0.0,0.0,0.0,0.0,0.0,0.0,0.0,0.0,0.0,0.0,0.0,0.0,0.0,0.0,0.0,0.0,0.0,0.0,0.0,0.0,0.0,0.0,0.0,0.0,0.0,0.0,0.0,0.0,0.0,0.0,0.0,0.0,0.0,0.0,0.0,0.0,0.0,0.0,0.0,0.0,0.0,0.0,0.0,0.0,0.0,0.0,0.0,0.0,0.0,0.0,0.0,0.0,0.0,0.0,0.0,0.0,0.0,0.0,0.0,0.0,0.0,0.0,0.0,0.0,0.0,0.0,0.0,0.0,0.0,0.0,0.0,0.0,0.0,0.0,0.0,0.0,0.0,0.0,0.0,0.0,0.0,0.0,0.0,0.0,0.0,0.0,0.0,0.0,0.0,3.3187,3.3393,3.3393,3.3357,3.3393,3.3408,3.2746,0.0,0.0,0.0,0.0,0.0,0.0,0.0,0.0,0.0,0.0,0.0,0.0,0.0,0.0,0.0,0.0,0.0,0.0,0.0,0.0,0.0,0.0,0.0,0.0,0.0,0.0,0.0,0.0,0.0,0.0,0.0,0.0,0.0,0.0,0.0,0.0,0.0,0.0,0.0,0.0,0.0,0.0,0.0,0.0,0.0,0.0,0.0,0.0,0.0,0.0,0.0,0.0,0.0,0.0,0.0,0.0,0.0,0.0,0.0,0.0,0.0,0.0,0.0,0.0,0.0,0.0,0.0,0.0,0.0,0.0,0.0,0.0,0.0,0.0,0.0,0.0,0.0,0.0,0.0,0.0,0.0,0.0,0.0,0.0,0.0,0.0,0.0,0.0,0.0,0.0,0.0,0.0,0.0,0.0,0.0,0.0,0.0,0.0,0.0,0.0,0.0,0.0,0.0,0.0,0.0,0.0,0.0,0.0,0.0,3.3402,3.3452,3.349,3.349,3.352,3.3094,0.0,0.0,0.0,0.0,0.0,0.0,0.0,0.0,0.0,0.0,0.0,0.0,0.0,0.0,0.0,0.0,0.0,0.0,0.0,0.0,0.0,0.0,0.0,0.0,0.0,0.0,0.0,0.0,0.0,0.0,0.0,0.0,0.0,0.0,0.0,0.0,0.0,0.0,0.0,0.0,0.0,0.0,0.0,0.0,0.0,0.0,0.0,0.0,0.0,0.0,0.0,0.0,0.0,0.0,0.0,0.0,0.0,0.0,0.0,0.0,0.0,0.0,0.0,0.0,0.0,0.0,0.0,0.0,0.0,0.0,0.0,0.0,0.0,0.0,0.0,0.0,0.0,0.0,0.0,0.0,0.0,0.0,0.0,0.0,0.0,0.0,0.0,0.0,0.0,0.0,0.0,0.0,0.0,0.0,0.0,0.0,0.0,0.0,0.0,0.0,0.0,0.0,0.0,0.0,0.0,0.0,0.0,0.0,0.0,3.3422,3.3472,3.352,3.3503,3.3304,3.283,3.2137,0.0,0.0,0.0,0.0,0.0,0.0,0.0,0.0,0.0,0.0,0.0,0.0,0.0,0.0,0.0,0.0,0.0,0.0,0.0,0.0,0.0,0.0,0.0,0.0,0.0,0.0,0.0,0.0,0.0,0.0,0.0,0.0,0.0,0.0,0.0,0.0,0.0,0.0,0.0,0.0,0.0,0.0,0.0,0.0,0.0,0.0,0.0,0.0,0.0,0.0,0.0,0.0,0.0,0.0,0.0,0.0,0.0,0.0,0.0,0.0,0.0,0.0,0.0,0.0,0.0,0.0,0.0,0.0,0.0,0.0,0.0,0.0,0.0,0.0,0.0,0.0,0.0,0.0,0.0,0.0,0.0,0.0,0.0,0.0,0.0,0.0,0.0,0.0,0.0,0.0,0.0,0.0,0.0,0.0,0.0,0.0,0.0,0.0,0.0,0.0,0.0,0.0,0.0,0.0,0.0,0.0,0.0,0.0,3.3509,3.3509,3.3494,3.3515,3.2866,3.2183,0.0,0.0,0.0,0.0,0.0,0.0,0.0,0.0,0.0,0.0,0.0,0.0,0.0,0.0,0.0,0.0,0.0,0.0,0.0,0.0,0.0,0.0,0.0,0.0,0.0,0.0,0.0,0.0,0.0,0.0,0.0,0.0,0.0,0.0,0.0,0.0,0.0,0.0,0.0,0.0,0.0,0.0,0.0,0.0,0.0,0.0,0.0,0.0,0.0,0.0,0.0,0.0,0.0,0.0,0.0,0.0,0.0,0.0,0.0,0.0,0.0,0.0,0.0,0.0,0.0,0.0,0.0,0.0,0.0,0.0,0.0,0.0,0.0,0.0,0.0,0.0,0.0,0.0,0.0,0.0,0.0,0.0,0.0,0.0,0.0,0.0,0.0,0.0,0.0,0.0,0.0,0.0,0.0,0.0,0.0,0.0,0.0,0.0,0.0,0.0,0.0,0.0,0.0,0.0,0.0,0.0,0.0,0.0,0.0,3.3473,3.3643,3.3698,3.3652,3.2982,3.2311,0.0,0.0,0.0,0.0,0.0,0.0,0.0,0.0,0.0,0.0,0.0,0.0,0.0,0.0,0.0,0.0,0.0,0.0,0.0,0.0,0.0,0.0,0.0,0.0,0.0,0.0,0.0,0.0,0.0,0.0,0.0,0.0,0.0,0.0,0.0,0.0,0.0,0.0,0.0,0.0,0.0,0.0,0.0,0.0,0.0,0.0,0.0,0.0,0.0,0.0,0.0,0.0,0.0,0.0,0.0,0.0,0.0,0.0,0.0,0.0,0.0,0.0,0.0,0.0,0.0,0.0,0.0,0.0,0.0,0.0,0.0,0.0,0.0,0.0,0.0,0.0,0.0,0.0,0.0,0.0,0.0,0.0,0.0,0.0,0.0,0.0,0.0,0.0,0.0,0.0,0.0,0.0,0.0,0.0,0.0,0.0,0.0,0.0,0.0,0.0,0.0,0.0,0.0,0.0,0.0,0.0,0.0,0.0,3.2821,3.3597,3.3467,3.3189,3.2833,3.2449,3.1881,0.0,0.0,0.0,0.0,0.0,0.0,0.0,0.0,0.0,0.0,0.0,0.0,0.0,0.0,0.0,0.0,0.0,0.0,0.0,0.0,0.0,0.0,0.0,0.0,0.0,0.0,0.0,0.0,0.0,0.0,0.0,0.0,0.0,0.0,0.0,0.0,0.0,0.0,0.0,0.0,0.0,0.0,0.0,0.0,0.0,0.0,0.0,0.0,0.0,0.0,0.0,0.0,0.0,0.0,0.0,0.0,0.0,0.0,0.0,0.0,0.0,0.0,0.0,0.0,0.0,0.0,0.0,0.0,0.0,0.0,0.0,0.0,0.0,0.0,0.0,0.0,0.0,0.0,0.0,0.0,0.0,0.0,0.0,0.0,0.0,0.0,0.0,0.0,0.0,0.0,0.0,0.0,0.0,0.0,0.0,0.0,0.0,0.0,0.0,0.0,0.0,0.0,0.0,0.0,0.0,0.0,0.0,0.0,3.2643,3.3477,3.2898,3.2225,3.1523,3.1394,3.0983,0.0,0.0,0.0,0.0,0.0,0.0,0.0,0.0,0.0,0.0,0.0,0.0,0.0,0.0,0.0,0.0,0.0,0.0,0.0,0.0,0.0,0.0,0.0,0.0,0.0,0.0,0.0,0.0,0.0,0.0,0.0,0.0,0.0,0.0,0.0,0.0,0.0,0.0,0.0,0.0,0.0,0.0,0.0,0.0,0.0,0.0,0.0,0.0,0.0,0.0,0.0,0.0,0.0,0.0,0.0,0.0,0.0,0.0,0.0,0.0,0.0,0.0,0.0,0.0,0.0,0.0,0.0,0.0,0.0,0.0,0.0,0.0,0.0,0.0,0.0,0.0,0.0,0.0,0.0,0.0,0.0,0.0,0.0,0.0,0.0,0.0,0.0,0.0,0.0,0.0,0.0,0.0,0.0,0.0,0.0,0.0,0.0,0.0,0.0,0.0,0.0,0.0,0.0,0.0,0.0,0.0,0.0,0.0,3.0301,3.1698,3.121,3.0808,3.0576,3.0059,2.9706,0.0,0.0,0.0,0.0,0.0,0.0,0.0,0.0,0.0,0.0,0.0,0.0,0.0,0.0,0.0,0.0,0.0,0.0,0.0,0.0,0.0,0.0,0.0,0.0,0.0,0.0,0.0,0.0,0.0,0.0,0.0,0.0,0.0,0.0,0.0,0.0,0.0,0.0,0.0,0.0,0.0,0.0,0.0,0.0,0.0,0.0,0.0,0.0,2.8097,0.0,0.0,0.0,0.0,0.0,0.0,0.0,0.0,0.0,0.0,0.0,0.0,0.0,0.0,0.0,0.0,0.0,0.0,0.0,0.0,0.0,0.0,0.0,0.0,0.0,0.0,0.0,0.0,0.0,0.0,0.0,0.0,0.0,0.0,0.0,0.0,0.0,0.0,0.0,0.0,0.0,0.0,0.0,0.0,0.0,0.0,0.0,0.0,0.0,0.0,0.0,0.0,0.0,0.0,0.0,0.0,0.0,0.0,0.0,2.9341,3.0164,2.9987,2.9486,2.8716,2.873,2.8948,0.0,0.0,0.0,0.0,0.0,0.0,0.0,0.0,0.0,0.0,0.0,0.0,0.0,0.0,0.0,0.0,0.0,0.0,0.0,0.0,0.0,0.0,0.0,0.0,0.0,0.0,0.0,0.0,0.0,0.0,0.0,0.0,0.0,0.0,0.0,0.0,0.0,0.0,0.0,0.0,0.0,0.0,0.0,0.0,0.0,0.0,0.0,0.0,0.0,0.0,0.0,0.0,0.0,0.0,0.0,0.0,0.0,0.0,0.0,0.0,0.0,0.0,0.0,0.0,0.0,0.0,0.0,0.0,0.0,0.0,0.0,0.0,0.0,0.0,0.0,0.0,0.0,0.0,0.0,0.0,0.0,0.0,0.0,0.0,0.0,0.0,0.0,0.0,0.0,0.0,0.0,0.0,0.0,0.0,0.0,0.0,0.0,0.0,0.0,0.0,0.0,0.0,0.0,0.0,0.0,0.0,0.0,2.8552,2.8613,2.8667,2.8818,2.8225,2.6846,2.7464,2.8258,2.9141,0.0,0.0,0.0,0.0,0.0,0.0,0.0,0.0,0.0,0.0,0.0,0.0,0.0,0.0,0.0,0.0,0.0,0.0,0.0,0.0,0.0,0.0,0.0,0.0,0.0,0.0,0.0,0.0,0.0,0.0,0.0,0.0,0.0,0.0,0.0,0.0,0.0,0.0,2.9617,2.9081,0.0,0.0,0.0,0.0,0.0,0.0,0.0,0.0,2.6902,0.0,0.0,0.0,0.0,0.0,0.0,0.0,0.0,0.0,0.0,0.0,0.0,0.0,0.0,0.0,0.0,0.0,0.0,0.0,0.0,0.0,0.0,0.0,0.0,0.0,0.0,0.0,0.0,0.0,0.0,0.0,0.0,0.0,0.0,0.0,0.0,0.0,0.0,0.0,0.0,0.0,0.0,0.0,0.0,0.0,0.0,0.0,0.0,0.0,0.0,0.0,0.0,0.0,0.0,0.0,0.0,2.733,2.6943,2.6777,2.6843,2.7043,2.7028,2.681,2.6396,2.6952,2.8519,0.0,0.0,0.0,0.0,0.0,0.0,0.0,0.0,0.0,0.0,0.0,0.0,0.0,0.0,0.0,0.0,0.0,0.0,0.0,0.0,0.0,0.0,0.0,0.0,0.0,0.0,0.0,0.0,0.0,0.0,0.0,0.0,0.0,0.0,0.0,0.0,0.0,0.0,0.0,2.9351,2.9058,0.0,0.0,0.0,0.0,0.0,0.0,0.0,0.0,2.5428,0.0,0.0,0.0,0.0,0.0,0.0,0.0,0.0,0.0,0.0,0.0,0.0,0.0,0.0,0.0,0.0,0.0,0.0,0.0,0.0,0.0,0.0,0.0,0.0,0.0,0.0,0.0,0.0,0.0,0.0,0.0,0.0,0.0,0.0,0.0,0.0,0.0,0.0,0.0,0.0,0.0,0.0,0.0,0.0,0.0,0.0,0.0,0.0,0.0,0.0,0.0,0.0,0.0,0.0,0.0,2.59,2.6107,2.5908,2.5269,2.6197,2.6355,2.5662,2.6206,2.6953,0.0,0.0,0.0,0.0,0.0,0.0,0.0,0.0,0.0,0.0,0.0,0.0,0.0,0.0,0.0,0.0,0.0,0.0,0.0,0.0,0.0,0.0,0.0,0.0,0.0,0.0,0.0,0.0,0.0,0.0,0.0,0.0,0.0,0.0,0.0,0.0,0.0,0.0,0.0,0.0,2.7461,2.7577,2.757,0.0,0.0,0.0,0.0,0.0,0.0,2.4891,2.3962,0.0,0.0,0.0,0.0,0.0,0.0,0.0,0.0,0.0,0.0,0.0,0.0,0.0,0.0,0.0,0.0,0.0,0.0,0.0,0.0,0.0,0.0,0.0,0.0,0.0,0.0,0.0,0.0,0.0,0.0,0.0,0.0,0.0,0.0,0.0,0.0,0.0,0.0,0.0,0.0,0.0,0.0,0.0,0.0,0.0,0.0,0.0,0.0,0.0,0.0,0.0,0.0,0.0,0.0,0.0,2.4998,2.5618,2.5428,2.443,2.57,2.581,2.4579,2.5918,2.6855,0.0,0.0,0.0,0.0,0.0,0.0,0.0,0.0,0.0,0.0,0.0,0.0,0.0,0.0,0.0,0.0,0.0,0.0,0.0,0.0,0.0,0.0,0.0,0.0,0.0,0.0,0.0,0.0,0.0,0.0,0.0,0.0,0.0,0.0,0.0,0.0,0.0,0.0,0.0,0.0,0.0,2.5722,2.6308,2.6546,0.0,0.0,0.0,0.0,2.487,2.3684,0.0,0.0,0.0,0.0,0.0,0.0,0.0,0.0,0.0,0.0,0.0,0.0,0.0,0.0,0.0,0.0,0.0,0.0,0.0,0.0,0.0,0.0,0.0,0.0,0.0,0.0,0.0,0.0,0.0,0.0,0.0,0.0,0.0,0.0,0.0,0.0,0.0,0.0,0.0,0.0,0.0,0.0,0.0,0.0,0.0,0.0,0.0,0.0,0.0,0.0,0.0,0.0,0.0,0.0,0.0,0.0,2.5705,2.536,2.5121,2.509,2.5373,2.5208,2.4532,2.4823,2.5429,0.0,0.0,0.0,0.0,0.0,0.0,0.0,0.0,0.0,0.0,0.0,0.0,0.0,0.0,0.0,0.0,0.0,0.0,0.0,0.0,0.0,0.0,0.0,0.0,0.0,0.0,0.0,0.0,0.0,0.0,0.0,0.0,0.0,0.0,0.0,0.0,0.0,0.0,0.0,0.0,0.0,2.4536,2.4683,2.4895,2.5069,0.0,0.0,2.4023,2.337,2.2566,0.0,0.0,0.0,0.0,0.0,0.0,0.0,0.0,0.0,0.0,0.0,0.0,0.0,0.0,0.0,0.0,0.0,0.0,0.0,0.0,0.0,0.0,0.0,0.0,0.0,0.0,0.0,0.0,0.0,0.0,0.0,0.0,0.0,0.0,0.0,0.0,0.0,0.0,0.0,0.0,0.0,0.0,0.0,0.0,0.0,0.0,0.0,0.0,0.0,0.0,0.0,0.0,0.0,0.0,0.0,2.4522,2.4492,2.4806,2.4862,2.4611,2.5156,2.519,2.4617,2.4701,2.5252,0.0,0.0,0.0,0.0,0.0,0.0,0.0,0.0,0.0,0.0,0.0,0.0,0.0,0.0,0.0,0.0,0.0,0.0,0.0,0.0,0.0,0.0,0.0,0.0,0.0,0.0,0.0,0.0,0.0,0.0,0.0,0.0,0.0,0.0,0.0,0.0,0.0,0.0,0.0,0.0,0.0,0.0,2.4094,2.4028,0.0,0.0,0.0,2.2366,2.163,0.0,0.0,0.0,0.0,0.0,0.0,0.0,0.0,0.0,0.0,0.0,0.0,0.0,0.0,0.0,0.0,0.0,0.0,0.0,0.0,0.0,0.0,0.0,0.0,0.0,0.0,0.0,0.0,0.0,0.0,0.0,0.0,0.0,0.0,0.0,0.0,0.0,0.0,0.0,0.0,0.0,0.0,0.0,0.0,0.0,0.0,0.0,0.0,0.0,0.0,0.0,0.0,0.0,0.0,0.0,0.0,0.0,2.3765,2.4374,2.4593,2.4394,2.4909,2.5032,2.4726,2.4772,0.0,0.0,0.0,0.0,0.0,0.0,0.0,0.0,0.0,0.0,0.0,0.0,0.0,0.0,0.0,0.0,0.0,0.0,0.0,0.0,0.0,0.0,0.0,0.0,0.0,0.0,0.0,1.8616,0.0,0.0,0.0,0.0,0.0,0.0,0.0,0.0,0.0,0.0,0.0,0.0,0.0,0.0,2.1865,2.2666,2.2523,2.2379,0.0,0.0,2.074,2.0237,1.9638,1.9058,0.0,0.0,0.0,0.0,0.0,0.0,0.0,0.0,0.0,0.0,0.0,0.0,0.0,0.0,0.0,0.0,0.0,0.0,0.0,0.0,0.0,0.0,0.0,0.0,0.0,0.0,0.0,0.0,0.0,0.0,0.0,0.0,0.0,0.0,0.0,0.0,0.0,0.0,0.0,0.0,0.0,0.0,0.0,0.0,0.0,0.0,0.0,0.0,0.0,0.0,0.0,0.0,0.0,0.0,2.3818,2.4637,2.4154,2.4296,2.5072,2.4632,2.4483,2.4682,2.4837,2.4989,0.0,0.0,0.0,0.0,0.0,0.0,0.0,0.0,0.0,0.0,0.0,0.0,0.0,0.0,0.0,0.0,0.0,0.0,0.0,0.0,0.0,0.0,0.0,0.0,0.0,0.0,0.0,0.0,0.0,0.0,0.0,0.0,0.0,0.0,0.0,0.0,0.0,0.0,0.0,0.0,0.0,1.9079,1.9381,1.956,1.9802,0.0,1.9586,1.918,1.9428,1.8806,1.8281,1.8307,0.0,0.0,0.0,0.0,0.0,0.0,0.0,0.0,0.0,0.0,0.0,0.0,0.0,0.0,0.0,0.0,0.0,0.0,0.0,0.0,0.0,0.0,0.0,0.0,0.0,0.0,0.0,0.0,0.0,0.0,0.0,0.0,0.0,0.0,0.0,0.0,0.0,0.0,0.0,0.0,0.0,0.0,0.0,0.0,0.0,0.0,0.0,0.0,0.0,0.0,0.0,0.0,0.0,2.3531,2.4,2.3909,2.4099,2.4562,2.4432,2.4473,2.4689,2.4789,2.4907,0.0,0.0,0.0,0.0,0.0,0.0,0.0,0.0,0.0,0.0,0.0,0.0,0.0,0.0,0.0,0.0,0.0,0.0,0.0,0.0,0.0,0.0,0.0,0.0,0.0,0.0,0.0,0.0,1.4426,1.3686,1.3178,0.0,0.0,0.0,0.0,0.0,0.0,0.0,0.0,0.0,0.0,1.8611,1.8927,1.8727,0.0,0.0,1.8548,1.8225,1.8564,1.8357,1.823,1.829,1.8316,0.0,0.0,0.0,0.0,0.0,0.0,0.0,0.0,0.0,0.0,0.0,0.0,0.0,0.0,0.0,0.0,0.0,0.0,0.0,0.0,0.0,0.0,0.0,0.0,0.0,0.0,0.0,0.0,0.0,0.0,0.0,0.0,0.0,0.0,0.0,0.0,0.0,0.0,0.0,0.0,0.0,0.0,0.0,0.0,0.0,0.0,0.0,0.0,0.0,0.0,0.0,0.0,2.3369,2.3494,2.378,2.4016,2.4181,2.4367,2.4558,2.4751,2.4837,2.4925,0.0,0.0,0.0,0.0,0.0,0.0,0.0,0.0,0.0,0.0,0.0,0.0,0.0,0.0,0.0,0.0,0.0,0.0,0.0,0.0,0.0,0.0,0.0,0.0,0.0,0.0,0.0,0.0,1.2539,1.1814,1.1255,0.0,0.0,0.0,0.0,0.0,0.0,0.0,0.0,0.0,0.0,1.7262,1.7567,1.7523,1.7567,1.7927,1.7658,1.7517,1.7914,1.8018,1.8113,1.8255,0.0,0.0,0.0,0.0,0.0,0.0,0.0,0.0,0.0,0.0,0.0,0.0,0.0,0.0,0.0,0.0,0.0,0.0,0.0,0.0,0.0,0.0,0.0,0.0,0.0,0.0,0.0,0.5107,0.0,0.0,0.5607,0.0,0.0,0.0,0.0,0.0,0.0,0.0,0.0,0.0,0.0,0.0,0.0,0.0,0.0,0.0,0.0,0.0,0.0,0.0,0.0,0.0,0.0,2.3351,2.3476,2.3822,2.4037,2.4116,2.4426,2.4676,2.487,2.5031,2.5125,2.5192,0.0,0.0,0.0,0.0,0.0,0.0,0.0,0.0,0.0,0.0,0.0,0.0,0.0,0.0,0.0,0.0,0.0,0.0,0.0,0.0,0.0,0.0,0.0,0.0,0.0,0.0,1.1875,1.0755,1.0112,0.0,0.0,0.0,0.0,0.0,0.0,0.0,0.0,0.0,1.316,1.3853,1.4482,1.4703,1.5518,1.6246,1.6604,1.6783,1.7069,1.7602,1.7749,1.7895,0.0,0.0,0.0,0.0,0.0,0.0,0.0,0.0,0.0,0.0,0.0,0.0,0.0,0.0,0.0,0.0,0.0,0.0,0.0,0.0,0.0,0.0,0.0,0.0,0.0,0.0,0.0,0.177,0.2007,0.0,0.0,0.0,0.0,0.0,0.0,0.0,0.0,0.0,0.0,0.0,0.7341,0.7677,0.0,0.0,0.0,0.0,0.0,0.0,0.0,0.0,0.0,0.0,0.0,0.0,2.2482,2.2709,2.3521,2.4018,2.4238,2.4426,2.4626,2.4842,2.5012,2.5157,2.532,0.0,0.0,0.0,0.0,0.0,0.0,0.0,0.0,0.0,0.0,0.0,0.0,0.0,0.0,0.0,0.0,0.0,0.0,0.0,0.0,0.0,0.0,0.0,0.0,0.0,1.0835,0.0,0.0,0.0,0.0,0.0,0.0,0.0,0.0,0.0,0.0,1.052,1.1043,1.2033,1.274,1.3233,1.3459,1.4018,1.4743,0.0,0.0,0.0,0.0,0.0,0.0,0.0,0.0,0.0,0.0,0.0,0.0,0.0,0.0,1.8432,1.8541,1.8101,1.776,1.7774,0.0,0.0,0.0,0.0,0.0,0.0,0.0,0.0,0.0,0.0,0.0,0.0,0.0,0.0,-0.0525,-0.0336,0.0178,0.0,0.0,0.0,0.0,0.0,0.0,0.0,0.0,0.42,0.4734,0.5268,0.5644,0.6279,0.0,0.7792,0.9245,0.0,0.0,0.0,0.0,0.0,0.0,0.0,0.0,2.1717,2.2293,2.3136,2.3803,2.4302,2.4502,2.4695,2.4879,2.508,2.5274,2.543,2.5496,2.5565,0.0,0.0,0.0,0.0,0.0,0.0,0.0,0.0,0.0,0.0,0.0,0.0,0.0,0.0,0.0,0.0,0.0,0.0,0.0,0.0,0.0,0.0,0.0,0.8879,0.0,0.0,0.0,0.0,0.0,0.0,0.0,0.0,0.0,0.8462,0.8898,0.9342,1.0192,1.1109,1.1815,1.2055,0.0,0.0,0.0,0.0,0.0,0.0,0.0,1.6176,1.7445,1.6686,1.5734,1.5159,1.5061,1.5433,1.661,0.0,0.0,1.8233,1.7995,1.7668,1.7636,1.7484,1.743,1.7765,1.8113,1.8422,0.0,0.0,0.0,0.0,0.0,0.0,0.0,0.0,-0.2713,-0.2418,0.0,-0.187,0.0,0.0,0.0,0.0,-0.0083,0.0413,0.0,0.0,0.2529,0.3335,0.4041,0.4875,0.5475,0.5804,0.6467,0.7427,0.8718,1.1717,0.0,0.0,0.0,0.0,0.0,0.0,2.111,2.218,2.2662,2.3363,2.4323,2.466,2.4879,2.5009,2.5274,2.5423,2.5502,2.5571,2.5629,2.5687,2.4907,0.0,0.0,0.0,0.0,0.0,0.0,0.0,0.0,0.0,0.0,0.0,0.0,0.0,0.0,0.0,0.0,0.0,0.0,0.0,0.0,0.8435,0.0,0.0,0.0,0.0,0.0,0.0,0.0,0.0,0.0,0.467,0.6511,0.7283,0.7695,0.7676,0.0,0.0,0.0,0.0,1.2506,1.3135,1.3425,1.4105,1.5583,1.5282,1.5511,1.7311,0.0,0.0,1.326,1.3342,1.4107,1.5308,1.6007,1.669,1.8716,1.8291,1.7611,1.7497,1.7362,1.7301,1.756,1.828,1.8945,-1.0157,0.0,0.0,0.0,0.0,-0.703,-0.6655,-0.6115,-0.5357,-0.4908,-0.4609,-0.3831,0.0,0.0,0.0,0.0,0.0,0.0,-0.1606,-0.118,-0.0566,0.0182,0.0955,0.1611,0.2345,0.3216,0.4218,0.5261,0.6425,0.8893,1.1413,1.394,0.0,0.0,0.0,0.0,2.0097,2.0804,2.1917,2.2864,2.3668,2.4416,2.4943,2.5274,2.5407,2.5514,2.5574,2.5639,2.5681,2.5702,2.5469,0.0,0.0,0.0,0.0,0.0,0.0,0.0,0.0,0.0,0.0,0.0,0.0,0.0,0.0,0.0,0.0,0.0,0.0,0.0,0.7928,0.6184,0.4887,0.0,0.0,0.0,0.0,0.0,0.0,0.0,0.0,0.0,0.3778,0.4897,0.5925,0.0,0.0,0.8162,0.9004,0.9574,1.0355,1.1609,1.1668,0.0,1.4033,1.4299,1.4703,1.5992,1.5655,1.5253,1.5237,1.5224,1.5796,1.7588,1.7716,1.7827,1.868,1.8359,1.7705,1.7263,1.7348,1.7653,1.7964,1.8651,1.9317,-1.3049,-1.1015,-1.0684,-1.0117,-0.9529,-0.9433,-0.9148,-0.8692,-0.7975,-0.7503,-0.7157,-0.6281,-0.5815,-0.5635,-0.5128,0.0,0.0,0.0,-0.3484,-0.3119,-0.2578,-0.1947,-0.1233,-0.0558,0.0273,0.1227,0.2386,0.3552,0.4743,0.6785,0.9252,1.2083,0.0,1.4852,1.5656,1.7424,1.8975,2.0092,2.1104,2.2199,2.3417,2.4141,2.4816,2.5421,2.551,2.557,2.5639,2.569,2.5702,2.5657,2.5344,2.4644,0.0,0.0,0.0,0.0,0.0,0.0,0.0,0.0,0.0,0.0,0.0,1.8073,1.7102,0.0,0.0,0.0,1.0156,0.7624,0.5249,0.3997,0.0,0.0,0.0,0.0,0.0,0.0,0.0,0.1679,0.1629,0.1702,0.1944,0.2843,0.3953,0.5233,0.5938,0.6698,0.758,0.0,0.8783,1.0197,1.0328,1.0895,1.2694,1.3166,1.3684,1.4864,1.5382,1.5616,1.5782,1.5691,1.6248,1.7815,1.8053,1.793,1.8416,1.8235,1.7932,1.7504,1.7677,1.8027,1.8522,1.9125,1.9611,-1.5016,-1.4587,-1.3749,-1.2712,-1.1633,-1.1576,-1.1228,-1.0606,-1.0303,-0.9898,-0.9383,-0.8805,-0.8103,-0.73,-0.6362,0.0,-0.5922,-0.5253,-0.4764,-0.4395,-0.3832,-0.3244,-0.2669,-0.1824,-0.1032,-0.0284,0.0981,0.2277,0.3584,0.5253,0.7191,0.9317,1.1817,1.3469,1.4363,1.5971,1.782,1.9847,2.0477,2.1701,2.3606,2.3953,2.4546,2.5464,2.5566,2.5629,2.5699,2.5698,2.5665,2.5583,2.4832,2.4329,2.4145,0.0,0.0,0.0,0.0,0.0,0.0,0.0,0.0,0.0,0.0,0.0,0.0,0.0,0.0,1.1299,0.7488,0.0,0.2763,0.2026,0.0,0.0,0.0,0.0961,0.0631,0.0501,0.0369,0.0275,0.0,0.0,0.0864,0.1206,0.1967,0.348,0.4595,0.5507,0.6323,0.6901,0.7675,0.9043,0.9466,1.0219,1.1735,1.2334,1.3112,1.439,1.528,1.5895,1.574,1.5598,1.6066,1.7539,1.7569,1.7558,1.7906,1.8087,1.8159,1.8075,1.8153,1.8408,1.8991,1.946,1.9757,-1.6645,-1.6023,-1.5891,-1.4899,-1.3309,-1.2601,-1.2125,-1.1778,-1.0606,-0.9993,-0.9745,-0.9144,-0.8568,-0.8021,-0.7496,-0.7175,-0.7091,-0.6684,-0.614,-0.5525,-0.5132,-0.448,-0.3635,-0.2832,-0.2067,-0.1285,0.0,0.1189,0.23,0.4263,0.5986,0.7502,0.9732,1.1803,1.3725,1.5767,1.7539,1.9058,2.1152,2.3077,2.4782,2.4417,2.4605,2.5486,2.5571,2.5632,2.5692,2.5659,2.5618,2.559,2.535,2.4895,2.4163,2.3128,0.0,0.0,0.0,0.0,0.0,0.0,0.0,0.0,0.0,1.8829,1.7127,0.0,1.37,0.0,0.7415,0.4174,0.2681,0.1328,0.0,0.0,-0.0692,-0.0802,-0.0878,-0.1055,-0.107,-0.0901,-0.0665,-0.0356,0.0041,0.0408,0.0931,0.1735,0.2953,0.422,0.5578,0.6183,0.7071,0.8645,0.9597,1.0493,1.1639,1.3163,1.4517,1.5704,1.637,1.6895,1.7428,1.7655,1.8085,1.8872,1.8739,1.8459,1.8359,1.8158,1.8177,1.8484,1.8477,1.8412,1.8659,1.9206,1.9638,-1.755,-1.7109,-1.7102,-1.6456,-1.5439,-1.4429,-1.3648,-1.3065,-1.2208,-1.1506,-1.0887,-1.0017,-0.9352,-0.8825,-0.8378,-0.8099,-0.7897,-0.7572,-0.7113,-0.6534,-0.6066,-0.5573,-0.5011,-0.4125,-0.3283,-0.2459,-0.139,-0.0068,0.1452,0.3215,0.4812,0.6169,0.864,1.0647,1.2263,1.4972,1.7152,1.878,2.1643,2.3634,2.4697,2.4415,2.4668,2.5508,2.5571,2.5606,2.5661,2.5576,2.5549,2.5515,2.5445,2.5148,2.4521,2.3342,2.2441,0.0,0.0,0.0,0.0,0.0,0.0,0.0,0.0,0.0,0.0,0.0,1.3363,0.9992,0.6079,0.321,0.1841,-0.0044,-0.1379,-0.187,-0.2048,-0.2102,-0.1977,-0.2356,-0.2487,-0.2281,-0.2114,-0.1798,-0.1371,-0.089,-0.0249,0.0571,0.1594,0.2913,0.4626,0.5394,0.6452,0.8285,0.9224,1.0407,1.2069,1.3517,1.4918,1.6276,1.6943,1.7511,1.8393,1.8453,1.8595,1.9206,1.8911,1.845,1.8312,1.8213,1.8241,1.8455,1.8623,1.8779,1.9174,1.9351,1.9459,-1.7975,-1.7868,-1.7611,-1.7447,-1.7273,-1.6324,-1.5376,-1.4393,-1.4104,-1.3361,-1.2225,-1.0974,-1.0135,-0.9571,-0.9083,-0.8765,-0.8594,-0.8201,-0.7812,-0.7366,-0.6746,-0.6422,-0.6324,-0.5401,-0.4485,-0.3594,-0.2826,-0.1363,0.0698,0.2295,0.3797,0.5257,0.8117,0.9904,1.0687,1.3926,1.6737,1.902,2.2154,2.3917,2.4252,2.4393,2.4831,2.5548,2.5606,2.5605,2.5574,2.5517,2.5435,2.5378,2.5302,2.5174,2.4942,2.3376,2.2458,0.0,2.0937,0.0,0.0,0.0,0.0,0.0,0.0,0.0,0.0,1.5798,1.261,0.7538,0.4414,0.2081,0.0567,-0.1586,-0.3071,-0.3515,-0.346,-0.3322,-0.3196,-0.3634,-0.3898,-0.3684,-0.369,-0.3427,-0.2798,-0.2153,-0.132,-0.0197,0.0784,0.2103,0.3796,0.4817,0.6002,0.796,0.8946,1.0683,1.2974,1.3935,1.4874,1.6572,1.7381,1.7952,1.8783,1.8567,1.8453,1.8951,1.8655,1.8226,1.809,1.8307,1.8439,1.8465,1.8713,1.9141,1.9678,1.9578,1.9344,-1.8022,-1.7801,-1.7591,-1.7323,-1.7038,-1.6863,-1.6286,-1.5445,-1.445,-1.3345,-1.2149,-1.1131,-1.0464,-1.0123,-0.9774,-0.9448,-0.9119,-0.889,-0.8454,-0.7752,-0.7179,-0.6797,-0.659,-0.5715,-0.4975,-0.4286,-0.3493,-0.22,-0.0434,0.1839,0.3469,0.4558,0.781,0.9742,1.0478,0.0,0.0,0.0,2.3135,2.4762,2.5144,2.5276,2.5433,2.5593,2.5605,0.0,2.5527,2.5395,2.5318,2.5234,2.512,0.0,0.0,0.0,0.0,0.0,0.0,0.0,0.0,0.0,0.0,0.0,2.1504,2.1394,2.0421,1.6413,1.1686,0.6629,0.4416,0.2134,-0.0739,-0.2189,-0.3695,-0.53,-0.5519,-0.5519,-0.5489,-0.5535,-0.5404,-0.4981,-0.4465,-0.3858,-0.3235,-0.2409,-0.1526,-0.0589,0.0817,0.2283,0.374,0.4748,0.6167,0.8365,1.0399,1.2413,1.4592,1.5257,1.5967,1.742,1.8176,1.8533,1.8787,1.8887,1.8753,1.8858,1.877,1.8671,1.8538,1.866,1.8834,1.893,1.9051,1.9158,1.921,1.9236,1.9246,-1.8347,-1.8128,-1.7882,-1.7645,0.0,-1.726,-1.7001,-1.6553,-1.5231,-1.3835,-1.2346,-1.1754,-1.1178,-1.0577,-1.0317,-1.0,-0.9681,-0.9439,-0.9059,-0.8547,-0.7918,-0.7591,-0.7552,-0.6725,-0.6052,-0.5522,-0.4878,-0.3602,-0.1796,0.0141,0.1819,0.3368,0.676,0.8945,0.998,1.4356,1.803,2.0827,2.3092,2.4642,2.5408,2.5556,2.5609,2.5633,2.5586,0.0,0.0,0.0,0.0,0.0,0.0,0.0,0.0,2.2864,0.0,2.1696,2.0252,1.9369,1.9313,1.9318,1.9816,2.0971,2.2029,2.201,2.0582,1.5028,1.0196,0.6696,0.2487,-0.0951,-0.2906,-0.4337,-0.5716,-0.6983,-0.7138,-0.7002,-0.6677,-0.6645,-0.644,-0.6061,-0.5984,-0.5665,-0.4582,-0.4098,-0.3196,-0.179,0.0257,0.221,0.38,0.5188,0.7039,0.9955,1.2255,1.4184,1.5606,1.6247,1.6843,1.7953,1.8592,1.8915,1.9093,1.9216,1.9268,1.9201,1.9157,1.9063,1.8972,1.903,1.9127,1.92,1.9322,1.9439,1.943,1.9434,1.9406,-1.8634,-1.8471,-1.8121,-1.7962,-1.7882,-1.7569,-1.7385,-1.7284,-1.5989,0.0,0.0,-1.2664,-1.1996,-1.1133,-1.092,-1.0575,-1.0152,-0.9869,-0.9597,-0.9385,-0.8647,-0.8441,-0.8578,-0.7799,-0.7157,-0.6678,-0.6171,-0.4945,-0.3041,-0.1622,0.0074,0.2223,0.5602,0.8236,1.0247,1.5704,1.9307,2.0805,2.2852,2.4437,2.5467,2.5578,2.5636,2.5687,2.5552,2.5425,2.5318,2.5112,2.4904,2.4682,2.448,2.4256,2.3888,2.2437,2.148,2.1143,1.9777,1.8955,1.8887,1.8789,1.9345,2.0815,2.2052,2.1847,1.9613,1.3238,0.8495,0.6546,-0.0339,-0.5029,-0.5994,-0.7281,-0.8472,-0.9319,-0.9256,-0.8919,-0.8444,-0.8372,-0.8349,-0.7739,-0.8147,-0.7931,-0.6599,-0.6042,-0.5156,-0.3064,-0.0319,0.2504,0.4758,0.6828,0.8871,1.151,1.3637,1.5479,1.6473,1.7024,1.7577,1.8494,1.899,1.9263,1.9453,1.9587,1.9666,1.9647,1.9517,1.9397,1.9346,1.9343,1.9382,1.9392,1.9529,1.9724,1.988,1.9823,1.9697,-1.8595,-1.8464,-1.8128,-1.7969,-1.7889,-1.7528,-1.7196,-1.674,-1.5906,-1.5225,-1.4625,-1.3831,-1.2918,-1.1921,-1.1826,-1.129,-1.0351,-1.023,-1.0,-0.9716,-0.9153,-0.8985,-0.9066,-0.8269,-0.7625,-0.7114,-0.6695,-0.5512,-0.3685,-0.2168,-0.0551,0.1372,0.4931,0.8633,1.2222,1.5647,1.8224,1.9984,2.3116,2.5009,2.556,2.5606,2.5602,2.5606,2.5436,2.5213,2.4975,2.4775,2.451,2.4201,2.408,2.3855,2.3547,2.2046,2.1036,2.0648,1.9263,1.8554,1.8877,1.8841,1.9182,2.0068,2.0764,2.0503,1.8854,1.2363,0.6936,0.3696,-0.3302,-0.8424,-1.041,-1.0723,-1.1523,-1.3333,-1.331,-1.3034,-1.2787,-1.2617,-1.2166,-1.1457,-1.1063,-1.0159,-0.8658,-0.7428,-0.5887,-0.3539,0.0255,0.3831,0.7824,1.0212,1.1392,1.2576,1.4275,1.5856,1.7055,1.7583,1.8283,1.9261,1.9549,1.9695,1.9771,1.9828,1.9818,1.972,1.9722,1.966,1.9516,1.9516,1.9623,1.9752,1.9828,1.9931,2.0098,2.006,2.0031,-1.8457,-1.8372,-1.8062,-1.7862,-1.7652,-1.7419,-1.6996,-1.6497,-1.6203,-1.5622,-1.4814,-1.4303,-1.3553,-1.2685,-1.2125,-1.1617,-1.1132,-1.0615,-1.0239,-1.004,-0.9733,-0.9515,-0.9403,-0.8709,-0.8226,-0.7868,-0.7349,-0.6366,-0.4984,-0.3659,-0.1968,0.0246,0.5185,0.9505,1.2972,1.6542,1.9024,2.0409,2.2981,2.4692,2.5513,2.5547,2.5524,2.5485,2.527,2.503,2.4797,2.451,2.4155,2.3801,2.3574,2.3319,2.2928,2.1479,2.0463,2.008,1.8542,1.7764,1.8108,1.8126,1.8207,1.8535,1.8744,1.8639,1.8143,1.0063,0.2914,-0.2132,-0.8343,-1.243,-1.3539,-1.3513,-1.3914,-1.5119,-1.4866,-1.4522,-1.4295,-1.3987,-1.3566,-1.2958,-1.2826,-1.2082,-1.0272,-0.9177,-0.6807,-0.2984,0.2209,0.7143,1.047,1.2532,1.3759,1.4194,1.5975,1.7565,1.8338,1.8721,1.9162,1.9634,1.9858,1.9958,1.9978,1.999,1.999,1.9967,1.9944,1.9888,1.9817,1.9878,1.9955,1.9984,2.0076,2.0148,2.0185,2.0159,2.0149,-1.8226,-1.8161,-1.7935,-1.7693,-1.7365,-1.7109,-1.6765,-1.6287,-1.6337,-1.577,-1.4904,-1.4734,-1.4135,-1.3123,-1.2375,-1.186,-1.1485,-1.0878,-1.0483,-1.0293,-1.0233,-1.0031,-0.9683,-0.9052,-0.8683,-0.8435,-0.781,-0.6969,-0.5922,-0.49,-0.2682,0.0631,0.5473,0.9727,1.3339,1.6825,1.937,2.0927,2.2833,2.4361,2.5488,2.5515,2.5483,2.536,2.5104,2.486,2.4616,2.4229,2.381,2.3387,2.3093,2.2754,2.2317,2.101,2.0076,1.9623,1.8257,1.7422,1.7588,1.7521,1.7337,1.6999,1.6977,1.6361,1.4365,0.789,0.0862,-0.529,-1.1873,-1.621,-1.6237,-1.612,-1.6194,-1.6531,-1.6309,-1.6141,-1.5712,-1.5375,-1.4867,-1.4307,-1.441,-1.3827,-1.1811,-1.0046,-0.6256,0.0301,0.5786,0.976,1.1913,1.4119,1.5462,1.6037,1.7644,1.9053,1.9471,1.9623,1.9769,1.9774,1.999,2.0098,2.0088,2.0122,2.0164,2.0179,2.0142,2.0116,2.0152,2.0178,2.0197,2.0181,2.0222,2.0275,2.0225,2.0188,2.0202,-1.8068,-1.7801,-1.7801,-1.7482,-1.696,-1.665,-1.6436,-1.6194,-1.5975,-1.5647,-1.5207,-1.5431,-1.4508,-1.3117,-1.284,-1.2033,-1.0821,-1.101,-1.0825,-1.0391,-1.0679,-1.0452,-0.9758,-0.9217,-0.8805,-0.8435,-0.7814,-0.6888,-0.5825,-0.4878,-0.1667,0.3427,0.5266,0.8597,1.3289,1.5443,1.7835,2.095,2.2843,2.4415,2.5586,2.5629,2.5506,2.5306,2.5059,2.4728,2.4343,2.3945,2.3495,2.2985,2.2634,2.2294,2.1836,2.0928,2.0187,1.9784,1.8904,1.8323,1.8023,1.7647,1.6981,1.61,1.6191,1.3735,0.7926,0.6392,0.3916,-0.1897,-1.2062,-1.8134,-1.9002,-1.8576,-1.859,-1.8912,-1.8817,-1.8972,-1.885,-1.8954,-1.8352,-1.7149,-1.6351,-1.5365,-1.2456,-0.82,-0.2287,0.5131,0.8368,1.0799,1.2681,1.4893,1.6436,1.6863,1.8322,1.9463,1.9741,1.9826,1.9952,2.0021,2.0078,2.0145,2.0215,2.0257,2.0289,2.0291,2.0305,2.0312,2.0299,2.0291,2.0305,2.0328,2.0325,2.0295,2.0289,2.0268,2.0312,-1.7503,-1.7297,-1.7166,-1.6844,-1.638,-1.6318,-1.605,-1.5665,-1.5614,-1.534,-1.4852,-1.4581,-1.4027,-1.3341,-1.2738,-1.1902,-1.094,-1.0616,-1.0375,-1.0117,-1.016,-1.0031,-0.9683,-0.8886,-0.8431,-0.8144,-0.7395,-0.6553,-0.5475,-0.3843,-0.0469,0.3925,0.5761,0.9116,1.3981,1.6124,1.8645,2.1753,2.3159,2.4437,2.5488,2.5567,2.5412,2.5125,2.482,2.4507,2.4165,2.3683,2.3179,2.2634,2.2275,2.194,2.1509,2.0621,1.9983,1.9641,1.8654,1.7899,1.7529,1.7028,1.64,1.5621,1.534,1.3668,1.0508,0.7697,0.5078,0.2346,-0.7604,-1.4607,-1.4776,-1.7284,-1.9239,-1.9405,-1.9326,-1.9301,-1.9461,-1.9324,-1.8787,-1.7664,-1.6882,-1.4575,-0.9755,-0.2667,0.3607,0.8372,1.0751,1.2898,1.3982,1.5705,1.6848,1.7358,1.8764,1.9858,2.003,2.0094,2.0153,2.0207,2.0254,2.0303,2.0283,2.0302,2.0309,2.0356,2.0371,2.0406,2.0424,2.0408,2.0418,2.0434,2.0337,2.027,2.034,2.0299,2.0323,-1.6892,-1.6648,-1.6454,-1.6157,-1.5869,-1.5869,-1.5614,-1.5255,-1.5198,-1.4932,-1.4479,-1.3781,-1.3316,-1.297,-1.22,-1.1451,-1.0783,-1.0226,-0.9916,-0.9806,-0.973,-0.9654,-0.9399,-0.8598,-0.8058,-0.7724,-0.6927,-0.5953,-0.4781,-0.2747,0.0391,0.3985,0.5996,0.9549,1.4509,1.6474,1.8892,2.2312,2.3264,2.419,2.5331,2.5496,2.5345,2.5044,2.4709,2.436,2.4059,2.3486,2.2916,2.2404,2.2002,2.1615,2.119,2.044,1.9844,1.9428,1.8357,1.7567,1.7215,1.6658,1.5998,1.5313,1.4881,1.4377,1.3099,1.0103,0.8264,0.7641,-0.0835,-0.7169,-1.121,-1.458,-1.7363,-1.8824,-1.907,-1.9001,-1.9065,-1.885,-1.7698,-1.5799,-1.4212,-1.1434,-0.4462,0.285,0.8213,1.062,1.3031,1.4753,1.5014,1.6194,1.7404,1.7528,1.9099,2.0194,2.0285,2.0284,2.0321,2.0327,2.0351,2.0365,2.0332,2.0303,2.0317,2.0355,2.038,2.0408,2.0459,2.0486,2.0467,2.0429,2.0357,2.0275,2.0348,2.0295,2.0336,-1.6281,-1.5832,-1.5629,-1.5552,-1.5507,-1.5136,-1.5006,-1.5011,-1.4651,-1.443,-1.4267,-1.3512,-1.2684,-1.1786,-1.112,-1.0474,-0.9939,-0.994,-0.9712,-0.9377,-0.9595,-0.9508,-0.8988,-0.8308,-0.7855,-0.7391,-0.6459,-0.5166,-0.351,-0.1867,0.087,0.4527,0.5613,0.9236,1.4734,1.5323,1.7723,2.244,2.2854,2.3573,2.5175,2.5401,2.534,2.5146,2.4743,2.4308,2.3905,2.3387,2.2841,2.2313,2.179,2.1339,2.0918,2.0506,1.9911,1.9156,1.8265,1.7664,1.7411,1.6817,1.5981,1.5121,1.5145,1.4772,1.3584,1.3062,1.2847,1.3331,0.7575,0.0591,-0.7781,-1.0917,-1.3823,-1.7832,-1.8382,-1.8122,-1.8102,-1.6737,-1.4806,-1.1032,-0.8987,-0.4795,0.4278,0.7212,1.0159,1.2916,1.473,1.5088,1.5234,1.6592,1.756,1.7993,1.9107,2.0471,2.042,2.039,2.0391,2.0501,2.057,2.04,2.0336,2.0306,2.0337,2.0371,2.0396,2.0437,2.0487,2.0486,2.0437,2.0403,2.0381,2.0355,2.0359,2.037,2.041,-1.568,-1.5322,-1.5085,-1.4903,-1.4783,-1.4645,-1.4455,-1.428,-1.3994,-1.3758,-1.3319,-1.2368,-1.1616,-1.1143,-0.9946,-0.9457,-0.947,-0.9267,-0.9086,-0.8971,-0.8861,-0.8688,-0.8451,-0.7897,-0.7353,-0.6752,-0.5862,-0.4428,-0.2536,-0.1068,0.1313,0.4404,0.6104,0.9679,1.4374,1.5552,1.8157,2.2641,2.2861,2.3595,2.532,2.541,2.5279,2.5112,2.4646,2.4201,2.3855,2.3224,2.2695,2.2209,2.1667,2.1238,2.0886,2.0429,1.9861,1.9154,1.8449,1.7965,1.7612,1.6974,1.6217,1.5438,1.5245,1.4839,1.4011,1.3839,1.3799,1.3194,1.2303,0.7263,0.0371,-0.6497,-1.138,-1.2799,-1.4026,-1.4315,-1.3337,-1.1383,-0.8652,-0.5799,-0.2349,0.2628,0.6247,0.9893,1.2501,1.4068,1.4738,1.4931,1.5282,1.6581,1.7765,1.8052,1.9284,2.0683,2.1296,2.0754,2.0533,2.083,2.0929,2.0591,2.0431,2.0424,2.0458,2.057,2.0558,2.0447,2.0495,2.0472,2.0434,2.0398,2.0365,2.0373,2.0359,2.0386,2.0433,-1.4869,-1.4588,-1.4398,-1.4247,-1.4093,-1.3994,-1.38,-1.3568,-1.3286,-1.3084,-1.2676,-1.148,-1.0807,-1.0445,-0.9165,-0.8594,-0.8752,-0.8476,-0.8349,-0.83,-0.8077,-0.7912,-0.781,-0.7363,-0.681,-0.6112,-0.4952,-0.3422,-0.1605,-0.0222,0.1968,0.4829,0.6743,1.0267,1.4634,1.6061,1.8776,2.2558,2.3152,2.3834,2.5351,2.5428,2.5244,2.504,2.4591,2.4146,2.3735,2.3144,2.2572,2.2068,2.157,2.1087,2.0646,2.0143,1.961,1.9056,1.8514,1.8088,1.7639,1.7109,1.6492,1.5865,1.5415,1.4834,1.4161,1.3957,1.3593,1.3255,1.3213,1.1439,0.6844,-0.0889,-0.6564,-0.7607,-0.8953,-0.9419,-0.885,-0.6418,-0.3689,-0.0485,0.4238,0.7831,0.9587,1.2267,1.3858,1.4433,1.47,1.4899,1.5204,1.6551,1.7784,1.8037,1.939,2.088,2.1542,2.1278,2.1277,2.1564,2.1548,2.1104,2.0794,2.0743,2.0739,2.0808,2.0721,2.0555,2.0476,2.0468,2.0429,2.0402,2.0403,2.0415,2.041,2.0408,2.0453,-1.3758,-1.361,-1.3573,-1.352,-1.3372,-1.3165,-1.3112,-1.3079,-1.2613,-1.2471,-1.2357,-1.1062,-1.0297,-0.9917,-0.874,-0.8013,-0.7679,-0.7565,-0.7534,-0.7447,-0.737,-0.728,-0.7098,-0.668,-0.6033,-0.529,-0.3727,-0.214,-0.067,0.0753,0.2754,0.5161,0.7379,1.0882,1.5844,1.6692,1.9284,2.2844,2.3574,2.4168,2.5385,2.545,2.526,2.4985,2.4622,2.4165,2.3632,2.3156,2.2582,2.1969,2.1526,2.0885,2.0158,1.9697,1.9265,1.8867,1.8411,1.8016,1.7564,1.7179,1.6716,1.6225,1.5674,1.5022,1.447,1.4095,1.3544,1.2747,1.2542,1.1999,1.0666,0.6151,0.1037,-0.3095,-0.3817,-0.392,-0.3869,-0.3054,-0.0381,0.4749,0.9277,1.2536,1.359,1.4049,1.4439,1.4575,1.4784,1.4972,1.5212,1.6637,1.7696,1.8179,1.935,2.091,2.1468,2.1833,2.2132,2.2349,2.2216,2.1943,2.1662,2.1542,2.1518,2.1526,2.1103,2.0927,2.0808,2.0758,2.0502,2.0446,2.0454,2.0458,2.0452,2.0445,2.0472,-1.3165,-1.3021,-1.2895,-1.2803,-1.2813,-1.2808,-1.2652,-1.2309,-1.2175,-1.1981,-1.1523,-1.0262,-0.9561,-0.9125,-0.7975,-0.7014,-0.6419,-0.6286,-0.641,-0.667,-0.6501,-0.6295,-0.6039,-0.5782,-0.4897,-0.349,-0.2263,-0.107,0.0223,0.1772,0.3467,0.5249,0.7396,1.0917,1.5358,1.6396,1.8951,2.3126,2.3657,2.4171,2.5117,2.5379,2.527,2.4884,2.4652,2.4226,2.3552,2.3028,2.2547,2.2039,2.157,2.0917,2.0177,1.9769,1.9406,1.8972,1.8471,1.8076,1.7747,1.7282,1.6863,1.6571,1.5938,1.5484,1.51,1.4412,1.3702,1.2922,1.2625,1.2252,1.1402,1.0349,0.6818,0.2425,0.0979,0.0623,0.1301,0.3957,0.7013,0.9124,1.1532,1.3058,1.383,1.4275,1.4448,1.4543,1.4738,1.4922,1.5295,1.6611,1.7698,1.8016,1.9507,2.1058,2.2043,2.254,2.2653,2.296,2.2951,2.273,2.2474,2.2362,2.2342,2.2101,2.1673,2.1351,2.1221,2.1012,2.0769,2.0522,2.0481,2.048,2.048,2.0488,2.0499,-1.2594,-1.2335,-1.2264,-1.2274,-1.2274,-1.2426,-1.2136,-1.1621,-1.155,-1.123,-1.0492,-0.9252,-0.8633,-0.8303,-0.7131,-0.6218,-0.5612,-0.5209,-0.5158,-0.546,-0.5465,-0.5214,-0.4829,-0.4335,-0.331,-0.1814,-0.0843,0.0222,0.1468,0.2956,0.4386,0.5837,0.8142,1.1116,1.4769,1.654,1.9251,2.2466,2.3558,2.4283,2.4938,2.5336,2.5315,2.4946,2.4755,2.4346,2.3711,2.3194,2.2695,2.2108,2.1493,2.0778,2.0143,1.9818,1.9537,1.9183,1.8659,1.8235,1.8036,1.7482,1.7025,1.685,1.6374,1.5926,1.5628,1.4932,1.4355,1.3265,1.2985,1.2418,1.1468,1.124,0.9809,0.7169,0.5769,0.5312,0.6318,0.8626,1.0585,1.1467,1.25,1.3311,1.396,1.4279,1.4472,1.4585,1.4757,1.5112,1.56,1.674,1.7623,1.8505,1.9639,2.1255,2.2959,2.3286,2.3209,2.3469,2.3715,2.3447,2.3173,2.3193,2.3192,2.2812,2.2402,2.1949,2.1765,2.1416,2.113,2.088,2.0666,2.0526,2.0526,2.0503,2.0516,-1.1927,-1.1528,-1.1723,-1.1823,-1.1823,-1.2022,-1.1599,-1.0924,-1.0676,-1.0264,-0.943,-0.822,-0.7565,-0.7258,-0.6284,-0.5524,-0.5087,-0.4378,-0.3902,-0.382,-0.3906,-0.3902,-0.3593,-0.2571,-0.1416,-0.031,0.0576,0.1726,0.3137,0.4584,0.5673,0.7038,0.9663,1.2046,1.442,1.7099,1.9563,2.172,2.3447,2.453,2.503,2.5371,2.5371,2.5111,2.4885,2.4545,2.4025,2.3543,2.2956,2.2127,2.13,2.0654,2.0177,1.9861,1.9654,1.9464,1.8874,1.8521,1.824,1.7841,1.7421,1.7173,1.6957,1.6612,1.6108,1.5917,1.5341,1.3874,1.3639,1.2881,1.1419,1.1072,1.0737,1.047,0.9583,0.9479,0.9951,1.0579,1.1429,1.2245,1.2907,1.3507,1.4177,1.4371,1.4485,1.4687,1.4913,1.5455,1.6144,1.7169,1.8467,1.9367,2.0108,2.1549,2.3255,2.3509,2.3541,2.4286,2.4452,2.4171,2.3941,2.3979,2.4144,2.3748,2.3219,2.2737,2.238,2.2157,2.1774,2.1474,2.1177,2.077,2.083,2.11,2.1142,-1.1074,-1.082,-1.1078,-1.1162,-1.12,-1.1519,-1.1021,-1.0062,-1.006,-0.9549,-0.8612,-0.7344,-0.6708,-0.6505,-0.5443,-0.4613,-0.4041,-0.3512,-0.2892,-0.2361,-0.2141,-0.2139,-0.1821,-0.0886,0.0221,0.1283,0.2584,0.3799,0.489,0.6635,0.7955,0.8785,1.1042,1.3236,1.5441,1.7608,1.972,2.1627,2.3482,2.4496,2.4756,2.5312,2.5443,2.5176,2.4979,2.4672,2.4216,2.3627,2.2898,2.2002,2.1268,2.0745,2.0426,2.0115,1.9833,1.9522,1.9049,1.8707,1.863,1.8286,1.7929,1.7747,1.7578,1.7338,1.707,1.6693,1.623,1.5518,1.5049,1.4061,1.3045,1.2694,1.267,1.2554,1.1647,1.0956,1.1153,1.1687,1.2361,1.2662,1.3323,1.3835,1.4114,1.4317,1.4405,1.4736,1.5282,1.5978,1.683,1.7722,1.9055,1.9821,2.07,2.2077,2.3188,2.3488,2.4017,2.4991,2.5152,2.4904,2.4752,2.4712,2.4991,2.5087,2.4313,2.3749,2.3511,2.3294,2.2789,2.2165,2.2143,2.2022,2.2271,2.2515,2.2378,-1.051,-1.0308,-1.0667,-1.0804,-1.0876,-1.1204,-1.0541,-0.9429,-0.9276,-0.8659,-0.7507,-0.6279,-0.5668,-0.5462,-0.4435,-0.3644,-0.3115,-0.2498,-0.1964,-0.1473,-0.0715,-0.0402,-0.0133,0.0797,0.1982,0.3201,0.448,0.5658,0.6833,0.835,0.9399,1.0478,1.2274,1.4028,1.5484,1.7819,1.9452,2.0859,2.2778,2.405,2.4244,2.5137,2.5461,2.5304,2.5129,2.4818,2.4338,2.3753,2.2966,2.2113,2.1513,2.1095,2.073,2.0342,2.0115,1.9945,1.9486,1.9199,1.9124,1.8791,1.856,1.8468,1.8298,1.818,1.7987,1.7646,1.7402,1.6813,1.6174,1.5308,1.4321,1.3863,1.3838,1.387,1.3191,1.2637,1.2651,1.301,1.3297,1.347,1.37,1.3991,1.4132,1.4472,1.484,1.5242,1.5999,1.6902,1.7871,1.8752,1.9766,2.0806,2.146,2.2635,2.36,2.3986,2.4263,2.5202,2.5504,2.532,2.5146,2.5099,2.5205,2.528,2.5033,2.4732,2.4276,2.3887,2.3467,2.3096,2.3203,2.3181,2.3228,2.3461,2.3371,-0.998,-0.9951,-1.0352,-1.0533,-1.0551,-1.0775,-0.9952,-0.8761,-0.8373,-0.7585,-0.6331,-0.5104,-0.4587,-0.4374,-0.352,-0.2764,-0.2271,-0.1564,-0.0983,-0.0268,0.0625,0.1337,0.1596,0.2509,0.3713,0.503,0.6151,0.7536,0.874,0.9593,1.0596,1.1955,1.3522,1.4578,1.5952,1.7944,1.9181,2.0225,2.2288,2.3706,2.4196,2.5057,2.5415,2.5172,2.4955,2.4749,2.4379,2.392,2.3271,2.231,2.1935,2.1549,2.1102,2.0714,2.0563,2.0514,2.0104,1.9803,1.9739,1.9435,1.9199,1.9199,1.9102,1.8983,1.8855,1.8693,1.8432,1.7885,1.7565,1.6887,1.5706,1.4803,1.4798,1.5165,1.5171,1.5092,1.4875,1.4472,1.4222,1.4295,1.4044,1.3965,1.4363,1.4963,1.5744,1.6474,1.7193,1.8125,1.9092,1.9974,2.1192,2.2539,2.2945,2.3158,2.3933,2.4567,2.483,2.5277,2.5496,2.5441,2.5145,2.5078,2.5085,2.5019,2.4793,2.4618,2.4398,2.4075,2.3843,2.401,2.4097,2.3798,2.3568,2.3943,2.4038,-0.9159,-0.9215,-0.9577,-0.9599,-0.9566,-0.9791,-0.9001,-0.749,-0.7336,-0.6499,-0.524,-0.4439,-0.3862,-0.3326,-0.2762,-0.2145,-0.125,-0.0626,0.0045,0.1466,0.2492,0.3328,0.3792,0.4507,0.5252,0.6495,0.8311,0.9607,1.0497,1.1586,1.2817,1.3709,1.4957,1.6249,1.6772,1.8543,2.0216,2.0979,2.2537,2.3784,2.4592,2.5191,2.5303,2.4769,2.4407,2.4331,2.4433,2.4275,2.3896,2.3325,2.2676,2.211,2.1652,2.1314,2.1103,2.0918,2.0649,2.0431,2.0405,2.0131,1.9929,1.9882,1.9839,1.9767,1.9609,1.9586,1.9512,1.9383,1.9499,1.8903,1.7854,1.7239,1.6822,1.6779,1.6892,1.7005,1.6991,1.5724,1.4684,1.4205,1.4136,1.4248,1.5062,1.5486,1.6396,1.7554,1.8584,1.9465,2.034,2.1199,2.2266,2.3518,2.3705,2.3799,2.4302,2.4851,2.5053,2.5143,2.5279,2.5296,2.5015,2.4765,2.4675,2.462,2.4561,2.4374,2.4091,2.4374,2.4174,2.4569,2.4897,2.4765,2.4651,2.478,2.4704,-0.8046,-0.8256,-0.8666,-0.8783,-0.8645,-0.8947,-0.8205,-0.6858,-0.6334,-0.5479,-0.4315,-0.3515,-0.2847,-0.2314,-0.1784,-0.0983,-0.0089,0.0668,0.1601,0.2709,0.3683,0.4671,0.5882,0.6645,0.7407,0.809,0.9704,1.1026,1.1944,1.2822,1.367,1.4715,1.5983,1.6784,1.7413,1.891,1.9831,2.0632,2.2129,2.3391,2.4104,2.5158,2.5478,2.4943,2.463,2.4608,2.4713,2.4619,2.4389,2.4005,2.3475,2.2833,2.2199,2.1803,2.1552,2.1354,2.1103,2.095,2.0861,2.0714,2.0558,2.0514,2.0504,2.0402,2.0292,2.0311,2.0296,2.0306,2.0293,2.0123,1.9248,1.8259,1.7868,1.7929,1.7963,1.7927,1.7596,1.659,1.5575,1.5198,1.541,1.5622,1.6013,1.6631,1.7769,1.9253,1.9996,2.0869,2.1591,2.2396,2.2961,2.3786,2.4061,2.4355,2.4765,2.5075,2.5188,2.511,2.4942,2.4834,2.4576,2.4341,2.4131,2.3982,2.3782,2.3767,2.3624,2.4014,2.4333,2.4593,2.4876,2.5396,2.5593,2.5288,2.522,-0.6851,-0.7176,-0.7697,-0.7753,-0.7556,-0.7829,-0.71,-0.5713,-0.5181,-0.4208,-0.3317,-0.2296,-0.1758,-0.1339,-0.0714,0.0179,0.1293,0.2268,0.32,0.4144,0.489,0.606,0.7412,0.8642,0.9596,0.993,1.1148,1.2224,1.2916,1.3549,1.4312,1.5264,1.6147,1.7042,1.7898,1.8635,1.9476,2.0276,2.1699,2.2883,2.3581,2.4912,2.5525,2.5386,2.4978,2.4928,2.4902,2.4842,2.47,2.4528,2.4228,2.3641,2.2942,2.2325,2.1968,2.1874,2.1658,2.1493,2.1402,2.1253,2.1158,2.1118,2.1047,2.0999,2.0917,2.075,2.0623,2.0552,2.0487,2.0189,1.9509,1.8763,1.8275,1.8234,1.8319,1.8082,1.7628,1.7369,1.6953,1.6466,1.6569,1.6852,1.7657,1.8455,1.9707,2.0758,2.141,2.1974,2.2569,2.303,2.3242,2.3537,2.3708,2.3987,2.4407,2.4552,2.4763,2.4436,2.4297,2.4042,2.3784,2.3378,2.3035,2.2998,2.288,2.2881,2.2952,2.3137,2.3572,2.4185,2.4755,2.5154,2.5409,2.5597,2.561,-0.6095,-0.6195,-0.6185,-0.5882,-0.5477,-0.5727,-0.4917,-0.3441,-0.3092,-0.2404,-0.165,-0.1172,-0.0737,-0.0407,0.0089,0.1247,0.2771,0.382,0.4751,0.5782,0.6595,0.7762,0.9134,1.038,1.1481,1.2398,1.2944,1.3329,1.3842,1.4407,1.5156,1.5897,1.6695,1.7482,1.8027,1.8612,1.9561,2.0645,2.1967,2.3087,2.4234,2.5154,2.5771,2.5517,2.4983,2.4768,2.4962,2.4926,2.4814,2.4654,2.445,2.4137,2.3733,2.3243,2.2863,2.2556,2.2368,2.2164,2.1995,2.1848,2.1735,2.1683,2.157,2.1493,2.1356,2.1027,2.0719,2.0438,2.0199,1.9899,1.9559,1.9086,1.8802,1.8534,1.8322,1.8289,1.817,1.8114,1.8098,1.7666,1.7815,1.8026,1.8774,1.9527,2.0411,2.1016,2.1408,2.1594,2.1804,2.2201,2.2495,2.2813,2.3154,2.3483,2.3866,2.389,2.3911,2.3371,2.3089,2.2805,2.2508,2.2094,2.1872,2.1944,2.1992,2.2004,2.212,2.2305,2.2896,2.3585,2.4209,2.4813,2.5088,2.5305,2.5526,-0.4725,-0.4776,-0.4769,-0.4479,-0.408,-0.4253,-0.3424,-0.1977,-0.1546,-0.0868,0.0,0.0583,0.1059,0.1516,0.2211,0.3347,0.4585,0.5437,0.6331,0.729,0.8336,0.9573,1.0923,1.2097,1.3319,1.4276,1.4595,1.466,1.4994,1.5552,1.6194,1.6905,1.7574,1.8111,1.8563,1.9113,2.0037,2.1282,2.2747,2.4178,2.5334,2.6086,2.6248,2.5986,2.5351,2.503,2.5081,2.5094,2.501,2.4896,2.4737,2.4582,2.4359,2.4053,2.3602,2.313,2.2889,2.2738,2.251,2.2311,2.2172,2.2136,2.1998,2.1653,2.1371,2.1028,2.0684,2.0372,1.9974,1.9694,1.9521,1.9202,1.8816,1.8586,1.8476,1.8547,1.8623,1.8697,1.8726,1.8792,1.9062,1.922,1.9378,2.0156,2.0969,2.1371,2.1497,2.1332,2.1133,2.1465,2.1816,2.2322,2.2703,2.2919,2.3183,2.3168,2.2975,2.2424,2.2028,2.174,2.1549,2.1299,2.1104,2.1046,2.1082,2.1249,2.1372,2.1594,2.2289,2.2929,2.3398,2.3922,2.4589,2.5024,2.5212,-0.3293,-0.3292,-0.3284,-0.3003,-0.2609,-0.2772,-0.1939,-0.0608,-0.0054,0.0783,0.1818,0.2469,0.2958,0.3529,0.4426,0.551,0.6594,0.7321,0.8185,0.91,1.021,1.1485,1.271,1.3781,1.4873,1.5994,1.6081,1.6132,1.6036,1.657,1.7257,1.781,1.8384,1.8957,1.9376,2.0065,2.0939,2.2127,2.3908,2.5539,2.6594,2.7079,2.7097,2.6912,2.6166,2.5699,2.5423,2.5298,2.5216,2.5122,2.502,2.4911,2.4828,2.4676,2.4255,2.3632,2.3379,2.318,2.2923,2.278,2.2686,2.2617,2.2368,2.1895,2.1257,2.096,2.0561,2.0173,1.9738,1.9404,1.9266,1.896,1.8716,1.8665,1.8696,1.8753,1.8843,1.8984,1.925,1.9515,2.0066,2.0263,2.0269,2.0305,2.104,2.0921,2.1026,2.0499,2.0386,2.0854,2.1279,2.1896,2.2285,2.2417,2.2504,2.2428,2.2076,2.1462,2.1158,2.0898,2.0795,2.0686,2.0566,2.0553,2.0574,2.0744,2.0803,2.0997,2.1623,2.2167,2.2525,2.3076,2.3798,2.4424,2.4767,-0.2183,-0.2127,-0.1789,-0.1228,-0.0782,-0.0671,0.0223,0.1561,0.2054,0.2712,0.3402,0.4025,0.4366,0.4911,0.6077,0.7242,0.8325,0.9335,1.0349,1.1314,1.2385,1.3484,1.4475,1.4955,1.6261,1.7341,1.7321,1.688,1.6998,1.7572,1.7978,1.8492,1.9386,1.9958,2.0187,2.1166,2.2097,2.285,2.4758,2.6546,2.7617,2.7917,2.7496,2.7117,2.6725,2.6398,2.5881,2.5787,2.5673,2.5485,2.5322,2.5173,2.5051,2.4939,2.4776,2.448,2.4165,2.3753,2.3388,2.3279,2.3135,2.2979,2.2833,2.2492,2.1569,2.0507,1.9832,1.9299,1.9058,1.9012,1.9048,1.8896,1.8798,1.8798,1.8816,1.8878,1.8957,1.9124,1.9404,1.95,1.9795,2.0531,2.0919,2.0899,2.0923,2.0695,2.0428,1.9954,1.9763,2.0268,2.0596,2.1142,2.163,2.1807,2.1698,2.1636,2.1397,2.0698,2.0469,2.0268,2.0316,2.0355,2.0331,2.0313,2.0318,2.0394,2.0565,2.0811,2.1117,2.1417,2.1796,2.2392,2.3066,2.3636,2.4087,-0.0118,-0.1005,-0.0355,0.0293,0.0872,0.094,0.1871,0.3115,0.3554,0.4206,0.5065,0.5845,0.6566,0.7363,0.8278,0.9356,1.06,1.1412,1.2384,1.3538,1.4518,1.5436,1.6235,1.6944,1.7957,1.8438,1.8691,1.8702,1.863,1.8954,1.9465,1.9841,2.0432,2.0824,2.1146,2.2224,2.3129,2.4366,2.6195,2.7841,2.8295,2.7941,2.7462,2.751,2.7156,2.6937,2.6942,2.7011,2.6979,2.6885,2.6823,2.6485,2.6102,2.5825,2.5595,2.493,2.4766,2.4409,2.3958,2.3808,2.3449,2.2983,2.2697,2.2062,2.1055,2.0083,1.9404,1.9212,1.9048,1.898,1.8963,1.893,1.8957,1.8974,1.8999,1.915,1.9214,1.9268,1.942,1.9466,1.9555,2.0217,2.0702,2.0496,2.0318,2.0155,2.0057,1.9845,1.9682,1.9885,2.011,2.0273,2.0727,2.1101,2.0927,2.078,2.085,2.0387,2.0214,2.006,2.0095,2.0108,2.0144,2.0214,2.0284,2.0357,2.042,2.057,2.0815,2.0944,2.1074,2.167,2.2235,2.2436,2.2845,0.2318,0.0938,0.1237,0.1645,0.2226,0.2323,0.3219,0.4531,0.4852,0.5639,0.6781,0.7747,0.8988,1.0113,1.06,1.1486,1.2987,1.349,1.4417,1.5536,1.6451,1.7124,1.7701,1.8457,1.9023,1.9756,1.9762,1.9941,2.035,2.0652,2.088,2.1155,2.1419,2.185,2.2452,2.3503,2.4689,2.6401,2.7983,2.8887,2.8888,2.8092,2.7714,2.7505,2.7354,2.7265,2.7759,2.779,2.7731,2.7994,2.7589,2.7057,2.6631,2.6158,2.5765,2.5241,2.5046,2.4914,2.4445,2.408,2.3538,2.2942,2.219,2.1515,2.0708,1.9727,1.9285,1.939,1.9295,1.9225,1.918,1.915,1.9166,1.9239,1.927,1.9435,1.9569,1.9537,1.9518,1.9559,1.9596,1.9614,1.9904,1.9769,1.9657,1.956,1.955,1.9637,1.969,1.9735,1.9798,1.9938,2.0113,2.0484,2.0401,2.0227,2.0193,2.0174,2.0,1.9936,2.0019,2.0049,2.0079,2.0153,2.026,2.0282,2.0343,2.0414,2.0486,2.0658,2.0828,2.0984,2.1308,2.1521,2.199,0.4837,0.4343,0.3076,0.2768,0.313,0.3501,0.4476,0.5791,0.6322,0.719,0.8476,0.9724,1.0896,1.1957,1.2641,1.3509,1.478,1.5842,1.6553,1.7276,1.8009,1.8524,1.8955,1.9266,1.9639,2.0254,2.0533,2.102,2.1478,2.1653,2.1535,2.1301,2.2011,2.3015,2.3953,2.4959,2.6688,2.8144,2.929,2.9213,2.9127,2.8666,2.8233,2.7185,2.696,2.6962,2.7021,2.7282,2.7609,2.8131,2.7662,2.7162,2.6789,2.6268,2.5782,2.5396,2.5255,2.5147,2.4903,2.4325,2.3575,2.2874,2.2023,2.112,2.0616,2.0107,1.9798,1.9682,1.9564,1.9518,1.9508,1.9513,1.9427,1.9466,1.9513,1.9592,1.969,1.9675,1.9669,1.9682,1.9691,1.9697,1.9712,1.9709,1.9633,1.9564,1.9609,1.9694,1.969,1.9729,1.9703,1.975,1.9738,1.9895,2.0,1.9983,2.0066,2.0108,2.0007,1.9978,2.0008,2.0058,2.0326,2.0184,2.0296,2.0286,2.027,2.0332,2.0399,2.047,2.0596,2.0761,2.0923,2.1181,2.1792,0.7084,0.6981,0.663,0.5897,0.4965,0.5357,0.6182,0.726,0.7904,0.9001,1.0404,1.1238,1.2189,1.3136,1.3839,1.4894,1.628,1.7037,1.7982,1.8904,1.9546,1.9843,2.0095,2.0311,2.0674,2.0913,2.1247,2.1532,2.1836,2.2278,2.2265,2.2248,2.2624,2.3319,2.4472,2.6161,2.7954,2.8951,2.9317,2.8941,2.8891,2.8432,2.802,2.7589,2.7565,2.7659,2.7735,2.7783,2.7991,2.8057,2.7807,2.7383,2.6977,2.648,2.6036,2.5601,2.5524,2.5503,2.5338,2.4771,2.4107,2.2802,2.1842,2.1043,2.0736,2.0108,1.9896,1.9811,1.9854,1.9916,1.975,1.9686,1.9617,1.9688,1.9735,1.9785,1.9797,1.9793,1.9778,1.9766,1.9778,1.98,1.9794,1.9798,1.9712,1.9614,1.9671,1.9751,1.9828,1.9909,1.997,2.0012,2.0028,1.9913,2.0028,2.0025,1.9998,2.0009,2.003,2.004,2.0116,2.0697,2.088,2.0633,2.0413,2.0497,2.048,2.0323,2.0326,2.0445,2.0497,2.0551,2.0713,2.0889,2.1328,0.8965,0.92,0.9494,0.8728,0.7272,0.7411,0.8042,0.8915,0.9445,1.0731,1.2351,1.2697,1.3538,1.4527,1.51,1.6084,1.7449,1.8243,1.9146,1.9884,2.0511,2.0862,2.1068,2.1333,2.1607,2.1709,2.2005,2.2347,2.2545,2.2786,2.2855,2.2984,2.3316,2.4173,2.5198,2.7045,2.8704,2.928,2.9293,2.8792,2.8784,2.8421,2.7948,2.7816,2.7636,2.7758,2.7807,2.7835,2.791,2.8005,2.7879,2.7506,2.7179,2.688,2.6558,2.6233,2.6094,2.6139,2.5834,2.5037,2.4245,2.2872,2.2297,2.155,2.0995,2.0744,2.1001,2.0902,2.0727,2.0533,2.0504,2.0514,2.0332,2.0406,1.9938,1.9896,1.9905,1.9896,1.987,1.9844,1.9856,1.9856,1.9847,1.9835,1.9873,1.9761,1.9677,1.9931,2.0337,2.0404,2.0475,2.0511,2.051,2.037,2.022,2.0148,2.0065,2.0049,2.0079,2.0098,2.0317,2.0881,2.1196,2.0967,2.0814,2.0805,2.0699,2.0537,2.0469,2.0444,2.0477,2.0513,2.0584,2.073,2.0642,1.0567,1.0944,1.1261,1.0733,0.9847,0.9509,1.0011,1.0905,1.1232,1.2357,1.4078,1.4415,1.5189,1.63,1.6586,1.7417,1.8442,1.916,1.983,2.0473,2.0983,2.1419,2.1686,2.198,2.2106,2.265,2.2822,2.3006,2.3333,2.3641,2.3691,2.3984,2.4609,2.5471,2.6132,2.8203,2.9416,2.9673,2.9723,2.9386,2.9059,2.8902,2.8587,2.8027,2.7624,2.7789,2.7601,2.7449,2.7468,2.7587,2.7236,2.6932,2.6828,2.6792,2.6681,2.6624,2.7386,2.7443,2.685,2.5175,2.4005,2.3205,2.2849,2.2591,2.2552,2.2469,2.2259,2.1933,2.2071,2.2172,2.2026,2.1616,2.1206,2.0835,2.0362,2.0011,2.0021,2.001,1.9978,1.9935,1.9911,1.9887,1.9875,1.9892,1.9992,1.9935,1.9778,2.0087,2.0755,2.1007,2.1115,2.1129,2.1132,2.089,2.0684,2.0301,2.0151,2.0126,2.0117,2.0144,2.0268,2.0631,2.0891,2.1053,2.1244,2.1253,2.1015,2.0755,2.0641,2.0526,2.0498,2.0523,2.057,2.0586,2.0545,1.2502,1.3429,1.3831,1.405,1.3896,1.2912,1.2848,1.3578,1.4434,1.53,1.5938,1.6245,1.6538,1.7134,1.7645,1.8283,1.9102,1.9527,2.0104,2.0794,2.1326,2.1333,2.1713,2.2209,2.2303,2.2272,2.2678,2.335,2.3189,2.4156,2.4525,2.4775,2.5887,2.6853,2.7478,2.8753,2.9598,2.9691,2.977,2.9732,2.9598,2.954,2.9256,2.8539,2.8276,2.7941,2.7425,2.7152,2.6978,2.6859,2.6386,2.6257,2.625,2.6248,2.6252,2.6359,2.6949,2.7282,2.6769,2.5779,2.481,2.4131,2.377,2.3508,2.2952,2.2787,2.2734,2.2786,2.2872,2.2793,2.2379,2.1751,2.1321,2.1129,2.0728,2.0307,2.0163,2.0145,2.0117,2.0049,1.9999,2.0461,2.0613,2.0896,2.0992,2.0931,2.0868,2.1072,2.1634,2.1761,2.1849,2.1845,2.1789,2.1501,2.1218,2.098,2.0611,2.0494,2.0337,2.0163,2.0324,2.0573,2.0669,2.088,2.1321,2.1683,2.1311,2.0967,2.073,2.0601,2.0788,2.0752,2.0714,2.0663,2.0545,1.385,1.485,1.5706,1.6342,1.6671,1.5431,1.5095,1.5719,1.6629,1.7291,1.7711,1.8009,1.8365,1.8676,1.899,1.9509,2.035,2.0722,2.1248,2.1814,2.2278,2.2629,2.282,2.2928,2.3624,2.3301,2.3707,2.4327,2.4616,2.5167,2.5754,2.64,2.7094,2.7684,2.8319,2.908,2.9512,2.9608,2.97,2.9841,2.9857,2.9874,2.9758,2.9383,2.9034,2.8627,2.7747,2.7122,2.6656,2.618,2.5882,2.5732,2.5735,2.5965,2.6084,2.6385,2.6596,2.7001,2.6785,2.6145,2.5296,2.4875,2.4811,2.447,2.3915,2.3985,2.3889,2.3811,2.3542,2.3534,2.3381,2.2649,2.1928,2.1757,2.1075,2.0656,2.0754,2.0758,2.0917,2.0766,2.0947,2.1307,2.1551,2.1933,2.2217,2.2127,2.2056,2.2242,2.237,2.2393,2.251,2.26,2.2595,2.2388,2.2118,2.1815,2.1415,2.0945,2.0724,2.0556,2.0488,2.0727,2.0716,2.0696,2.1015,2.1263,2.1337,2.1177,2.1196,2.1278,2.1461,2.1301,2.0969,2.0915,2.0921,1.4586,1.5345,1.6647,1.7561,1.7912,1.7053,1.6933,1.7399,1.7645,1.8413,1.942,1.9579,1.9915,2.0819,2.1165,2.1446,2.1964,2.2367,2.2832,2.3393,2.3513,2.399,2.4419,2.4858,2.4725,2.5435,2.5807,2.56,2.6436,2.6731,2.7307,2.7843,2.792,2.8383,2.8867,2.9184,2.9403,2.9522,2.9682,2.9808,2.9876,2.994,2.9943,2.9746,2.9528,2.9199,2.8521,2.789,2.7197,2.6645,2.6198,2.5884,2.5974,2.6518,2.6786,2.6969,2.6973,2.6845,2.6875,2.6171,2.5768,2.5445,2.5531,2.5574,2.541,2.5082,2.4939,2.4946,2.4859,2.5049,2.5043,2.396,2.291,2.2262,2.1451,2.1364,2.1579,2.1743,2.1963,2.2122,2.2403,2.2631,2.2638,2.2928,2.3263,2.3027,2.2842,2.265,2.2761,2.2792,2.299,2.3418,2.339,2.3338,2.3004,2.2424,2.2145,2.1641,2.1441,2.1261,2.1127,2.1082,2.1264,2.1254,2.0833,2.1005,2.1882,2.2081,2.1922,2.2019,2.2029,2.1966,2.1678,2.1687,2.1784,1.5519,1.6822,1.7595,1.8382,1.9131,1.9407,1.9788,2.0199,2.0349,2.0616,2.0791,2.1008,2.1168,2.0989,2.1375,2.1841,2.2203,2.2528,2.2917,2.3459,2.4077,2.4142,2.4467,2.4896,2.4993,2.5357,2.5779,2.6393,2.6589,2.7285,2.8058,2.8368,2.8585,2.8906,2.9079,2.9265,2.9362,2.9483,2.9655,2.9728,2.9798,2.9857,2.9962,2.9956,3.0002,2.9667,2.91,2.8805,2.807,2.7,2.6732,2.6379,2.5695,2.5954,2.6194,2.6849,2.6583,2.6251,2.6698,2.6186,2.5693,2.5693,2.5696,2.57,2.5654,2.5628,2.559,2.5571,2.5537,2.5486,2.5289,2.4465,2.376,2.3153,2.2433,2.222,2.242,2.2581,2.2815,2.3108,2.34,2.3611,2.3628,2.3988,2.4221,2.3931,2.3562,2.317,2.2928,2.2899,2.2988,2.3398,2.3497,2.3238,2.3154,2.2683,2.257,2.2377,2.2158,2.2026,2.2007,2.1999,2.2032,2.1949,2.1731,2.2264,2.3139,2.3082,2.2759,2.2492,2.2457,2.2451,2.2448,2.2472,2.2564,1.5917,1.7091,1.8063,1.9133,2.02,2.0914,2.1396,2.1752,2.1855,2.1885,2.205,2.2301,2.2329,2.2327,2.2768,2.313,2.3335,2.3885,2.428,2.4603,2.448,2.5053,2.5245,2.5353,2.5789,2.5966,2.6316,2.7046,2.7183,2.7807,2.8628,2.8841,2.9112,2.9167,2.9221,2.9295,2.9383,2.9492,2.9598,2.9645,2.9709,2.9771,2.9881,3.0049,3.0211,2.9961,2.9657,2.9554,2.8696,2.7809,2.7692,2.7184,2.6533,2.6466,2.6309,2.6796,2.6247,2.6068,2.6222,2.6015,2.5761,2.57,2.5693,2.5698,2.5701,2.5675,2.5655,2.5636,2.5581,2.5482,2.5181,2.4864,2.4533,2.4182,2.3668,2.3149,2.3244,2.3379,2.3635,2.3921,2.4167,2.4418,2.4686,2.5058,2.4901,2.4092,2.3325,2.2702,2.2523,2.2486,2.2549,2.2785,2.2905,2.2882,2.2884,2.3041,2.306,2.2966,2.2816,2.2731,2.2816,2.2612,2.2386,2.2538,2.2755,2.3258,2.3653,2.3745,2.3538,2.3326,2.3315,2.3543,2.3539,2.3312,2.3448,1.5979,1.6639,1.8233,1.9797,2.1114,2.1616,2.2077,2.241,2.237,2.2565,2.3032,2.3406,2.3591,2.3606,2.4068,2.4476,2.4649,2.5016,2.531,2.6112,2.5934,2.6159,2.6462,2.6954,2.6745,2.7265,2.7648,2.7637,2.8192,2.8633,2.8952,2.9209,2.9249,2.9268,2.9302,2.934,2.9414,2.955,2.9598,2.9636,2.9655,2.9709,2.9779,2.9946,3.0066,3.0096,3.0061,2.9781,2.9294,2.9032,2.8709,2.8187,2.7514,2.7154,2.6929,2.6879,2.6472,2.6291,2.624,2.6077,2.5871,2.5771,2.5697,2.5702,2.5702,2.5693,2.5685,2.5673,2.5626,2.5613,2.5385,2.5166,2.4885,2.4701,2.4379,2.4165,2.4253,2.4356,2.4461,2.4691,2.4797,2.5004,2.5024,2.5273,2.4946,2.4089,2.3504,2.2786,2.2383,2.235,2.2334,2.2455,2.2829,2.3063,2.3154,2.3341,2.3558,2.3532,2.3427,2.3493,2.3606,2.3187,2.262,2.3095,2.3644,2.3575,2.3781,2.4021,2.4321,2.4417,2.4493,2.4781,2.4642,2.4155,2.3923,1.6115,1.7045,1.9149,2.0435,2.1079,2.1988,2.254,2.2799,2.3098,2.3179,2.3312,2.3617,2.3875,2.417,2.4647,2.4934,2.5138,2.553,2.582,2.6066,2.6277,2.6606,2.6851,2.7031,2.727,2.7552,2.7847,2.8156,2.8585,2.891,2.9134,2.9262,2.9302,2.9323,2.9398,2.9423,2.9502,2.9617,2.9664,2.9682,2.9718,2.9771,2.9848,3.0019,3.0152,3.0228,3.0251,3.0264,2.9738,2.9303,2.9167,2.8368,2.72,2.7015,2.6918,2.6933,2.7143,2.6913,2.6684,2.6515,2.6409,2.5941,2.5771,2.5717,2.5698,2.5693,2.5701,2.5696,2.5687,2.5673,2.5613,2.5415,2.5252,2.5157,2.5066,2.5141,2.5211,2.5229,2.5266,2.5316,2.5414,2.5403,2.5378,2.5178,2.4822,2.4456,2.411,2.3553,2.2928,2.2671,2.248,2.264,2.3183,2.3424,2.3423,2.3574,2.3762,2.408,2.4107,2.4223,2.4339,2.3999,2.362,2.4119,2.4505,2.4293,2.4272,2.4645,2.4933,2.4995,2.5021,2.5015,2.4926,2.4512,2.4252,1.6132,1.7131,1.9261,2.0518,2.1251,2.2329,2.2904,2.3127,2.34,2.3589,2.3668,2.389,2.4143,2.4343,2.4767,2.5005,2.5177,2.5597,2.5901,2.6118,2.6339,2.6623,2.6867,2.7105,2.7333,2.7651,2.8017,2.8405,2.8801,2.9044,2.9187,2.9292,2.9323,2.9365,2.9461,2.9492,2.957,2.9692,2.9719,2.9773,2.9787,2.9839,2.9905,3.0055,3.0203,3.0296,3.0359,3.0437,3.0188,2.9892,2.9834,2.93,2.8334,2.7769,2.7281,2.7111,2.7186,2.74,2.7143,2.7094,2.702,2.6486,2.624,2.6353,2.572,2.5696,2.5692,2.5693,2.5701,2.5686,2.5687,2.5537,2.5519,2.5457,2.5431,2.5466,2.5471,2.5469,2.5446,2.5428,2.5471,2.5461,2.543,2.5387,2.4983,2.4415,2.4144,2.3875,2.3336,2.3289,2.3004,2.2901,2.3512,2.3392,2.3052,2.3395,2.3906,2.4261,2.4633,2.4601,2.4551,2.4645,2.4738,2.4736,2.4752,2.4733,2.4823,2.4972,2.5008,2.4968,2.4995,2.5047,2.4926,2.4758,2.4319,1.6244,1.7042,1.8956,2.0337,2.132,2.2505,2.3135,2.3348,2.3602,2.3839,2.4059,2.4268,2.4449,2.4605,2.4918,2.5029,2.5293,2.5688,2.5982,2.6197,2.646,2.6725,2.6982,2.7247,2.7509,2.7827,2.8219,2.8543,2.8858,2.9021,2.9134,2.9262,2.9326,2.9388,2.9412,2.9472,2.9569,2.9673,2.9764,2.9876,2.9881,2.9886,2.9965,3.0099,3.0226,3.0327,3.0369,3.0394,3.0398,3.0265,3.0114,2.9457,2.8899,2.8146,2.756,2.7245,2.7272,2.7229,2.7093,2.759,2.7381,2.7128,2.7045,2.6765,2.6165,2.5949,2.5945,2.5864,2.5868,2.5713,2.5709,2.5694,2.5698,2.5701,2.5697,2.57,2.5671,2.5648,2.5595,2.5537,2.5522,2.5505,2.5468,2.5439,2.5113,2.4532,2.4167,2.3811,2.3668,2.4028,2.4098,2.387,2.4024,2.3666,2.3223,2.3534,2.4276,2.4345,2.4648,2.4697,2.472,2.472,2.472,2.4704,2.4726,2.4772,2.4832,2.4913,2.4913,2.4903,2.4945,2.4989,2.4923,2.4682,2.4173,1.6644,1.7374,1.8699,1.981,2.0727,2.2016,2.2896,2.3557,2.4009,2.4261,2.44,2.4572,2.4701,2.4613,2.506,2.5256,2.5355,2.577,2.5954,2.609,2.6503,2.6825,2.7103,2.7395,2.768,2.8026,2.8388,2.8637,2.8834,2.8929,2.9067,2.92,2.9234,2.9298,2.9422,2.9472,2.9551,2.9654,2.9773,2.9867,2.9956,2.9994,3.0055,3.0147,3.0222,3.0299,3.0362,3.0386,3.0428,3.0277,2.9912,2.9284,2.8786,2.8351,2.7796,2.7326,2.7358,2.7319,2.7422,2.7803,2.7619,2.7133,2.7177,2.7658,2.7188,2.6883,2.6776,2.6507,2.6341,2.5849,2.5751,2.5711,2.5694,2.5701,2.5696,2.5696,2.5678,2.5681,2.5657,2.561,2.5579,2.5541,2.5502,2.5483,2.5468,2.5072,2.5056,2.4739,2.4652,2.4891,2.505,2.4841,2.4591,2.4809,2.4747,2.4398,2.4765,2.4731,2.4686,2.4756,2.4747,2.4707,2.4692,2.472,2.472,2.4732,2.4787,2.4832,2.4837,2.4851,2.4894,2.4903,2.485,2.4713,2.4289]},{"header":{"parameterUnit":"m.s-1","parameterCategory":1,"la1":31.0,"la2":29.5877,"lo1":-88.7671,"lo2":-86.6584,"dy":0.0162,"dx":0.0185,"nx":115,"ny":88,"refTime":"2023-05-21T06:00:00:Z","depth":0,"parameterNumber":3,"parameterNumberName":"V-component_of_WINDS"},"data":[0.0,0.0,0.0,0.0,0.0,0.0,0.0,0.0,0.0,0.0,0.0,0.0,0.0,0.0,0.0,0.0,0.0,0.0,0.0,0.0,0.0,0.0,0.0,0.0,0.0,0.0,0.0,0.0,0.0,0.0,0.0,0.0,0.0,0.0,0.0,0.0,0.0,0.0,0.0,0.0,0.0,0.0,0.0,0.0,0.0,0.0,0.0,0.0,0.0,0.0,0.0,0.0,0.0,0.0,0.0,0.0,0.0,0.0,0.0,0.0,0.0,0.0,0.0,0.0,0.0,0.0,0.0,0.0,0.0,0.0,0.0,0.0,0.0,0.0,0.0,0.0,0.0,0.0,0.0,0.0,0.0,0.0,0.0,0.0,0.0,0.0,0.0,0.0,0.0,0.0,0.0,0.0,0.0,0.0,0.0,0.0,0.0,0.0,0.0,0.0,0.0,0.0,0.0,0.0,0.0,0.0,0.0,0.0,0.0,0.0,0.0,0.0,0.0,0.0,0.0,0.0,0.0,0.0,0.0,0.0,0.0,0.0,0.0,0.0,0.0,0.0,0.0,0.0,0.0,0.0,0.0,0.0,0.0,0.0,0.0,0.0,0.0,0.0,0.0,0.0,0.0,0.0,0.0,0.0,0.0,0.0,0.0,0.0,0.0,0.0,0.0,0.0,0.0,0.0,0.0,0.0,0.0,0.0,0.0,0.0,0.0,0.0,0.0,0.0,0.0,0.0,0.0,0.0,0.0,0.0,0.0,0.0,0.0,0.0,0.0,0.0,0.0,0.0,0.0,0.0,0.0,0.0,0.0,0.0,0.0,0.0,0.0,0.0,0.0,0.0,0.0,0.0,0.0,0.0,0.0,0.0,0.0,0.0,0.0,0.0,0.0,0.0,0.0,0.0,0.0,0.0,0.0,0.0,0.0,0.0,0.0,0.0,0.0,0.0,0.0,0.0,0.0,0.0,0.0,0.0,0.0,0.0,0.0,0.0,0.0,0.0,0.0,0.0,0.0,0.0,0.0,0.0,0.0,0.0,0.0,0.0,0.0,0.0,0.0,0.0,0.0,0.0,0.0,0.0,0.0,0.0,0.0,0.0,0.0,0.0,0.0,0.0,0.0,0.0,0.0,0.0,0.0,0.0,0.0,0.0,0.0,0.0,0.0,0.0,0.0,0.0,0.0,0.0,0.0,0.0,0.0,0.0,0.0,0.0,0.0,0.0,0.0,0.0,0.0,0.0,0.0,0.0,0.0,0.0,0.0,0.0,0.0,0.0,0.0,0.0,0.0,0.0,0.0,0.0,0.0,0.0,0.0,0.0,0.0,0.0,0.0,0.0,0.0,0.0,0.0,0.0,0.0,0.0,0.0,0.0,0.0,0.0,0.0,0.0,0.0,0.0,0.0,0.0,0.0,0.0,0.0,0.0,0.0,0.0,0.0,0.0,0.0,0.0,0.0,0.0,0.0,0.0,0.0,0.0,0.0,0.0,0.0,0.0,0.0,0.0,0.0,0.0,0.0,0.0,0.0,0.0,0.0,0.0,0.0,0.0,0.0,0.0,0.0,0.0,0.0,0.0,0.0,0.0,0.0,0.0,0.0,0.0,0.0,0.0,0.0,0.0,0.0,0.0,0.0,0.0,0.0,0.0,0.0,0.0,0.0,0.0,0.0,0.0,0.0,0.0,0.0,0.0,0.0,0.0,0.0,0.0,0.0,0.0,0.0,0.0,0.0,0.0,0.0,0.0,0.0,0.0,0.0,0.0,0.0,0.0,0.0,0.0,0.0,0.0,0.0,0.0,0.0,0.0,0.0,0.0,0.0,0.0,0.0,0.0,0.0,0.0,0.0,0.0,0.0,0.0,0.0,0.0,0.0,0.0,0.0,0.0,0.0,0.0,0.0,0.0,0.0,0.0,0.0,0.0,0.0,0.0,0.0,0.0,0.0,0.0,0.0,0.0,0.0,0.0,0.0,0.0,0.0,0.0,0.0,0.0,0.0,0.0,0.0,0.0,0.0,0.0,0.0,0.0,0.0,0.0,0.0,0.0,0.0,0.0,0.0,0.0,0.0,0.0,0.0,0.0,0.0,0.0,0.0,0.0,0.0,0.0,0.0,0.0,0.0,0.0,0.0,0.0,0.0,0.0,0.0,0.0,0.0,0.0,0.0,0.0,0.0,0.0,0.0,0.0,0.0,0.0,0.0,0.0,0.0,0.0,0.0,0.0,0.0,0.0,0.0,0.0,0.0,0.0,0.0,0.0,0.0,0.0,0.0,0.0,0.0,0.0,0.0,0.0,0.0,0.0,0.0,0.0,0.0,0.0,0.0,0.0,0.0,0.0,0.0,0.0,0.0,0.0,0.0,0.0,0.0,0.0,0.0,0.0,0.0,0.0,0.0,0.0,0.0,0.0,0.0,0.0,0.0,0.0,0.0,0.0,0.0,0.0,0.0,0.0,0.0,0.0,0.0,0.0,0.0,0.0,0.0,0.0,0.0,0.0,0.0,0.0,0.0,0.0,0.0,0.0,0.0,0.0,0.0,0.0,0.0,0.0,0.0,0.0,0.0,0.0,0.0,0.0,0.0,0.0,0.0,0.0,0.0,0.0,0.0,0.0,0.0,0.0,0.0,0.0,0.0,0.0,0.0,0.0,0.0,0.0,0.0,0.0,0.0,0.0,0.0,0.0,0.0,0.0,0.0,0.0,0.0,0.0,0.0,0.0,0.0,0.0,0.0,0.0,0.0,0.0,0.0,0.0,0.0,0.0,0.0,0.0,0.0,0.0,0.0,0.0,0.0,0.0,0.0,0.0,0.0,0.0,0.0,0.0,0.0,0.0,0.0,0.0,0.0,0.0,0.0,0.0,0.0,0.0,0.0,0.0,0.0,0.0,0.0,0.0,0.0,0.0,0.0,0.0,0.0,0.0,0.0,0.0,0.0,0.0,0.0,0.0,0.0,0.0,0.0,0.0,0.0,0.0,0.0,0.0,0.0,0.0,0.0,0.0,0.0,0.0,0.0,0.0,0.0,0.0,0.0,0.0,0.0,0.0,0.0,0.0,0.0,0.0,0.0,0.0,0.0,0.0,0.0,0.0,0.0,0.0,0.0,0.0,0.0,0.0,0.0,0.0,0.0,0.0,0.0,0.0,0.0,0.0,0.0,0.0,0.0,0.0,0.0,0.0,0.0,0.0,0.0,0.0,0.0,0.0,0.0,0.0,0.0,0.0,0.0,0.0,0.0,0.0,0.0,0.0,0.0,0.0,0.0,0.0,0.0,0.0,0.0,0.0,0.0,0.0,0.0,0.0,0.0,0.0,0.0,0.0,0.0,0.0,0.0,0.0,0.0,0.0,0.0,0.0,0.0,0.0,0.0,0.0,0.0,0.0,0.0,0.0,0.0,0.0,0.0,0.0,0.0,0.0,0.0,0.0,0.0,0.0,0.0,0.0,0.0,0.0,0.0,0.0,0.0,0.0,0.0,0.0,0.0,0.0,0.0,0.0,0.0,0.0,0.0,0.0,0.0,0.0,0.0,0.0,0.0,0.0,0.0,0.0,0.0,0.0,0.0,0.0,0.0,0.0,0.0,0.0,0.0,0.0,0.0,0.0,0.0,0.0,0.0,0.0,0.0,0.0,0.0,0.0,0.0,0.0,0.0,0.0,0.0,0.0,0.0,0.0,0.0,0.0,0.0,0.0,0.0,0.0,0.0,0.0,0.0,0.0,0.0,0.0,0.0,0.0,0.0,0.0,0.0,0.0,0.0,0.0,0.0,0.0,0.0,0.0,0.0,0.0,0.0,0.0,0.0,0.0,0.0,0.0,0.0,0.0,0.0,0.0,0.0,0.0,0.0,0.0,0.0,0.0,0.0,0.0,0.0,0.0,0.0,0.0,0.0,0.0,0.0,0.0,0.0,0.0,0.0,0.0,0.0,0.0,0.0,0.0,0.0,0.0,0.0,0.0,0.0,0.0,0.0,0.0,0.0,0.0,0.0,0.0,0.0,0.0,0.0,0.0,0.0,0.0,0.0,0.0,0.0,0.0,0.0,0.0,0.0,0.0,0.0,0.0,0.0,0.0,0.0,0.0,0.0,0.0,0.0,0.0,0.0,0.0,0.0,0.0,0.0,0.0,0.0,0.0,0.0,0.0,0.0,0.0,0.0,0.0,0.0,0.0,0.0,0.0,0.0,0.0,0.0,0.0,0.0,0.0,0.0,0.0,0.0,0.0,0.0,0.0,0.0,0.0,0.0,0.0,0.0,0.0,0.0,0.0,0.0,0.0,1.4201,0.0,0.0,0.0,0.0,0.0,0.0,0.0,0.0,0.0,0.0,0.0,0.0,0.0,0.0,0.0,0.0,0.0,0.0,0.0,0.0,0.0,0.0,0.0,0.0,0.0,0.0,0.0,0.0,0.0,0.0,0.0,0.0,0.0,0.0,0.0,0.0,0.0,0.0,0.0,0.0,0.0,0.0,0.0,0.0,0.0,0.0,0.0,0.0,0.0,0.0,0.0,0.0,0.0,0.0,0.0,0.0,0.0,0.0,0.0,0.0,0.0,0.0,0.0,0.0,0.0,0.0,0.0,0.0,0.0,0.0,0.0,0.0,0.0,0.0,0.0,0.0,0.0,0.0,0.0,0.0,0.0,0.0,0.0,0.0,0.0,0.0,0.0,0.0,0.0,0.0,0.0,0.0,0.0,0.0,0.0,0.0,0.0,0.0,0.0,0.0,0.0,0.0,0.0,0.0,0.0,0.0,0.0,0.0,0.0,0.0,1.4573,1.4501,1.4501,1.4429,1.4285,0.0,0.0,0.0,0.0,0.0,0.0,0.0,0.0,0.0,0.0,0.0,0.0,0.0,0.0,0.0,0.0,0.0,0.0,0.0,0.0,0.0,0.0,0.0,0.0,0.0,0.0,0.0,0.0,0.0,0.0,0.0,0.0,0.0,0.0,0.0,0.0,0.0,0.0,0.0,0.0,0.0,0.0,0.0,0.0,0.0,0.0,0.0,0.0,0.0,0.0,0.0,0.0,0.0,0.0,0.0,0.0,0.0,0.0,0.0,0.0,0.0,0.0,0.0,0.0,0.0,0.0,0.0,0.0,0.0,0.0,0.0,0.0,0.0,0.0,0.0,0.0,0.0,0.0,0.0,0.0,0.0,0.0,0.0,0.0,0.0,0.0,0.0,0.0,0.0,0.0,0.0,0.0,0.0,0.0,0.0,0.0,0.0,0.0,0.0,0.0,0.0,0.0,0.0,0.0,0.0,0.0,0.0,0.0,0.0,0.0,0.0,0.0,1.4357,1.4318,1.4252,0.0,0.0,0.0,0.0,0.0,0.0,0.0,0.0,0.0,0.0,0.0,0.0,0.0,0.0,0.0,0.0,0.0,0.0,0.0,0.0,0.0,0.0,0.0,0.0,0.0,0.0,0.0,0.0,0.0,0.0,0.0,0.0,0.0,0.0,0.0,0.0,0.0,0.0,0.0,0.0,0.0,0.0,0.0,0.0,0.0,0.0,0.0,0.0,0.0,0.0,0.0,0.0,0.0,0.0,0.0,0.0,0.0,0.0,0.0,0.0,0.0,0.0,0.0,0.0,0.0,0.0,0.0,0.0,0.0,0.0,0.0,0.0,0.0,0.0,0.0,0.0,0.0,0.0,0.0,0.0,0.0,0.0,0.0,0.0,0.0,0.0,0.0,0.0,0.0,0.0,0.0,0.0,0.0,0.0,0.0,0.0,0.0,0.0,0.0,0.0,0.0,0.0,0.0,0.0,0.0,0.0,0.0,0.0,0.0,0.0,1.4217,1.3866,1.4065,0.0,1.3723,0.0,0.0,0.0,0.0,0.0,0.0,0.0,0.0,0.0,0.0,0.0,0.0,0.0,0.0,0.0,0.0,0.0,0.0,0.0,0.0,0.0,0.0,0.0,0.0,0.0,0.0,0.0,0.0,0.0,0.0,0.0,0.0,0.0,0.0,0.0,0.0,0.0,0.0,0.0,0.0,0.0,0.0,0.0,0.0,0.0,0.0,0.0,0.0,0.0,0.0,0.0,0.0,0.0,0.0,0.0,0.0,0.0,0.0,0.0,0.0,0.0,0.0,0.0,0.0,0.0,0.0,0.0,0.0,0.0,0.0,0.0,0.0,0.0,0.0,0.0,0.0,0.0,0.0,0.0,0.0,0.0,0.0,0.0,0.0,0.0,0.0,0.0,0.0,0.0,0.0,0.0,0.0,0.0,0.0,0.0,0.0,0.0,0.0,0.0,0.0,0.0,0.0,0.0,0.0,0.0,0.0,0.0,0.0,0.0,0.0,1.3981,1.3849,1.3507,1.334,0.0,0.0,0.0,0.0,0.0,0.0,0.0,0.0,0.0,0.0,0.0,0.0,0.0,0.0,0.0,0.0,0.0,0.0,0.0,0.0,0.0,0.0,0.0,0.0,0.0,0.0,0.0,0.0,0.0,0.0,0.0,0.0,0.0,0.0,0.0,0.0,0.0,0.0,0.0,0.0,0.0,0.0,0.0,0.0,0.0,0.0,0.0,0.0,0.0,0.0,0.0,0.0,0.0,0.0,0.0,0.0,0.0,0.0,0.0,0.0,0.0,0.0,0.0,0.0,0.0,0.0,0.0,0.0,0.0,0.0,0.0,0.0,0.0,0.0,0.0,0.0,0.0,0.0,0.0,0.0,0.0,0.0,0.0,0.0,0.0,0.0,0.0,0.0,0.0,0.0,0.0,0.0,0.0,0.0,0.0,0.0,0.0,0.0,0.0,0.0,0.0,0.0,0.0,0.0,0.0,0.0,0.0,0.0,0.0,0.0,1.4,1.3822,1.378,1.3335,1.3059,1.2946,0.0,0.0,0.0,0.0,0.0,0.0,0.0,0.0,0.0,0.0,0.0,0.0,0.0,0.0,0.0,0.0,0.0,0.0,0.0,0.0,0.0,0.0,0.0,0.0,0.0,0.0,0.0,0.0,0.0,0.0,0.0,0.0,0.0,0.0,0.0,0.0,0.0,0.0,0.0,0.0,0.0,0.0,0.0,0.0,0.0,0.0,0.0,0.0,0.0,0.0,0.0,0.0,0.0,0.0,0.0,0.0,0.0,0.0,0.0,0.0,0.0,0.0,0.0,0.0,0.0,0.0,0.0,0.0,0.0,0.0,0.0,0.0,0.0,0.0,0.0,0.0,0.0,0.0,0.0,0.0,0.0,0.0,0.0,0.0,0.0,0.0,0.0,0.0,0.0,0.0,0.0,0.0,0.0,0.0,0.0,0.0,0.0,0.0,0.0,0.0,0.0,0.0,0.0,0.0,0.0,0.0,0.0,0.0,1.4133,1.3928,1.371,1.3524,1.368,1.3375,0.0,0.0,0.0,0.0,0.0,0.0,0.0,0.0,0.0,0.0,0.0,0.0,0.0,0.0,0.0,0.0,0.0,0.0,0.0,0.0,0.0,0.0,0.0,0.0,0.0,0.0,0.0,0.0,0.0,0.0,0.0,0.0,0.0,0.0,0.0,0.0,0.0,0.0,0.0,0.0,0.0,0.0,0.0,0.0,0.0,0.0,0.0,0.0,0.0,0.0,0.0,0.0,0.0,0.0,0.0,0.0,0.0,0.0,0.0,0.0,0.0,0.0,0.0,0.0,0.0,0.0,0.0,0.0,0.0,0.0,0.0,0.0,0.0,0.0,0.0,0.0,0.0,0.0,0.0,0.0,0.0,0.0,0.0,0.0,0.0,0.0,0.0,0.0,0.0,0.0,0.0,0.0,0.0,0.0,0.0,0.0,0.0,0.0,0.0,0.0,0.0,0.0,0.0,0.0,0.0,0.0,0.0,0.0,0.0,1.4274,1.3799,1.3398,1.3177,1.3053,1.2833,0.0,0.0,0.0,0.0,0.0,0.0,0.0,0.0,0.0,0.0,0.0,0.0,0.0,0.0,0.0,0.0,0.0,0.0,0.0,0.0,0.0,0.0,0.0,0.0,0.0,0.0,0.0,0.0,0.0,0.0,0.0,0.0,0.0,0.0,0.0,0.0,0.0,0.0,0.0,0.0,0.0,0.0,0.0,0.0,0.0,0.0,0.0,0.0,0.0,0.0,0.0,0.0,0.0,0.0,0.0,0.0,0.0,0.0,0.0,0.0,0.0,0.0,0.0,0.0,0.0,0.0,0.0,0.0,0.0,0.0,0.0,0.0,0.0,0.0,0.0,0.0,0.0,0.0,0.0,0.0,0.0,0.0,0.0,0.0,0.0,0.0,0.0,0.0,0.0,0.0,0.0,0.0,0.0,0.0,0.0,0.0,0.0,0.0,0.0,0.0,0.0,0.0,0.0,0.0,0.0,0.0,0.0,0.0,0.0,1.4061,0.0,1.3308,1.3159,1.2884,1.2597,0.0,0.0,0.0,0.0,0.0,0.0,0.0,0.0,0.0,0.0,0.0,0.0,0.0,0.0,0.0,0.0,0.0,0.0,0.0,0.0,0.0,0.0,0.0,0.0,0.0,0.0,0.0,0.0,0.0,0.0,0.0,0.0,0.0,0.0,0.0,0.0,0.0,0.0,0.0,0.0,0.0,0.0,0.0,0.0,0.0,0.0,0.0,0.0,0.0,0.0,0.0,0.0,0.0,0.0,0.0,0.0,0.0,0.0,0.0,0.0,0.0,0.0,0.0,0.0,0.0,0.0,0.0,0.0,0.0,0.0,0.0,0.0,0.0,0.0,0.0,0.0,0.0,0.0,0.0,0.0,0.0,0.0,0.0,0.0,0.0,0.0,0.0,0.0,0.0,0.0,0.0,0.0,0.0,0.0,0.0,0.0,0.0,0.0,0.0,0.0,0.0,0.0,0.0,0.0,0.0,0.0,0.0,0.0,1.3916,1.3492,1.3492,1.3477,1.3492,1.3244,1.2899,0.0,0.0,0.0,0.0,0.0,0.0,0.0,0.0,0.0,0.0,0.0,0.0,0.0,0.0,0.0,0.0,0.0,0.0,0.0,0.0,0.0,0.0,0.0,0.0,0.0,0.0,0.0,0.0,0.0,0.0,0.0,0.0,0.0,0.0,0.0,0.0,0.0,0.0,0.0,0.0,0.0,0.0,0.0,0.0,0.0,0.0,0.0,0.0,0.0,0.0,0.0,0.0,0.0,0.0,0.0,0.0,0.0,0.0,0.0,0.0,0.0,0.0,0.0,0.0,0.0,0.0,0.0,0.0,0.0,0.0,0.0,0.0,0.0,0.0,0.0,0.0,0.0,0.0,0.0,0.0,0.0,0.0,0.0,0.0,0.0,0.0,0.0,0.0,0.0,0.0,0.0,0.0,0.0,0.0,0.0,0.0,0.0,0.0,0.0,0.0,0.0,0.0,0.0,0.0,0.0,0.0,0.0,0.0,0.0,1.3495,1.3346,1.3276,1.3276,1.3119,1.2787,0.0,0.0,0.0,0.0,0.0,0.0,0.0,0.0,0.0,0.0,0.0,0.0,0.0,0.0,0.0,0.0,0.0,0.0,0.0,0.0,0.0,0.0,0.0,0.0,0.0,0.0,0.0,0.0,0.0,0.0,0.0,0.0,0.0,0.0,0.0,0.0,0.0,0.0,0.0,0.0,0.0,0.0,0.0,0.0,0.0,0.0,0.0,0.0,0.0,0.0,0.0,0.0,0.0,0.0,0.0,0.0,0.0,0.0,0.0,0.0,0.0,0.0,0.0,0.0,0.0,0.0,0.0,0.0,0.0,0.0,0.0,0.0,0.0,0.0,0.0,0.0,0.0,0.0,0.0,0.0,0.0,0.0,0.0,0.0,0.0,0.0,0.0,0.0,0.0,0.0,0.0,0.0,0.0,0.0,0.0,0.0,0.0,0.0,0.0,0.0,0.0,0.0,0.0,0.0,0.0,0.0,0.0,0.0,0.0,1.3419,1.3269,1.3119,1.3029,1.2784,1.2356,1.1697,0.0,0.0,0.0,0.0,0.0,0.0,0.0,0.0,0.0,0.0,0.0,0.0,0.0,0.0,0.0,0.0,0.0,0.0,0.0,0.0,0.0,0.0,0.0,0.0,0.0,0.0,0.0,0.0,0.0,0.0,0.0,0.0,0.0,0.0,0.0,0.0,0.0,0.0,0.0,0.0,0.0,0.0,0.0,0.0,0.0,0.0,0.0,0.0,0.0,0.0,0.0,0.0,0.0,0.0,0.0,0.0,0.0,0.0,0.0,0.0,0.0,0.0,0.0,0.0,0.0,0.0,0.0,0.0,0.0,0.0,0.0,0.0,0.0,0.0,0.0,0.0,0.0,0.0,0.0,0.0,0.0,0.0,0.0,0.0,0.0,0.0,0.0,0.0,0.0,0.0,0.0,0.0,0.0,0.0,0.0,0.0,0.0,0.0,0.0,0.0,0.0,0.0,0.0,0.0,0.0,0.0,0.0,0.0,1.32,1.32,1.3025,1.2698,1.237,1.1713,0.0,0.0,0.0,0.0,0.0,0.0,0.0,0.0,0.0,0.0,0.0,0.0,0.0,0.0,0.0,0.0,0.0,0.0,0.0,0.0,0.0,0.0,0.0,0.0,0.0,0.0,0.0,0.0,0.0,0.0,0.0,0.0,0.0,0.0,0.0,0.0,0.0,0.0,0.0,0.0,0.0,0.0,0.0,0.0,0.0,0.0,0.0,0.0,0.0,0.0,0.0,0.0,0.0,0.0,0.0,0.0,0.0,0.0,0.0,0.0,0.0,0.0,0.0,0.0,0.0,0.0,0.0,0.0,0.0,0.0,0.0,0.0,0.0,0.0,0.0,0.0,0.0,0.0,0.0,0.0,0.0,0.0,0.0,0.0,0.0,0.0,0.0,0.0,0.0,0.0,0.0,0.0,0.0,0.0,0.0,0.0,0.0,0.0,0.0,0.0,0.0,0.0,0.0,0.0,0.0,0.0,0.0,0.0,0.0,1.3185,1.2746,1.2599,1.2582,1.2086,1.1442,0.0,0.0,0.0,0.0,0.0,0.0,0.0,0.0,0.0,0.0,0.0,0.0,0.0,0.0,0.0,0.0,0.0,0.0,0.0,0.0,0.0,0.0,0.0,0.0,0.0,0.0,0.0,0.0,0.0,0.0,0.0,0.0,0.0,0.0,0.0,0.0,0.0,0.0,0.0,0.0,0.0,0.0,0.0,0.0,0.0,0.0,0.0,0.0,0.0,0.0,0.0,0.0,0.0,0.0,0.0,0.0,0.0,0.0,0.0,0.0,0.0,0.0,0.0,0.0,0.0,0.0,0.0,0.0,0.0,0.0,0.0,0.0,0.0,0.0,0.0,0.0,0.0,0.0,0.0,0.0,0.0,0.0,0.0,0.0,0.0,0.0,0.0,0.0,0.0,0.0,0.0,0.0,0.0,0.0,0.0,0.0,0.0,0.0,0.0,0.0,0.0,0.0,0.0,0.0,0.0,0.0,0.0,0.0,1.2517,1.2813,1.2181,1.1916,1.1869,1.1491,1.1133,0.0,0.0,0.0,0.0,0.0,0.0,0.0,0.0,0.0,0.0,0.0,0.0,0.0,0.0,0.0,0.0,0.0,0.0,0.0,0.0,0.0,0.0,0.0,0.0,0.0,0.0,0.0,0.0,0.0,0.0,0.0,0.0,0.0,0.0,0.0,0.0,0.0,0.0,0.0,0.0,0.0,0.0,0.0,0.0,0.0,0.0,0.0,0.0,0.0,0.0,0.0,0.0,0.0,0.0,0.0,0.0,0.0,0.0,0.0,0.0,0.0,0.0,0.0,0.0,0.0,0.0,0.0,0.0,0.0,0.0,0.0,0.0,0.0,0.0,0.0,0.0,0.0,0.0,0.0,0.0,0.0,0.0,0.0,0.0,0.0,0.0,0.0,0.0,0.0,0.0,0.0,0.0,0.0,0.0,0.0,0.0,0.0,0.0,0.0,0.0,0.0,0.0,0.0,0.0,0.0,0.0,0.0,0.0,1.1962,1.2268,1.1569,1.1096,1.0854,1.081,1.0744,0.0,0.0,0.0,0.0,0.0,0.0,0.0,0.0,0.0,0.0,0.0,0.0,0.0,0.0,0.0,0.0,0.0,0.0,0.0,0.0,0.0,0.0,0.0,0.0,0.0,0.0,0.0,0.0,0.0,0.0,0.0,0.0,0.0,0.0,0.0,0.0,0.0,0.0,0.0,0.0,0.0,0.0,0.0,0.0,0.0,0.0,0.0,0.0,0.0,0.0,0.0,0.0,0.0,0.0,0.0,0.0,0.0,0.0,0.0,0.0,0.0,0.0,0.0,0.0,0.0,0.0,0.0,0.0,0.0,0.0,0.0,0.0,0.0,0.0,0.0,0.0,0.0,0.0,0.0,0.0,0.0,0.0,0.0,0.0,0.0,0.0,0.0,0.0,0.0,0.0,0.0,0.0,0.0,0.0,0.0,0.0,0.0,0.0,0.0,0.0,0.0,0.0,0.0,0.0,0.0,0.0,0.0,0.0,1.148,1.2009,1.1129,1.0683,1.0753,1.0277,1.0012,0.0,0.0,0.0,0.0,0.0,0.0,0.0,0.0,0.0,0.0,0.0,0.0,0.0,0.0,0.0,0.0,0.0,0.0,0.0,0.0,0.0,0.0,0.0,0.0,0.0,0.0,0.0,0.0,0.0,0.0,0.0,0.0,0.0,0.0,0.0,0.0,0.0,0.0,0.0,0.0,0.0,0.0,0.0,0.0,0.0,0.0,0.0,0.0,1.3477,0.0,0.0,0.0,0.0,0.0,0.0,0.0,0.0,0.0,0.0,0.0,0.0,0.0,0.0,0.0,0.0,0.0,0.0,0.0,0.0,0.0,0.0,0.0,0.0,0.0,0.0,0.0,0.0,0.0,0.0,0.0,0.0,0.0,0.0,0.0,0.0,0.0,0.0,0.0,0.0,0.0,0.0,0.0,0.0,0.0,0.0,0.0,0.0,0.0,0.0,0.0,0.0,0.0,0.0,0.0,0.0,0.0,0.0,0.0,1.0897,1.1203,1.0545,1.0081,0.9888,0.9543,0.9475,0.0,0.0,0.0,0.0,0.0,0.0,0.0,0.0,0.0,0.0,0.0,0.0,0.0,0.0,0.0,0.0,0.0,0.0,0.0,0.0,0.0,0.0,0.0,0.0,0.0,0.0,0.0,0.0,0.0,0.0,0.0,0.0,0.0,0.0,0.0,0.0,0.0,0.0,0.0,0.0,0.0,0.0,0.0,0.0,0.0,0.0,0.0,0.0,0.0,0.0,0.0,0.0,0.0,0.0,0.0,0.0,0.0,0.0,0.0,0.0,0.0,0.0,0.0,0.0,0.0,0.0,0.0,0.0,0.0,0.0,0.0,0.0,0.0,0.0,0.0,0.0,0.0,0.0,0.0,0.0,0.0,0.0,0.0,0.0,0.0,0.0,0.0,0.0,0.0,0.0,0.0,0.0,0.0,0.0,0.0,0.0,0.0,0.0,0.0,0.0,0.0,0.0,0.0,0.0,0.0,0.0,0.0,1.0746,1.0414,1.0293,0.9923,0.9513,0.9048,0.8858,0.891,0.9258,0.0,0.0,0.0,0.0,0.0,0.0,0.0,0.0,0.0,0.0,0.0,0.0,0.0,0.0,0.0,0.0,0.0,0.0,0.0,0.0,0.0,0.0,0.0,0.0,0.0,0.0,0.0,0.0,0.0,0.0,0.0,0.0,0.0,0.0,0.0,0.0,0.0,0.0,1.55,1.5219,0.0,0.0,0.0,0.0,0.0,0.0,0.0,0.0,1.3121,0.0,0.0,0.0,0.0,0.0,0.0,0.0,0.0,0.0,0.0,0.0,0.0,0.0,0.0,0.0,0.0,0.0,0.0,0.0,0.0,0.0,0.0,0.0,0.0,0.0,0.0,0.0,0.0,0.0,0.0,0.0,0.0,0.0,0.0,0.0,0.0,0.0,0.0,0.0,0.0,0.0,0.0,0.0,0.0,0.0,0.0,0.0,0.0,0.0,0.0,0.0,0.0,0.0,0.0,0.0,0.0,1.1742,1.0817,1.0279,1.0103,0.9643,0.9241,0.8971,0.8513,0.824,0.8178,0.0,0.0,0.0,0.0,0.0,0.0,0.0,0.0,0.0,0.0,0.0,0.0,0.0,0.0,0.0,0.0,0.0,0.0,0.0,0.0,0.0,0.0,0.0,0.0,0.0,0.0,0.0,0.0,0.0,0.0,0.0,0.0,0.0,0.0,0.0,0.0,0.0,0.0,0.0,1.5771,1.545,0.0,0.0,0.0,0.0,0.0,0.0,0.0,0.0,1.2334,0.0,0.0,0.0,0.0,0.0,0.0,0.0,0.0,0.0,0.0,0.0,0.0,0.0,0.0,0.0,0.0,0.0,0.0,0.0,0.0,0.0,0.0,0.0,0.0,0.0,0.0,0.0,0.0,0.0,0.0,0.0,0.0,0.0,0.0,0.0,0.0,0.0,0.0,0.0,0.0,0.0,0.0,0.0,0.0,0.0,0.0,0.0,0.0,0.0,0.0,0.0,0.0,0.0,0.0,0.0,1.1262,1.0747,1.014,0.9573,0.9341,0.8946,0.8338,0.8075,0.7792,0.0,0.0,0.0,0.0,0.0,0.0,0.0,0.0,0.0,0.0,0.0,0.0,0.0,0.0,0.0,0.0,0.0,0.0,0.0,0.0,0.0,0.0,0.0,0.0,0.0,0.0,0.0,0.0,0.0,0.0,0.0,0.0,0.0,0.0,0.0,0.0,0.0,0.0,0.0,0.0,1.53,1.513,1.5204,0.0,0.0,0.0,0.0,0.0,0.0,1.2343,1.1687,0.0,0.0,0.0,0.0,0.0,0.0,0.0,0.0,0.0,0.0,0.0,0.0,0.0,0.0,0.0,0.0,0.0,0.0,0.0,0.0,0.0,0.0,0.0,0.0,0.0,0.0,0.0,0.0,0.0,0.0,0.0,0.0,0.0,0.0,0.0,0.0,0.0,0.0,0.0,0.0,0.0,0.0,0.0,0.0,0.0,0.0,0.0,0.0,0.0,0.0,0.0,0.0,0.0,0.0,0.0,1.0934,1.0677,1.0081,0.9195,0.9164,0.8699,0.775,0.7677,0.7384,0.0,0.0,0.0,0.0,0.0,0.0,0.0,0.0,0.0,0.0,0.0,0.0,0.0,0.0,0.0,0.0,0.0,0.0,0.0,0.0,0.0,0.0,0.0,0.0,0.0,0.0,0.0,0.0,0.0,0.0,0.0,0.0,0.0,0.0,0.0,0.0,0.0,0.0,0.0,0.0,0.0,1.4627,1.496,1.4715,0.0,0.0,0.0,0.0,1.2603,1.1809,0.0,0.0,0.0,0.0,0.0,0.0,0.0,0.0,0.0,0.0,0.0,0.0,0.0,0.0,0.0,0.0,0.0,0.0,0.0,0.0,0.0,0.0,0.0,0.0,0.0,0.0,0.0,0.0,0.0,0.0,0.0,0.0,0.0,0.0,0.0,0.0,0.0,0.0,0.0,0.0,0.0,0.0,0.0,0.0,0.0,0.0,0.0,0.0,0.0,0.0,0.0,0.0,0.0,0.0,0.0,0.0,1.1244,1.0635,1.0086,0.9631,0.9235,0.8618,0.7735,0.7353,0.6933,0.0,0.0,0.0,0.0,0.0,0.0,0.0,0.0,0.0,0.0,0.0,0.0,0.0,0.0,0.0,0.0,0.0,0.0,0.0,0.0,0.0,0.0,0.0,0.0,0.0,0.0,0.0,0.0,0.0,0.0,0.0,0.0,0.0,0.0,0.0,0.0,0.0,0.0,0.0,0.0,0.0,1.4453,1.4395,1.4085,1.3753,0.0,0.0,1.2307,1.1716,1.1251,0.0,0.0,0.0,0.0,0.0,0.0,0.0,0.0,0.0,0.0,0.0,0.0,0.0,0.0,0.0,0.0,0.0,0.0,0.0,0.0,0.0,0.0,0.0,0.0,0.0,0.0,0.0,0.0,0.0,0.0,0.0,0.0,0.0,0.0,0.0,0.0,0.0,0.0,0.0,0.0,0.0,0.0,0.0,0.0,0.0,0.0,0.0,0.0,0.0,0.0,0.0,0.0,0.0,0.0,0.0,1.1305,1.0969,1.0466,0.9919,0.9324,0.9032,0.8428,0.7526,0.7141,0.6766,0.0,0.0,0.0,0.0,0.0,0.0,0.0,0.0,0.0,0.0,0.0,0.0,0.0,0.0,0.0,0.0,0.0,0.0,0.0,0.0,0.0,0.0,0.0,0.0,0.0,0.0,0.0,0.0,0.0,0.0,0.0,0.0,0.0,0.0,0.0,0.0,0.0,0.0,0.0,0.0,0.0,0.0,1.4621,1.4083,0.0,0.0,0.0,1.1705,1.126,0.0,0.0,0.0,0.0,0.0,0.0,0.0,0.0,0.0,0.0,0.0,0.0,0.0,0.0,0.0,0.0,0.0,0.0,0.0,0.0,0.0,0.0,0.0,0.0,0.0,0.0,0.0,0.0,0.0,0.0,0.0,0.0,0.0,0.0,0.0,0.0,0.0,0.0,0.0,0.0,0.0,0.0,0.0,0.0,0.0,0.0,0.0,0.0,0.0,0.0,0.0,0.0,0.0,0.0,0.0,0.0,0.0,1.0705,1.0284,0.9749,0.9181,0.8882,0.8254,0.7266,0.6928,0.0,0.0,0.0,0.0,0.0,0.0,0.0,0.0,0.0,0.0,0.0,0.0,0.0,0.0,0.0,0.0,0.0,0.0,0.0,0.0,0.0,0.0,0.0,0.0,0.0,0.0,0.0,1.3587,0.0,0.0,0.0,0.0,0.0,0.0,0.0,0.0,0.0,0.0,0.0,0.0,0.0,0.0,1.4472,1.444,1.3802,1.3248,0.0,0.0,1.1144,1.076,1.0114,0.9554,0.0,0.0,0.0,0.0,0.0,0.0,0.0,0.0,0.0,0.0,0.0,0.0,0.0,0.0,0.0,0.0,0.0,0.0,0.0,0.0,0.0,0.0,0.0,0.0,0.0,0.0,0.0,0.0,0.0,0.0,0.0,0.0,0.0,0.0,0.0,0.0,0.0,0.0,0.0,0.0,0.0,0.0,0.0,0.0,0.0,0.0,0.0,0.0,0.0,0.0,0.0,0.0,0.0,0.0,1.0729,1.0712,1.0128,0.9755,0.9624,0.8844,0.8014,0.7136,0.6539,0.6057,0.0,0.0,0.0,0.0,0.0,0.0,0.0,0.0,0.0,0.0,0.0,0.0,0.0,0.0,0.0,0.0,0.0,0.0,0.0,0.0,0.0,0.0,0.0,0.0,0.0,0.0,0.0,0.0,0.0,0.0,0.0,0.0,0.0,0.0,0.0,0.0,0.0,0.0,0.0,0.0,0.0,1.3546,1.3196,1.2824,1.2373,0.0,1.1251,1.0741,1.0222,0.979,0.9466,0.9328,0.0,0.0,0.0,0.0,0.0,0.0,0.0,0.0,0.0,0.0,0.0,0.0,0.0,0.0,0.0,0.0,0.0,0.0,0.0,0.0,0.0,0.0,0.0,0.0,0.0,0.0,0.0,0.0,0.0,0.0,0.0,0.0,0.0,0.0,0.0,0.0,0.0,0.0,0.0,0.0,0.0,0.0,0.0,0.0,0.0,0.0,0.0,0.0,0.0,0.0,0.0,0.0,0.0,1.0724,1.056,0.9903,0.9432,0.9122,0.8592,0.7952,0.7255,0.6758,0.6268,0.0,0.0,0.0,0.0,0.0,0.0,0.0,0.0,0.0,0.0,0.0,0.0,0.0,0.0,0.0,0.0,0.0,0.0,0.0,0.0,0.0,0.0,0.0,0.0,0.0,0.0,0.0,0.0,1.5336,1.5469,1.5226,0.0,0.0,0.0,0.0,0.0,0.0,0.0,0.0,0.0,0.0,1.3709,1.3253,1.2751,0.0,0.0,1.1035,1.0522,0.9975,0.9761,0.9541,0.9319,0.9332,0.0,0.0,0.0,0.0,0.0,0.0,0.0,0.0,0.0,0.0,0.0,0.0,0.0,0.0,0.0,0.0,0.0,0.0,0.0,0.0,0.0,0.0,0.0,0.0,0.0,0.0,0.0,0.0,0.0,0.0,0.0,0.0,0.0,0.0,0.0,0.0,0.0,0.0,0.0,0.0,0.0,0.0,0.0,0.0,0.0,0.0,0.0,0.0,0.0,0.0,0.0,0.0,1.0773,1.0522,0.9729,0.9159,0.8801,0.8271,0.7684,0.7039,0.6655,0.6157,0.0,0.0,0.0,0.0,0.0,0.0,0.0,0.0,0.0,0.0,0.0,0.0,0.0,0.0,0.0,0.0,0.0,0.0,0.0,0.0,0.0,0.0,0.0,0.0,0.0,0.0,0.0,0.0,1.5906,1.6186,1.5926,0.0,0.0,0.0,0.0,0.0,0.0,0.0,0.0,0.0,0.0,1.3547,1.3118,1.2731,1.23,1.1698,1.1195,1.0682,1.0083,0.9936,0.9783,0.9452,0.0,0.0,0.0,0.0,0.0,0.0,0.0,0.0,0.0,0.0,0.0,0.0,0.0,0.0,0.0,0.0,0.0,0.0,0.0,0.0,0.0,0.0,0.0,0.0,0.0,0.0,0.0,1.5488,0.0,0.0,1.4144,0.0,0.0,0.0,0.0,0.0,0.0,0.0,0.0,0.0,0.0,0.0,0.0,0.0,0.0,0.0,0.0,0.0,0.0,0.0,0.0,0.0,0.0,1.0765,1.0514,0.9625,0.9047,0.8778,0.7937,0.7192,0.649,0.6009,0.5513,0.4897,0.0,0.0,0.0,0.0,0.0,0.0,0.0,0.0,0.0,0.0,0.0,0.0,0.0,0.0,0.0,0.0,0.0,0.0,0.0,0.0,0.0,0.0,0.0,0.0,0.0,0.0,1.642,1.7128,1.7515,0.0,0.0,0.0,0.0,0.0,0.0,0.0,0.0,0.0,1.2434,1.2694,1.2812,1.2558,1.2679,1.2579,1.2119,1.1752,1.1297,1.0524,1.0351,1.0176,0.0,0.0,0.0,0.0,0.0,0.0,0.0,0.0,0.0,0.0,0.0,0.0,0.0,0.0,0.0,0.0,0.0,0.0,0.0,0.0,0.0,0.0,0.0,0.0,0.0,0.0,0.0,1.6163,1.6057,0.0,0.0,0.0,0.0,0.0,0.0,0.0,0.0,0.0,0.0,0.0,1.7295,1.6278,0.0,0.0,0.0,0.0,0.0,0.0,0.0,0.0,0.0,0.0,0.0,0.0,1.0663,1.0051,0.9563,0.9099,0.8524,0.7937,0.7295,0.6598,0.6005,0.5175,0.4067,0.0,0.0,0.0,0.0,0.0,0.0,0.0,0.0,0.0,0.0,0.0,0.0,0.0,0.0,0.0,0.0,0.0,0.0,0.0,0.0,0.0,0.0,0.0,0.0,0.0,1.7089,0.0,0.0,0.0,0.0,0.0,0.0,0.0,0.0,0.0,0.0,1.2372,1.2318,1.2961,1.2851,1.2613,1.2387,1.2186,1.1992,0.0,0.0,0.0,0.0,0.0,0.0,0.0,0.0,0.0,0.0,0.0,0.0,0.0,0.0,1.6379,1.7518,1.818,1.8553,1.8567,0.0,0.0,0.0,0.0,0.0,0.0,0.0,0.0,0.0,0.0,0.0,0.0,0.0,0.0,1.7179,1.7116,1.6298,0.0,0.0,0.0,0.0,0.0,0.0,0.0,0.0,1.7662,1.7071,1.7097,1.6162,1.5347,0.0,1.4427,1.3836,0.0,0.0,0.0,0.0,0.0,0.0,0.0,0.0,1.0475,0.9809,0.9289,0.8781,0.8249,0.7667,0.7023,0.6376,0.5445,0.44,0.3235,0.2849,0.2462,0.0,0.0,0.0,0.0,0.0,0.0,0.0,0.0,0.0,0.0,0.0,0.0,0.0,0.0,0.0,0.0,0.0,0.0,0.0,0.0,0.0,0.0,0.0,1.8204,0.0,0.0,0.0,0.0,0.0,0.0,0.0,0.0,0.0,1.303,1.2474,1.2341,1.2756,1.278,1.267,1.2483,0.0,0.0,0.0,0.0,0.0,0.0,0.0,1.0305,1.0482,1.0225,1.0072,1.0322,1.1557,1.295,1.4249,0.0,0.0,1.7684,1.7995,1.8058,1.8103,1.8264,1.8288,1.7921,1.7877,1.7868,0.0,0.0,0.0,0.0,0.0,0.0,0.0,0.0,1.9006,1.8682,0.0,1.7793,0.0,0.0,0.0,0.0,1.8916,1.8921,0.0,0.0,1.7711,1.7159,1.6997,1.6726,1.6127,1.522,1.4961,1.4497,1.3817,1.3841,0.0,0.0,0.0,0.0,0.0,0.0,1.0182,0.9702,0.887,0.8216,0.7844,0.7071,0.6376,0.5716,0.44,0.3291,0.2512,0.2181,0.168,0.0897,0.087,0.0,0.0,0.0,0.0,0.0,0.0,0.0,0.0,0.0,0.0,0.0,0.0,0.0,0.0,0.0,0.0,0.0,0.0,0.0,0.0,1.8403,0.0,0.0,0.0,0.0,0.0,0.0,0.0,0.0,0.0,1.4162,1.2508,1.2743,1.2807,1.1992,0.0,0.0,0.0,0.0,1.2671,1.2089,1.1722,1.132,1.0911,1.0454,1.0218,1.0401,0.0,0.0,1.0547,1.1295,1.2263,1.3366,1.4287,1.5293,1.6852,1.7057,1.7007,1.697,1.7136,1.7226,1.7032,1.7196,1.7284,1.861,0.0,0.0,0.0,0.0,1.9057,1.9057,1.9104,1.8528,1.8319,1.8316,1.7645,0.0,0.0,0.0,0.0,0.0,0.0,1.8828,1.8625,1.7276,1.6727,1.6819,1.6003,1.5458,1.5131,1.4832,1.4453,1.4018,1.3694,1.3304,1.283,0.0,0.0,0.0,0.0,0.9425,0.8724,0.8413,0.7928,0.7123,0.6714,0.5873,0.457,0.4081,0.3189,0.19,0.1344,0.0785,0.028,-0.0056,0.0,0.0,0.0,0.0,0.0,0.0,0.0,0.0,0.0,0.0,0.0,0.0,0.0,0.0,0.0,0.0,0.0,0.0,0.0,1.8564,1.9318,1.9786,0.0,0.0,0.0,0.0,0.0,0.0,0.0,0.0,0.0,1.4224,1.3546,1.3386,0.0,0.0,1.345,1.3668,1.2997,1.2396,1.218,1.1617,0.0,1.1363,1.1122,1.0979,1.1094,1.1115,1.1287,1.1904,1.2328,1.3079,1.4498,1.4604,1.4761,1.5674,1.6314,1.6439,1.6169,1.6463,1.6752,1.6533,1.672,1.6866,1.8126,1.8241,1.8504,1.8731,1.8906,1.9129,1.9396,1.9637,1.9253,1.917,1.927,1.8638,1.8727,1.9332,1.9139,0.0,0.0,0.0,1.8572,1.8152,1.725,1.6762,1.6595,1.5967,1.5652,1.5587,1.5066,1.4654,1.4385,1.376,1.3275,1.2901,0.0,1.104,1.0264,0.9758,0.9101,0.8374,0.7996,0.7428,0.6659,0.5907,0.4936,0.3799,0.3302,0.2518,0.1344,0.0392,-0.028,-0.0616,-0.1162,-0.1615,0.0,0.0,0.0,0.0,0.0,0.0,0.0,0.0,0.0,0.0,0.0,0.9011,1.0686,0.0,0.0,0.0,1.7591,1.8521,1.942,1.9866,0.0,0.0,0.0,0.0,0.0,0.0,0.0,1.7046,1.6541,1.619,1.6123,1.5156,1.4753,1.5528,1.4885,1.4365,1.4484,0.0,1.2602,1.2261,1.1725,1.1431,1.153,1.1395,1.128,1.1252,1.1227,1.1502,1.211,1.237,1.2924,1.3981,1.4105,1.3946,1.4195,1.4505,1.4848,1.5082,1.5434,1.5671,1.568,1.5765,1.574,1.7817,1.8094,1.8751,1.9025,1.9077,1.9555,2.0049,2.0593,2.0441,2.0521,2.0708,2.0131,2.0056,2.0331,1.9876,0.0,1.9522,1.8943,1.8256,1.7463,1.7465,1.7087,1.6386,1.6324,1.6295,1.6267,1.5486,1.5014,1.4787,1.405,1.3453,1.3002,1.1868,1.1004,1.0435,0.9692,0.908,0.8578,0.7554,0.6842,0.638,0.4873,0.3833,0.3352,0.2349,0.1511,0.0841,-0.0505,-0.1401,-0.1621,-0.2336,-0.2826,-0.2965,0.0,0.0,0.0,0.0,0.0,0.0,0.0,0.0,0.0,0.0,0.0,0.0,0.0,0.0,1.6751,1.8419,0.0,1.9976,2.0123,0.0,0.0,0.0,2.0006,1.9277,1.9134,1.8795,1.7996,0.0,0.0,1.7987,1.7243,1.6622,1.6372,1.5892,1.5444,1.5171,1.4149,1.316,1.2333,1.2061,1.1807,1.1633,1.1502,1.1398,1.1243,1.1,1.1181,1.1647,1.1754,1.2107,1.286,1.3,1.2933,1.248,1.22,1.2249,1.387,1.4056,1.4125,1.4441,1.4334,1.4092,1.8731,1.9266,1.9363,1.9329,1.9185,1.8593,1.8582,1.8849,1.865,1.8598,1.862,1.8748,1.8911,1.9128,1.9152,1.9191,1.9222,1.914,1.8757,1.8071,1.7465,1.6866,1.6229,1.5664,1.5438,1.5464,1.5283,1.5109,1.4941,1.4392,1.385,1.3259,1.1911,1.0768,0.9835,0.952,0.8985,0.8237,0.7699,0.6781,0.5437,0.4141,0.3294,0.2847,0.2181,0.1287,0.0224,-0.112,-0.196,-0.207,-0.2832,-0.3333,-0.3557,-0.3611,0.0,0.0,0.0,0.0,0.0,0.0,0.0,0.0,0.0,0.8631,1.0702,0.0,1.5417,0.0,1.8353,1.9639,2.0026,2.0259,0.0,0.0,1.9812,1.9339,1.914,1.8583,1.8142,1.7936,1.7917,1.8151,1.8799,1.8697,1.8541,1.8444,1.6535,1.5217,1.5325,1.4477,1.3439,1.2579,1.2564,1.2561,1.1948,1.1957,1.202,1.205,1.1676,1.1503,1.1866,1.1686,1.1688,1.2197,1.188,1.1647,1.1696,1.1019,1.076,1.1606,1.1999,1.2187,1.2292,1.2472,1.2632,1.8738,1.9169,1.9161,1.9182,1.9151,1.8975,1.8958,1.901,1.8889,1.8776,1.8669,1.8741,1.8656,1.8501,1.8708,1.8851,1.8948,1.9101,1.8776,1.8074,1.7742,1.7411,1.7052,1.6393,1.6134,1.6211,1.5887,1.5517,1.5077,1.4651,1.4176,1.3694,1.2058,1.0787,0.9886,0.9265,0.8692,0.8166,0.7242,0.6002,0.4466,0.3594,0.2865,0.2232,0.1508,0.0671,-0.0392,-0.1732,-0.2629,-0.302,-0.3633,-0.4208,-0.4766,-0.459,-0.4413,0.0,0.0,0.0,0.0,0.0,0.0,0.0,0.0,0.0,0.0,0.0,1.5646,1.7483,1.8849,1.9711,2.0033,2.0234,2.0354,2.0354,1.9905,1.9585,1.9637,1.9192,1.889,1.8916,1.8925,1.9115,1.961,1.9413,1.9032,1.8673,1.6937,1.5719,1.5618,1.482,1.3758,1.2819,1.2696,1.2569,1.2017,1.1854,1.1867,1.1989,1.1536,1.1209,1.1271,1.0869,1.0682,1.1089,1.07,1.0385,1.0626,1.0148,0.975,1.0073,1.0112,1.0356,1.1126,1.1229,1.1178,1.8372,1.8503,1.8721,1.8874,1.91,1.9803,1.9947,1.972,1.9772,1.9623,1.9376,1.9104,1.8666,1.8192,1.8419,1.8584,1.8642,1.8861,1.8517,1.7783,1.7923,1.801,1.7983,1.7394,1.7188,1.7277,1.6666,1.5977,1.5218,1.4912,1.4552,1.4059,1.2381,1.1096,1.0231,0.9001,0.8254,0.7976,0.6562,0.5138,0.3624,0.3103,0.2446,0.1563,0.0671,-0.0168,-0.1061,-0.2345,-0.3349,-0.4076,-0.4575,-0.5236,-0.6046,-0.5666,-0.5392,0.0,-0.4642,0.0,0.0,0.0,0.0,0.0,0.0,0.0,0.0,1.2736,1.5712,1.8894,1.9507,1.9803,1.9982,2.0152,2.0247,2.0194,2.0135,2.0118,2.0178,2.0094,2.0054,2.0124,2.0153,2.0209,2.0227,1.9658,1.888,1.8056,1.7111,1.6251,1.581,1.4936,1.397,1.2989,1.2427,1.2075,1.1889,1.1436,1.1158,1.1284,1.0756,1.0312,1.0145,0.9614,0.9301,0.9656,0.9505,0.9337,0.9619,0.9328,0.9043,0.9056,0.8627,0.8723,0.9972,0.9975,0.9592,1.834,1.8514,1.87,1.8988,1.9258,1.9398,1.9237,1.8819,1.8663,1.8538,1.8355,1.7987,1.7853,1.7892,1.8095,1.8246,1.8391,1.8535,1.8233,1.7618,1.712,1.6929,1.6947,1.6365,1.6145,1.6281,1.626,1.5903,1.5297,1.5536,1.5175,1.4239,1.3193,1.1977,1.057,0.0,0.0,0.0,0.6362,0.5433,0.3926,0.288,0.1946,0.1061,0.0168,0.0,-0.2121,-0.3118,-0.3953,-0.4677,-0.5397,0.0,0.0,0.0,0.0,0.0,0.0,0.0,0.0,0.0,0.0,0.0,-0.1127,0.1966,0.7131,1.1599,1.5649,1.9118,1.9717,1.9886,1.9918,1.9988,1.9934,1.9609,1.9569,1.9569,1.9628,1.9625,1.9651,1.9793,1.9936,2.0082,2.0142,1.9618,1.8864,1.7988,1.7002,1.599,1.5,1.4506,1.377,1.2639,1.1806,1.1475,1.1555,1.0933,1.027,0.9906,0.9112,0.8642,0.8512,0.8262,0.8154,0.8544,0.8406,0.8411,0.8793,0.8553,0.814,0.7889,0.7697,0.7692,0.8204,0.8017,0.763,1.8029,1.8208,1.8436,1.8676,0.0,1.9085,1.8964,1.8709,1.8641,1.8359,1.7963,1.7843,1.7716,1.7604,1.778,1.7949,1.8112,1.8229,1.817,1.7919,1.7276,1.7251,1.7683,1.7073,1.6857,1.6996,1.7152,1.6946,1.6396,1.6132,1.5961,1.5847,1.3707,1.2199,1.138,0.9146,0.733,0.6021,0.5757,0.5013,0.3684,0.2461,0.1342,0.0336,-0.1005,0.0,0.0,0.0,0.0,0.0,0.0,0.0,0.0,-0.7374,0.0,-0.763,-0.6875,-0.6434,-0.6603,-0.6277,-0.5823,-0.518,-0.4382,-0.1346,0.4705,0.7168,1.0558,1.5681,1.5485,1.6134,1.8879,1.9364,1.9298,1.8929,1.8965,1.9109,1.9256,1.9298,1.9388,1.952,1.9421,1.9435,1.9849,1.9076,1.8357,1.7781,1.6853,1.5724,1.4561,1.4064,1.3378,1.1916,1.0938,1.0448,1.0428,0.9859,0.9336,0.9098,0.8326,0.7642,0.7377,0.7137,0.6965,0.7036,0.721,0.7509,0.7762,0.7592,0.7342,0.7179,0.6842,0.6504,0.6407,0.6456,0.654,1.776,1.7916,1.8201,1.8358,1.8517,1.8841,1.8972,1.8945,1.8887,0.0,0.0,1.8171,1.7953,1.7559,1.7646,1.7776,1.7852,1.7988,1.8146,1.8223,1.7632,1.7797,1.8606,1.8045,1.7826,1.798,1.818,1.7985,1.7472,1.6846,1.6865,1.7171,1.4314,1.2326,1.1431,0.9205,0.7171,0.5477,0.5381,0.4584,0.3014,0.1845,0.0671,-0.056,-0.2179,-0.3347,-0.3953,-0.5052,-0.6036,-0.6961,-0.7543,-0.8234,-0.911,-0.8613,-0.8461,-0.8975,-0.8141,-0.7803,-0.8212,-0.8267,-0.8261,-0.8095,-0.7647,-0.4544,0.2018,0.2305,0.4757,1.1003,1.0346,1.1635,1.6358,1.7363,1.7468,1.6987,1.7409,1.7792,1.7904,1.8056,1.811,1.8569,1.8298,1.835,1.8766,1.8059,1.7407,1.716,1.6247,1.5166,1.3916,1.3257,1.2553,1.1164,1.0137,0.9393,0.9178,0.8534,0.8196,0.8282,0.748,0.6774,0.6462,0.6176,0.5919,0.5913,0.6201,0.6537,0.6803,0.6755,0.6579,0.6489,0.6064,0.547,0.4957,0.5219,0.5602,1.7801,1.7909,1.8208,1.8365,1.8524,1.8879,1.9182,1.9427,1.8957,1.8885,1.9059,1.8691,1.8363,1.8096,1.8124,1.798,1.7749,1.7808,1.7949,1.8082,1.7397,1.7539,1.8384,1.7834,1.7641,1.7832,1.8025,1.7891,1.7527,1.7985,1.8029,1.7436,1.576,1.2859,0.9127,0.8451,0.7133,0.4983,0.5978,0.4918,0.1675,0.0671,-0.0391,-0.1566,-0.2673,-0.3993,-0.5423,-0.635,-0.7377,-0.8452,-0.8764,-0.9277,-0.9934,-0.9472,-0.9366,-0.9904,-0.9291,-0.9251,-1.0196,-1.0283,-1.0797,-1.188,-1.1867,-0.8756,-0.1857,0.0108,0.2473,0.6244,0.7594,0.8955,1.032,1.2014,1.2686,1.19,1.3137,1.3977,1.3713,1.4198,1.489,1.5697,1.6096,1.6417,1.6631,1.6394,1.6065,1.58,1.4627,1.347,1.2222,1.1696,1.1244,1.046,0.9449,0.8699,0.8272,0.7464,0.6927,0.6632,0.6164,0.5647,0.5483,0.5313,0.531,0.5701,0.5516,0.5591,0.6107,0.6107,0.572,0.5293,0.5082,0.4831,0.4226,0.431,0.4441,1.7902,1.7975,1.83,1.8496,1.8683,1.8927,1.9295,1.966,1.9396,1.9292,1.9394,1.9241,1.9001,1.8631,1.8406,1.8235,1.8078,1.7843,1.7825,1.7927,1.765,1.7802,1.8258,1.8156,1.8155,1.8313,1.8538,1.862,1.8602,1.8608,1.8725,1.8826,1.6827,1.3766,1.0044,0.8383,0.669,0.4806,0.5253,0.3911,0.0501,-0.0111,-0.1282,-0.3186,-0.3946,-0.4865,-0.6183,-0.7377,-0.8495,-0.9496,-0.9946,-1.0505,-1.1245,-1.0651,-1.0539,-1.1131,-1.0598,-1.0727,-1.176,-1.3049,-1.4161,-1.4943,-1.552,-1.4497,-1.1064,-0.7756,-0.3697,0.1398,0.2975,0.4678,0.7237,0.865,0.8821,0.7538,0.9289,1.0599,1.0919,1.2266,1.3448,1.4141,1.4561,1.4921,1.5229,1.5049,1.4432,1.3602,1.2214,1.0895,0.9892,0.9703,0.9634,0.9395,0.8584,0.7775,0.727,0.6492,0.5996,0.5956,0.5275,0.4884,0.4842,0.4753,0.4753,0.4886,0.4604,0.45,0.4803,0.4498,0.4287,0.4339,0.4039,0.3825,0.3787,0.3873,0.3871,1.8068,1.8161,1.8411,1.8644,1.895,1.9169,1.9457,1.9846,1.9818,1.9825,1.9779,1.9821,1.9545,1.9005,1.8697,1.8439,1.8203,1.8015,1.7887,1.7828,1.8087,1.8189,1.8211,1.8456,1.8622,1.8725,1.8973,1.9277,1.9522,1.9118,1.908,1.9277,1.7228,1.4489,1.1343,0.8899,0.6764,0.5072,0.4594,0.2883,-0.0167,-0.078,-0.2062,-0.4187,-0.4993,-0.5797,-0.6942,-0.8283,-0.9499,-1.0474,-1.1015,-1.1657,-1.2434,-1.1948,-1.1885,-1.2381,-1.2084,-1.237,-1.3557,-1.5434,-1.6742,-1.7223,-1.8205,-1.8656,-1.806,-1.4839,-1.011,-0.4558,-0.2796,-0.0601,0.279,0.4508,0.4567,0.3438,0.5299,0.6686,0.7368,0.9147,1.0605,1.1128,1.136,1.1398,1.1708,1.1711,1.1002,0.9859,0.9305,0.8673,0.7922,0.7866,0.8049,0.7908,0.7444,0.6841,0.628,0.572,0.5343,0.5437,0.4753,0.4272,0.4178,0.3957,0.3737,0.3603,0.3416,0.3276,0.3237,0.3196,0.3199,0.3422,0.3293,0.3211,0.3566,0.3605,0.3471,1.8226,1.8514,1.8514,1.8829,1.9339,1.9581,1.9762,1.9998,2.0173,2.0392,2.0552,2.0385,1.9878,1.9175,1.9127,1.8618,1.7833,1.8324,1.8286,1.7907,1.8496,1.8569,1.816,1.8385,1.8565,1.8725,1.8982,1.9316,1.9663,1.9748,1.9058,1.7629,1.6576,1.4668,1.1861,1.0125,0.8222,0.5909,0.4647,0.2674,-0.0056,-0.1343,-0.2568,-0.3838,-0.5212,-0.6568,-0.7909,-0.9072,-1.0277,-1.146,-1.2035,-1.2614,-1.3316,-1.3205,-1.3362,-1.3918,-1.3672,-1.4187,-1.5736,-1.6601,-1.7432,-1.8197,-1.9125,-1.9435,-1.8787,-1.7096,-1.4743,-1.1336,-0.8884,-0.6156,-0.4343,-0.2075,-0.0934,-0.1281,0.0657,0.1952,0.1898,0.2369,0.3277,0.4078,0.4766,0.4045,0.435,0.4663,0.4849,0.543,0.6626,0.7181,0.6496,0.6476,0.6557,0.6263,0.6086,0.5812,0.5336,0.5127,0.4698,0.4256,0.4176,0.3734,0.3021,0.2577,0.2312,0.1909,0.1866,0.2001,0.2223,0.2536,0.2808,0.2857,0.2947,0.3078,0.3304,0.3255,0.29,1.8769,1.8959,1.9065,1.9376,1.9782,1.9884,2.0088,2.0415,2.0441,2.0636,2.0918,2.0536,2.0125,1.9779,1.9615,1.9048,1.8297,1.8295,1.8152,1.7973,1.8329,1.8378,1.8211,1.8526,1.8716,1.8843,1.9139,1.9443,1.9743,2.0005,1.9535,1.8464,1.773,1.5711,1.2479,1.0672,0.8399,0.5474,0.4188,0.2461,0.0167,-0.1396,-0.3064,-0.4884,-0.6131,-0.7317,-0.8498,-0.981,-1.0994,-1.2035,-1.2667,-1.3314,-1.4035,-1.3909,-1.3992,-1.4402,-1.5106,-1.5906,-1.6853,-1.8023,-1.8701,-1.8699,-1.9901,-2.0359,-1.9763,-1.9051,-1.7856,-1.5695,-1.1221,-0.7972,-0.7569,-0.5616,-0.453,-0.4883,-0.3321,-0.1901,-0.166,-0.0295,0.0902,0.1468,0.1551,0.1468,0.1241,0.1139,0.1448,0.2107,0.3313,0.3698,0.3812,0.4135,0.4436,0.457,0.4289,0.4085,0.4121,0.3951,0.369,0.3382,0.2892,0.2268,0.2087,0.142,0.0975,0.0444,0.0622,0.0757,0.0802,0.1293,0.1697,0.2148,0.2994,0.3301,0.2768,0.2853,0.2676,1.9347,1.9493,1.9696,1.9952,2.022,2.022,2.0441,2.0711,2.0728,2.0933,2.1166,2.0624,2.0311,2.0164,1.9714,1.9152,1.8582,1.8449,1.8263,1.8156,1.8396,1.8447,1.8348,1.8651,1.8869,1.8998,1.9292,1.9625,1.9913,2.0185,1.9928,1.916,1.8455,1.6622,1.3709,1.1375,0.861,0.5615,0.4102,0.2276,0.0166,-0.1448,-0.3281,-0.538,-0.6679,-0.7856,-0.8876,-1.0273,-1.1488,-1.2418,-1.3155,-1.3836,-1.4496,-1.458,-1.4818,-1.5248,-1.617,-1.7038,-1.7749,-1.8746,-1.9236,-1.9165,-2.0295,-2.0821,-2.0463,-2.0486,-2.0201,-1.9031,-1.4155,-1.1145,-0.9745,-0.8418,-0.7505,-0.7368,-0.583,-0.4605,-0.4009,-0.2565,-0.1743,-0.1487,-0.1808,-0.1582,-0.1646,-0.1869,-0.1708,-0.0859,-0.0398,0.029,0.1281,0.1845,0.2175,0.317,0.2684,0.2524,0.3077,0.3213,0.2901,0.2136,0.1557,0.1201,0.0888,0.0044,-0.0443,-0.1022,-0.0667,-0.0267,0.0,0.0313,0.1297,0.2102,0.2861,0.3211,0.2634,0.2807,0.2497,1.9839,2.0174,2.0368,2.0452,2.0486,2.0738,2.0844,2.0852,2.1119,2.1294,2.1251,2.0708,2.0298,2.0009,1.9358,1.8702,1.8306,1.8892,1.8857,1.8403,1.9037,1.907,1.8531,1.8771,1.8965,1.913,1.9444,1.9796,2.0165,2.0315,1.9922,1.9039,1.8217,1.7099,1.5258,1.2189,0.9226,0.6488,0.4391,0.2166,-0.0165,-0.1721,-0.3167,-0.4831,-0.6514,-0.8016,-0.9176,-1.0474,-1.1638,-1.256,-1.3484,-1.4258,-1.4852,-1.5383,-1.6052,-1.6873,-1.6884,-1.7358,-1.8427,-1.8433,-1.8547,-1.9267,-2.0098,-2.0519,-2.0427,-2.1006,-2.1276,-2.1334,-1.8868,-1.5927,-1.2273,-1.0917,-0.9679,-0.7846,-0.66,-0.5976,-0.5882,-0.556,-0.5573,-0.5835,-0.592,-0.5868,-0.6373,-0.6051,-0.49,-0.398,-0.3266,-0.1886,-0.0033,0.0036,0.0537,0.1733,0.1882,0.1521,0.2281,0.2368,0.1784,0.103,0.0494,0.0134,-0.1021,-0.1955,-0.2227,-0.2186,-0.1471,-0.0937,-0.0671,0.0268,0.1698,0.2505,0.2683,0.2725,0.2545,0.2456,0.219,2.0342,2.0613,2.0763,2.0893,2.1015,2.1111,2.123,2.1371,2.1548,2.17,2.1628,2.0789,2.0323,2.0207,1.9209,1.856,1.8289,1.8688,1.8733,1.8496,1.8895,1.8953,1.8761,1.8948,1.9155,1.9333,1.9632,1.9974,2.0291,2.0382,2.0025,1.9269,1.8512,1.7021,1.4627,1.2151,0.9301,0.6279,0.4082,0.1909,-0.0331,-0.2,-0.3553,-0.5052,-0.6835,-0.8274,-0.9277,-1.083,-1.2004,-1.2822,-1.3737,-1.446,-1.4897,-1.5534,-1.63,-1.7096,-1.7431,-1.7887,-1.8559,-1.8935,-1.8988,-1.9064,-2.0048,-2.0519,-2.0386,-2.1008,-2.1453,-2.0912,-2.0782,-1.8677,-1.5474,-1.2889,-1.099,-0.9821,-0.8679,-0.7854,-0.7778,-0.8157,-0.8652,-0.8598,-0.8398,-0.8028,-0.7379,-0.6673,-0.5796,-0.512,-0.4261,-0.2767,-0.1236,-0.1159,-0.0814,0.0709,0.0716,0.018,0.0325,0.0861,0.0762,0.0,-0.0594,-0.0989,-0.1877,-0.2417,-0.2693,-0.2162,-0.1663,-0.0937,-0.0358,0.0804,0.2148,0.255,0.2726,0.2592,0.2545,0.2233,0.1967,2.0942,2.1127,2.1245,2.1323,2.1495,2.1548,2.1661,2.1819,2.2003,2.2101,2.1955,2.0925,2.0433,2.0281,1.9215,1.8642,1.8557,1.8706,1.8753,1.8753,1.8914,1.8984,1.8973,1.9182,1.9365,1.9535,1.9861,2.0181,2.0396,2.036,1.9981,1.9368,1.8653,1.7004,1.4507,1.2436,0.9931,0.7112,0.5027,0.2768,0.0111,-0.189,-0.366,-0.5208,-0.6993,-0.8432,-0.9529,-1.0977,-1.2192,-1.3064,-1.3941,-1.4697,-1.5277,-1.5951,-1.6601,-1.7234,-1.7801,-1.8247,-1.8669,-1.9169,-1.9395,-1.9245,-2.0089,-2.0606,-2.0508,-2.1187,-2.1133,-2.0607,-2.0541,-1.9714,-1.7047,-1.4034,-1.2027,-1.1384,-1.0345,-0.946,-0.9006,-0.9559,-0.9672,-0.9245,-0.8885,-0.8361,-0.7524,-0.6488,-0.574,-0.5289,-0.4424,-0.3133,-0.19,-0.163,-0.1556,-0.0079,-0.0423,-0.0866,-0.0941,-0.0697,-0.1162,-0.1934,-0.1649,-0.2032,-0.2277,-0.2777,-0.273,-0.2141,-0.1449,-0.0673,0.0313,0.1431,0.2102,0.2595,0.2505,0.2326,0.219,0.192,0.1744,2.17,2.1781,2.1827,2.1848,2.1928,2.2019,2.2039,2.2093,2.2407,2.2497,2.2293,2.1138,2.0652,2.0446,1.9402,1.8877,1.9005,1.9082,1.9126,1.915,1.92,1.9214,1.924,1.94,1.958,1.9743,2.0107,2.0357,2.0477,2.0289,1.9908,1.9262,1.8495,1.7163,1.5434,1.3277,1.1246,0.8941,0.6927,0.4261,0.0886,-0.1389,-0.3326,-0.514,-0.6886,-0.8439,-0.9729,-1.0859,-1.207,-1.3266,-1.4046,-1.4966,-1.5963,-1.6528,-1.7044,-1.7441,-1.7935,-1.8333,-1.8753,-1.9079,-1.9486,-1.9771,-2.0334,-2.0772,-2.1054,-2.1295,-2.0955,-1.9912,-1.9498,-1.8744,-1.6987,-1.4851,-1.3172,-1.2413,-1.1245,-1.0347,-0.9948,-0.9614,-0.9182,-0.8701,-0.8538,-0.7948,-0.6776,-0.5891,-0.5327,-0.4912,-0.41,-0.3114,-0.2206,-0.2006,-0.1548,-0.1112,-0.1311,-0.1783,-0.202,-0.2295,-0.3209,-0.3891,-0.3172,-0.2938,-0.29,-0.3123,-0.2642,-0.2025,-0.0921,-0.0091,0.0954,0.1953,0.2245,0.2556,0.233,0.2105,0.1969,0.1834,0.1746,2.2019,2.2104,2.2223,2.2287,2.2304,2.2296,2.2362,2.2553,2.2659,2.2773,2.2614,2.1516,2.0981,2.0737,1.9739,1.9271,1.9467,1.949,1.9439,1.9372,1.9429,1.9518,1.9599,1.9676,1.9824,2.005,2.0255,2.0421,2.0428,2.0255,1.9915,1.942,1.8656,1.7303,1.5426,1.3456,1.1387,0.9051,0.6228,0.3505,0.1206,-0.1053,-0.3327,-0.5517,-0.6663,-0.8047,-0.9997,-1.1107,-1.2115,-1.3112,-1.3941,-1.492,-1.5907,-1.6442,-1.6869,-1.7385,-1.7916,-1.8314,-1.862,-1.9026,-1.9398,-1.9661,-2.0127,-2.0455,-2.0594,-2.0583,-2.0124,-1.9248,-1.8718,-1.791,-1.6905,-1.5635,-1.4135,-1.2929,-1.1786,-1.0969,-1.0594,-1.0375,-1.0063,-0.9407,-0.8533,-0.7539,-0.6596,-0.5804,-0.533,-0.5008,-0.4296,-0.3479,-0.2731,-0.2557,-0.2409,-0.1695,-0.2179,-0.2539,-0.2609,-0.2568,-0.2932,-0.3483,-0.3277,-0.3093,-0.3159,-0.2894,-0.2398,-0.1594,-0.052,0.0512,0.1577,0.2069,0.2229,0.2248,0.1972,0.1882,0.1882,0.1792,0.1658,2.2373,2.2483,2.2588,2.2605,2.2605,2.2533,2.2469,2.2443,2.2425,2.2401,2.212,2.1279,2.0841,2.0681,1.9862,1.9573,1.9735,1.9785,1.9768,1.9687,1.9705,1.9804,1.9921,1.9964,2.0051,2.0222,2.0334,2.0389,2.0357,2.0077,1.9783,1.9395,1.8396,1.7117,1.5495,1.3696,1.1797,0.9827,0.7315,0.4555,0.2017,-0.0553,-0.3052,-0.5132,-0.623,-0.7676,-0.964,-1.0754,-1.1814,-1.2957,-1.4025,-1.5096,-1.5951,-1.6337,-1.6686,-1.7122,-1.7706,-1.8156,-1.8354,-1.8829,-1.9243,-1.9384,-1.9775,-2.0112,-2.0184,-2.0087,-1.9578,-1.8511,-1.7955,-1.7014,-1.5641,-1.4849,-1.3815,-1.2606,-1.2233,-1.1724,-1.1281,-1.0845,-1.0267,-0.9411,-0.8274,-0.7227,-0.6362,-0.5769,-0.5267,-0.4915,-0.4266,-0.3733,-0.3068,-0.2914,-0.2594,-0.256,-0.2979,-0.3129,-0.3074,-0.2911,-0.2644,-0.2778,-0.2859,-0.2879,-0.2948,-0.2438,-0.1927,-0.0946,0.0147,0.0766,0.1761,0.1591,0.1617,0.1552,0.1536,0.157,0.157,0.1614,0.157,2.279,2.2995,2.2885,2.2833,2.2833,2.2729,2.24,2.191,2.201,2.1763,2.1179,2.0735,2.0505,2.0356,1.9931,1.975,1.9847,1.9955,2.0073,2.0119,2.0093,2.0073,2.0121,2.0208,2.0253,2.03,2.0304,2.0239,2.0089,1.9658,1.9463,1.895,1.7522,1.6428,1.5328,1.3908,1.2403,1.1127,0.9354,0.6401,0.2963,0.0055,-0.2443,-0.4371,-0.5688,-0.7154,-0.8744,-0.9993,-1.1321,-1.2904,-1.4299,-1.5283,-1.5907,-1.63,-1.6565,-1.6772,-1.7447,-1.7808,-1.8082,-1.8475,-1.8846,-1.9072,-1.9251,-1.9536,-1.9892,-1.9656,-1.903,-1.7837,-1.7301,-1.6121,-1.4101,-1.3312,-1.2739,-1.1886,-1.2156,-1.2187,-1.1651,-1.0812,-0.9805,-0.8815,-0.7832,-0.6919,-0.6091,-0.5589,-0.5201,-0.4666,-0.3996,-0.3603,-0.3285,-0.3182,-0.3132,-0.3371,-0.3772,-0.3703,-0.3683,-0.3304,-0.2995,-0.2499,-0.2408,-0.2274,-0.2411,-0.1887,-0.1318,-0.0311,0.0405,0.1092,0.1369,0.1161,0.0998,0.0938,0.1017,0.1134,0.1274,0.1337,0.171,2.3217,2.3336,2.3226,2.3142,2.3091,2.2977,2.2472,2.1826,2.2074,2.1831,2.1314,2.0885,2.0646,2.063,2.0137,1.9982,2.0086,2.0175,2.0254,2.0332,2.0366,2.0347,2.0309,2.0293,2.0292,2.0252,1.996,1.9775,1.9614,1.8867,1.8296,1.7913,1.637,1.5227,1.4399,1.3029,1.1966,1.0901,0.82,0.5937,0.3755,0.0718,-0.1947,-0.41,-0.5309,-0.6553,-0.8044,-0.9666,-1.1416,-1.3155,-1.4346,-1.5142,-1.5603,-1.6001,-1.6349,-1.6674,-1.7227,-1.7598,-1.7679,-1.8049,-1.8404,-1.8539,-1.8686,-1.8921,-1.9125,-1.8702,-1.8264,-1.7617,-1.6936,-1.5893,-1.4745,-1.3853,-1.2893,-1.181,-1.1596,-1.1345,-1.0677,-0.9634,-0.8736,-0.8223,-0.7347,-0.6562,-0.6137,-0.5857,-0.5529,-0.4895,-0.4454,-0.4132,-0.3808,-0.3848,-0.3963,-0.4213,-0.4447,-0.4341,-0.4141,-0.3773,-0.3269,-0.2516,-0.2035,-0.136,-0.146,-0.1295,-0.0654,0.0164,0.0424,0.0985,0.0821,0.0559,0.0448,0.0387,0.0483,0.0625,0.1021,0.1229,0.181,2.3467,2.3567,2.3407,2.3301,2.3192,2.31,2.2605,2.1947,2.1853,2.1432,2.0765,2.0536,2.0439,2.0384,2.0213,2.0152,2.024,2.0345,2.0394,2.0425,2.0476,2.0455,2.0371,2.0277,2.0127,1.993,1.9602,1.9254,1.8901,1.8217,1.7676,1.6932,1.543,1.4337,1.3639,1.2019,1.0894,1.0005,0.7787,0.5829,0.4166,0.1207,-0.1167,-0.3219,-0.4544,-0.6016,-0.7732,-0.9297,-1.1077,-1.2831,-1.3904,-1.4566,-1.513,-1.568,-1.6001,-1.6151,-1.6716,-1.706,-1.7144,-1.7523,-1.7767,-1.7834,-1.7981,-1.8101,-1.8224,-1.7957,-1.7786,-1.7486,-1.6895,-1.6061,-1.4829,-1.3564,-1.2243,-1.1082,-1.0634,-1.0371,-1.0245,-0.9323,-0.8553,-0.8014,-0.7246,-0.6413,-0.6218,-0.6069,-0.5622,-0.5137,-0.4853,-0.4648,-0.4497,-0.4675,-0.4928,-0.5236,-0.5152,-0.4966,-0.4694,-0.4337,-0.368,-0.2927,-0.1783,-0.105,-0.0713,-0.0657,-0.011,0.0386,0.0546,0.0486,0.0212,0.0,0.0051,0.0,0.0051,0.0354,0.0811,0.1281,0.1891,2.3655,2.373,2.3526,2.3382,2.3287,2.3239,2.2753,2.1959,2.1671,2.084,1.9927,1.9913,2.0068,1.9936,2.0223,2.0311,2.0323,2.0438,2.0465,2.0457,2.0449,2.0396,2.0279,2.0068,1.9791,1.9448,1.9215,1.8652,1.8119,1.776,1.7123,1.6009,1.4564,1.3535,1.2575,1.0996,0.9721,0.9005,0.7947,0.6076,0.4158,0.1587,-0.0499,-0.2368,-0.412,-0.5885,-0.757,-0.8943,-1.03,-1.2366,-1.3115,-1.3794,-1.4503,-1.5119,-1.5355,-1.5389,-1.592,-1.6324,-1.6417,-1.6746,-1.706,-1.706,-1.7124,-1.7242,-1.7353,-1.7356,-1.7263,-1.7046,-1.7111,-1.5955,-1.4329,-1.2531,-1.1355,-1.052,-1.0042,-1.0037,-0.9939,-0.9309,-0.8545,-0.817,-0.7156,-0.6698,-0.6395,-0.6083,-0.5653,-0.5392,-0.5256,-0.5412,-0.5339,-0.5446,-0.5877,-0.6357,-0.6094,-0.5613,-0.5251,-0.4887,-0.4099,-0.3272,-0.1895,-0.0944,-0.0274,-0.0,0.0383,0.071,0.0757,0.0269,-0.0532,-0.0578,-0.0468,-0.0419,-0.0473,0.0208,0.0874,0.1412,0.1997,2.4016,2.4005,2.3852,2.3759,2.3678,2.3638,2.2852,2.1599,2.1766,2.1092,2.008,2.0022,2.0101,2.0147,2.0291,2.0405,2.0431,2.0479,2.0459,2.0328,2.0297,2.0157,1.9975,1.9716,1.943,1.8998,1.8342,1.7786,1.7299,1.6624,1.5758,1.483,1.3233,1.186,1.1527,0.9911,0.8633,0.8158,0.7432,0.5765,0.373,0.2038,0.0055,-0.2167,-0.4084,-0.5954,-0.7528,-0.8359,-0.9173,-1.0324,-1.1616,-1.2701,-1.3595,-1.4242,-1.4571,-1.4784,-1.5141,-1.5466,-1.5517,-1.587,-1.6139,-1.6244,-1.6281,-1.6367,-1.6527,-1.6508,-1.6445,-1.6264,-1.6002,-1.5171,-1.3515,-1.264,-1.1454,-1.0485,-1.015,-1.0017,-0.9613,-0.8716,-0.7973,-0.7355,-0.6971,-0.6531,-0.6355,-0.6454,-0.6089,-0.5704,-0.5815,-0.6137,-0.6219,-0.6279,-0.6596,-0.7078,-0.6574,-0.5989,-0.5611,-0.5112,-0.4305,-0.3534,-0.2267,-0.116,-0.0491,0.0162,0.0377,0.0645,0.0965,0.016,-0.0999,-0.1224,-0.1108,-0.1019,-0.0869,-0.0108,0.0592,0.1299,0.1999,2.4401,2.4321,2.4136,2.3969,2.3915,2.3929,2.317,2.2085,2.2088,2.1379,2.0298,2.0194,2.026,2.0308,2.0391,2.0474,2.0459,2.0419,2.0347,2.0239,2.0115,1.9838,1.9391,1.9029,1.8683,1.8387,1.7689,1.706,1.6515,1.5905,1.5182,1.4087,1.2264,1.1214,1.0515,0.8919,0.7662,0.6753,0.593,0.4441,0.264,0.1539,0.0056,-0.2073,-0.3736,-0.5175,-0.6738,-0.7351,-0.7925,-0.8797,-0.9904,-1.126,-1.2624,-1.3426,-1.3862,-1.4201,-1.4571,-1.4806,-1.4949,-1.5119,-1.5281,-1.5389,-1.5451,-1.5585,-1.5712,-1.5656,-1.5644,-1.5582,-1.5292,-1.4553,-1.28,-1.1688,-1.0896,-1.0195,-0.9855,-0.9633,-0.9111,-0.859,-0.8108,-0.7578,-0.7433,-0.7119,-0.6963,-0.6804,-0.6821,-0.6536,-0.6497,-0.6781,-0.712,-0.7169,-0.713,-0.7272,-0.6786,-0.6299,-0.5946,-0.533,-0.4385,-0.3697,-0.2787,-0.1845,-0.1073,-0.0478,0.0105,0.0366,0.0571,-0.0363,-0.1341,-0.1521,-0.1595,-0.1504,-0.114,-0.0443,0.0335,0.1325,0.204,2.4702,2.462,2.4411,2.4219,2.4148,2.4276,2.3777,2.2912,2.2667,2.1904,2.0653,2.0546,2.0609,2.0435,2.0446,2.0478,2.0408,2.0303,2.0207,2.0144,1.9796,1.9367,1.8817,1.822,1.7859,1.7731,1.7003,1.6369,1.5879,1.5382,1.4564,1.3505,1.2113,1.0909,0.9769,0.8444,0.7137,0.5958,0.486,0.3471,0.1959,0.0979,-0.0334,-0.2165,-0.3067,-0.4283,-0.5749,-0.6482,-0.6966,-0.7616,-0.8224,-0.9552,-1.1128,-1.2439,-1.3135,-1.3404,-1.3732,-1.4025,-1.4233,-1.4403,-1.4474,-1.4514,-1.4669,-1.4772,-1.492,-1.4801,-1.471,-1.4659,-1.4345,-1.3554,-1.1955,-1.0997,-1.0078,-0.9492,-0.9284,-0.9015,-0.8789,-0.8803,-0.8545,-0.812,-0.777,-0.7503,-0.7314,-0.7131,-0.727,-0.7351,-0.732,-0.7299,-0.7551,-0.765,-0.744,-0.7252,-0.6742,-0.6315,-0.5972,-0.5612,-0.4646,-0.4089,-0.3307,-0.258,-0.1872,-0.1532,-0.1006,-0.0151,-0.02,-0.0949,-0.1454,-0.1618,-0.17,-0.1744,-0.1406,-0.0769,0.0222,0.1397,0.2072,2.491,2.4845,2.4807,2.474,2.4703,2.4806,2.4721,2.4486,2.3892,2.2872,2.1568,2.1462,2.111,2.0709,2.0449,2.0392,2.0359,2.0119,1.998,1.9838,1.9429,1.8855,1.822,1.771,1.7263,1.6909,1.6345,1.5675,1.5172,1.447,1.3888,1.2816,1.169,1.0608,0.9839,0.8728,0.7411,0.6017,0.487,0.3553,0.2227,0.1263,0.0,-0.2008,-0.2681,-0.3868,-0.5249,-0.5984,-0.6475,-0.7303,-0.7768,-0.8429,-0.9349,-1.0531,-1.1399,-1.2056,-1.2463,-1.2861,-1.3281,-1.352,-1.3647,-1.3747,-1.3941,-1.4025,-1.4002,-1.372,-1.3584,-1.3336,-1.2806,-1.178,-1.0454,-1.0095,-0.984,-0.9443,-0.9235,-0.9169,-0.9059,-0.8884,-0.8536,-0.8004,-0.7839,-0.7745,-0.7443,-0.7252,-0.7278,-0.7236,-0.7111,-0.7016,-0.7032,-0.7107,-0.6985,-0.6812,-0.6585,-0.6237,-0.584,-0.557,-0.5028,-0.4596,-0.3967,-0.3459,-0.2913,-0.2762,-0.2202,-0.1294,-0.0672,-0.0865,-0.1304,-0.1609,-0.1701,-0.1649,-0.1375,-0.1029,0.0055,0.116,0.2009,2.5186,2.5156,2.5118,2.5082,2.5051,2.5081,2.5159,2.5118,2.4404,2.3392,2.2559,2.2248,2.2055,2.1676,2.1488,2.1133,2.0469,1.9774,1.9485,1.9241,1.9057,1.8588,1.8,1.7601,1.7279,1.6716,1.5859,1.5181,1.4864,1.4251,1.3409,1.2566,1.1577,1.0775,1.0079,0.9219,0.8045,0.671,0.5566,0.4318,0.2886,0.1996,0.0286,-0.1021,-0.1995,-0.2963,-0.4197,-0.4992,-0.5487,-0.615,-0.6686,-0.7165,-0.7797,-0.8636,-0.9776,-1.0847,-1.1412,-1.1774,-1.2286,-1.2623,-1.2866,-1.2909,-1.3218,-1.3334,-1.316,-1.2823,-1.2428,-1.194,-1.1301,-1.0471,-1.0,-0.9679,-0.9381,-0.9165,-0.9011,-0.8797,-0.8635,-0.8521,-0.8142,-0.7736,-0.7799,-0.7668,-0.7342,-0.7237,-0.722,-0.7099,-0.6933,-0.6777,-0.6562,-0.6614,-0.667,-0.6612,-0.6456,-0.6302,-0.5995,-0.5776,-0.541,-0.4971,-0.4632,-0.4078,-0.3703,-0.3421,-0.3013,-0.2305,-0.1844,-0.13,-0.1214,-0.1557,-0.1559,-0.1503,-0.097,-0.0418,0.0161,0.0874,0.1763,2.5442,2.5432,2.5374,2.537,2.5354,2.5308,2.5346,2.5315,2.4726,2.3913,2.3102,2.3012,2.2856,2.2597,2.225,2.1694,2.0755,1.9845,1.9282,1.8867,1.8903,1.856,1.8067,1.7798,1.7491,1.6635,1.5597,1.4847,1.4502,1.3843,1.3123,1.2413,1.1656,1.1111,1.0465,0.9786,0.878,0.7727,0.6462,0.5254,0.3738,0.231,0.0828,-0.0352,-0.0914,-0.1797,-0.3291,-0.3894,-0.4503,-0.5054,-0.549,-0.5923,-0.6421,-0.7017,-0.8175,-0.9729,-1.0348,-1.0809,-1.1366,-1.1607,-1.181,-1.2026,-1.2463,-1.2388,-1.2027,-1.1558,-1.1106,-1.0334,-0.9787,-0.9359,-0.9241,-0.9043,-0.8827,-0.8753,-0.857,-0.8349,-0.8144,-0.7961,-0.7777,-0.7638,-0.7703,-0.7626,-0.7327,-0.6991,-0.6887,-0.6747,-0.6579,-0.6267,-0.6135,-0.6376,-0.6455,-0.6434,-0.639,-0.6322,-0.6188,-0.6062,-0.5709,-0.5351,-0.5031,-0.4681,-0.4325,-0.3974,-0.3488,-0.2934,-0.2481,-0.1997,-0.1774,-0.1422,-0.1417,-0.1162,-0.0442,-0.005,0.0156,0.096,0.1949,2.5591,2.5595,2.5582,2.5576,2.5603,2.5636,2.5556,2.5519,2.5386,2.4764,2.3831,2.3733,2.3276,2.2618,2.21,2.1643,2.1134,2.0483,1.967,1.9018,1.889,1.8474,1.7796,1.7433,1.7136,1.6456,1.5527,1.4803,1.42,1.3241,1.253,1.2066,1.1764,1.1349,1.1018,1.038,0.9551,0.8486,0.7158,0.5401,0.3452,0.2258,0.114,0.0296,-0.0408,-0.121,-0.2549,-0.3052,-0.3551,-0.4208,-0.4465,-0.4893,-0.5439,-0.593,-0.6581,-0.7543,-0.8498,-0.9536,-1.0352,-1.0547,-1.0604,-1.096,-1.126,-1.1092,-1.0578,-0.9836,-0.909,-0.8043,-0.8139,-0.8366,-0.8381,-0.8314,-0.832,-0.832,-0.823,-0.8062,-0.7901,-0.7485,-0.7303,-0.7098,-0.7058,-0.7321,-0.7305,-0.6942,-0.6547,-0.6426,-0.6197,-0.5911,-0.5761,-0.6052,-0.615,-0.6162,-0.6407,-0.6356,-0.6171,-0.6102,-0.5833,-0.5498,-0.5294,-0.5053,-0.4644,-0.4234,-0.3906,-0.3399,-0.2991,-0.2504,-0.2025,-0.1684,-0.1384,-0.0888,-0.0238,-0.0098,-0.0101,0.0877,0.2001,2.7041,2.7081,2.7087,2.6864,2.6636,2.6927,2.6761,2.632,2.6117,2.5475,2.4621,2.4347,2.3879,2.3175,2.2438,2.2042,2.1733,2.1018,2.0013,1.9335,1.9092,1.856,1.7641,1.7318,1.7041,1.6241,1.5339,1.448,1.3848,1.3333,1.2701,1.2218,1.1915,1.1662,1.1422,1.0839,1.0237,0.9171,0.7635,0.5601,0.3914,0.2752,0.192,0.1021,0.0355,-0.0588,-0.1471,-0.2185,-0.2657,-0.3242,-0.365,-0.4076,-0.4544,-0.502,-0.5557,-0.5928,-0.6578,-0.7638,-0.8898,-0.9318,-0.9533,-0.9638,-0.981,-0.9823,-0.9155,-0.8422,-0.784,-0.7423,-0.7599,-0.7716,-0.7758,-0.7938,-0.7901,-0.7859,-0.7773,-0.7447,-0.728,-0.7108,-0.6829,-0.6608,-0.6496,-0.6764,-0.6977,-0.6759,-0.6455,-0.6452,-0.6276,-0.6067,-0.583,-0.5796,-0.5862,-0.5861,-0.6189,-0.6502,-0.6199,-0.6008,-0.5684,-0.5415,-0.5228,-0.5001,-0.4732,-0.4366,-0.4098,-0.3792,-0.3394,-0.2861,-0.2281,-0.1754,-0.1364,-0.0731,-0.0046,0.0047,0.0194,0.0832,0.1848,2.8656,2.8666,2.8323,2.7901,2.7517,2.796,2.7714,2.7075,2.683,2.6247,2.5531,2.5142,2.4694,2.4118,2.3394,2.3038,2.2722,2.1694,2.0782,2.0156,1.9519,1.8852,1.8012,1.7592,1.6905,1.6213,1.5232,1.4422,1.3856,1.3348,1.2858,1.2399,1.2118,1.1925,1.1626,1.1085,1.0417,0.9349,0.7629,0.5943,0.4511,0.3511,0.2669,0.1863,0.1015,0.0238,-0.0485,-0.1335,-0.2,-0.2388,-0.2839,-0.3202,-0.3684,-0.4084,-0.4543,-0.4849,-0.5324,-0.5867,-0.7009,-0.7708,-0.822,-0.835,-0.8186,-0.8151,-0.7691,-0.7131,-0.6829,-0.6677,-0.6975,-0.714,-0.7314,-0.7447,-0.7405,-0.7241,-0.7157,-0.6787,-0.6453,-0.6395,-0.6389,-0.6261,-0.6179,-0.6184,-0.6371,-0.6376,-0.634,-0.645,-0.6352,-0.6145,-0.5973,-0.5752,-0.5817,-0.5859,-0.5958,-0.6214,-0.5946,-0.5704,-0.5458,-0.5264,-0.5079,-0.4971,-0.4714,-0.4583,-0.4405,-0.41,-0.3755,-0.3349,-0.2814,-0.2056,-0.1298,-0.0812,-0.0318,0.0275,0.0651,0.1175,0.1634,3.0112,2.995,2.8663,2.8106,2.8019,2.8005,2.7865,2.7542,2.7385,2.7069,2.6479,2.6182,2.5515,2.5068,2.4543,2.4121,2.3768,2.2943,2.2167,2.1334,2.0445,1.935,1.8385,1.7424,1.6552,1.5682,1.4918,1.4312,1.3815,1.3204,1.2812,1.2422,1.2201,1.2045,1.1683,1.1047,1.0045,0.9009,0.7575,0.6476,0.5267,0.4284,0.3404,0.2558,0.1826,0.1059,0.0,-0.0834,-0.1447,-0.1721,-0.1995,-0.2376,-0.2875,-0.3225,-0.3623,-0.4022,-0.4283,-0.4718,-0.5293,-0.6178,-0.6816,-0.7048,-0.6891,-0.6507,-0.6352,-0.5908,-0.5677,-0.583,-0.6215,-0.6389,-0.648,-0.6529,-0.6689,-0.6608,-0.6435,-0.6224,-0.5973,-0.5922,-0.5873,-0.583,-0.5833,-0.5881,-0.5933,-0.5979,-0.619,-0.631,-0.6136,-0.5927,-0.5973,-0.5844,-0.593,-0.5944,-0.5847,-0.5799,-0.5499,-0.5261,-0.5096,-0.4967,-0.4849,-0.4842,-0.4803,-0.4677,-0.4599,-0.4382,-0.4037,-0.3668,-0.3301,-0.2677,-0.2009,-0.1252,-0.0629,-0.0091,0.0457,0.0925,0.1381,2.9794,2.9648,2.9008,2.8986,2.9279,2.926,2.8777,2.8071,2.7794,2.7099,2.6245,2.5846,2.5412,2.4968,2.4585,2.4305,2.391,2.3449,2.2707,2.1842,2.087,1.9585,1.8414,1.7194,1.608,1.5194,1.4534,1.3983,1.3447,1.3188,1.2725,1.2396,1.222,1.1818,1.1411,1.0769,0.9762,0.8782,0.7856,0.7082,0.6207,0.527,0.4438,0.3816,0.2472,0.1752,0.1029,0.0,-0.0611,-0.1041,-0.1396,-0.1795,-0.2123,-0.2433,-0.2851,-0.32,-0.3417,-0.3641,-0.4013,-0.4815,-0.5455,-0.5422,-0.5193,-0.5052,-0.5314,-0.5247,-0.5285,-0.5448,-0.5693,-0.5899,-0.5944,-0.6019,-0.6044,-0.5879,-0.5752,-0.558,-0.5537,-0.5443,-0.5531,-0.5575,-0.5531,-0.5491,-0.5583,-0.5677,-0.5933,-0.6184,-0.5967,-0.5804,-0.592,-0.5992,-0.6058,-0.6023,-0.5933,-0.5804,-0.5507,-0.5179,-0.4801,-0.4712,-0.4578,-0.4581,-0.4598,-0.4731,-0.4581,-0.4433,-0.4339,-0.4077,-0.375,-0.3401,-0.2721,-0.1834,-0.1119,-0.0493,0.009,0.0638,0.1118,2.9324,2.918,2.9003,2.9232,2.9719,2.9725,2.9246,2.8491,2.8227,2.7418,2.6189,2.6033,2.5595,2.5036,2.4763,2.4416,2.4127,2.3668,2.2918,2.2084,2.1055,1.9797,1.8395,1.7198,1.6356,1.5272,1.4703,1.4305,1.4156,1.3556,1.3129,1.274,1.2332,1.1855,1.1087,1.0314,0.9465,0.8673,0.8055,0.7513,0.6645,0.5976,0.5306,0.4655,0.3455,0.2612,0.1884,0.0972,0.0061,-0.0367,-0.0791,-0.1141,-0.1424,-0.1703,-0.209,-0.2353,-0.257,-0.2805,-0.3229,-0.3854,-0.422,-0.4291,-0.4183,-0.4238,-0.4511,-0.4742,-0.48,-0.497,-0.5312,-0.555,-0.5542,-0.5545,-0.5543,-0.542,-0.5203,-0.5053,-0.5055,-0.5053,-0.5231,-0.5364,-0.532,-0.532,-0.5504,-0.5688,-0.5839,-0.6042,-0.6016,-0.5951,-0.6024,-0.6141,-0.6211,-0.6124,-0.6027,-0.5841,-0.5655,-0.5211,-0.4817,-0.4583,-0.4451,-0.4272,-0.4272,-0.4438,-0.4602,-0.4504,-0.4424,-0.4422,-0.4164,-0.376,-0.3105,-0.2329,-0.1567,-0.0761,-0.0269,0.0317,0.0721,2.8838,2.8697,2.8406,2.8516,2.8803,2.905,2.887,2.8408,2.8333,2.7754,2.6757,2.6688,2.6176,2.5464,2.4822,2.4306,2.3711,2.3451,2.2913,2.1955,2.071,1.9974,1.8935,1.7641,1.6358,1.6607,1.5759,1.5083,1.5225,1.4558,1.3886,1.309,1.2404,1.1742,1.0891,0.9849,0.9064,0.8509,0.7964,0.7395,0.6842,0.6341,0.5946,0.5258,0.4313,0.3412,0.2718,0.1679,0.0839,0.0241,0.0,-0.0294,-0.0644,-0.0877,-0.1223,-0.157,-0.1735,-0.1919,-0.1995,-0.2813,-0.3214,-0.3365,-0.3364,-0.3629,-0.3977,-0.4215,-0.4377,-0.4562,-0.4893,-0.5068,-0.5136,-0.509,-0.5042,-0.4954,-0.4748,-0.4574,-0.4576,-0.4666,-0.4842,-0.5017,-0.5149,-0.5282,-0.5512,-0.5704,-0.578,-0.5905,-0.5952,-0.6045,-0.6197,-0.6273,-0.6355,-0.6309,-0.616,-0.5941,-0.5736,-0.5203,-0.4791,-0.4554,-0.4322,-0.4144,-0.4077,-0.4151,-0.4298,-0.4427,-0.4516,-0.4566,-0.4371,-0.4129,-0.3454,-0.2702,-0.1793,-0.0986,-0.0494,-0.009,0.0269,2.7432,2.7534,2.7291,2.7135,2.7126,2.7533,2.7552,2.7233,2.6722,2.5975,2.5139,2.4895,2.4289,2.3583,2.3204,2.278,2.2071,2.1498,2.1001,2.0345,1.9542,1.8463,1.7583,1.6888,1.5836,1.5093,1.4728,1.4875,1.449,1.4443,1.3946,1.3104,1.1934,1.0986,1.0274,0.9412,0.8697,0.8374,0.7977,0.762,0.7106,0.6888,0.6553,0.5936,0.4922,0.4114,0.3489,0.2375,0.1532,0.0938,0.0749,0.0401,-0.0,-0.0286,-0.063,-0.0978,-0.1118,-0.0834,-0.0993,-0.1464,-0.1898,-0.2377,-0.2813,-0.3095,-0.3533,-0.3762,-0.3958,-0.4223,-0.4498,-0.4741,-0.4859,-0.4574,-0.4483,-0.4539,-0.4359,-0.4131,-0.4102,-0.4236,-0.4368,-0.4583,-0.4755,-0.5007,-0.5283,-0.555,-0.5723,-0.5903,-0.5984,-0.6192,-0.6357,-0.6446,-0.6524,-0.6471,-0.6351,-0.6115,-0.5785,-0.5426,-0.5091,-0.4826,-0.4462,-0.4102,-0.4043,-0.4046,-0.4064,-0.4201,-0.4435,-0.4658,-0.453,-0.4313,-0.3795,-0.3079,-0.2414,-0.1679,-0.1086,-0.0676,-0.0269,2.6325,2.6381,2.6268,2.6027,2.5794,2.6329,2.641,2.6032,2.5484,2.4694,2.3935,2.3576,2.3088,2.2356,2.1845,2.1383,2.0708,2.0363,1.9814,1.913,1.8694,1.808,1.7196,1.6204,1.5935,1.4916,1.4599,1.4689,1.4645,1.4239,1.355,1.2521,1.1223,1.0558,0.9959,0.9449,0.8952,0.863,0.8306,0.7787,0.7444,0.7172,0.6939,0.6245,0.5447,0.4662,0.4023,0.315,0.2215,0.1773,0.1356,0.1011,0.0618,0.0283,-0.0057,-0.0288,-0.0522,-0.0236,-0.0351,-0.0628,-0.116,-0.1521,-0.2007,-0.2518,-0.2989,-0.3211,-0.341,-0.3665,-0.4098,-0.4256,-0.4333,-0.3994,-0.3916,-0.3983,-0.3859,-0.3596,-0.3659,-0.3801,-0.4066,-0.4272,-0.4548,-0.4821,-0.5025,-0.5316,-0.5591,-0.5825,-0.6013,-0.6221,-0.6414,-0.6474,-0.6561,-0.6534,-0.6479,-0.6314,-0.6082,-0.5896,-0.5538,-0.5125,-0.4785,-0.4463,-0.4122,-0.417,-0.4074,-0.3976,-0.4275,-0.452,-0.473,-0.455,-0.4168,-0.3944,-0.364,-0.2804,-0.1788,-0.1325,-0.1051,2.552,2.5288,2.5391,2.5197,2.4997,2.5402,2.5342,2.4965,2.4852,2.4214,2.3351,2.3026,2.2411,2.1938,2.1632,2.1075,2.0392,2.0051,1.9415,1.8859,1.8124,1.7752,1.7258,1.6531,1.5752,1.5816,1.5583,1.478,1.5109,1.4064,1.3025,1.2034,1.0787,1.0331,1.0081,0.9694,0.9271,0.8885,0.8441,0.7987,0.7727,0.7396,0.7051,0.6459,0.5673,0.5083,0.439,0.3548,0.2919,0.2448,0.2062,0.181,0.1475,0.1158,0.076,0.0412,0.0059,0.0117,0.0117,-0.0171,-0.045,-0.0833,-0.1338,-0.19,-0.2335,-0.2581,-0.2731,-0.3008,-0.3383,-0.3576,-0.3687,-0.3527,-0.3424,-0.3327,-0.3206,-0.3193,-0.3273,-0.3492,-0.3774,-0.405,-0.4405,-0.4656,-0.4863,-0.5136,-0.5424,-0.5528,-0.5748,-0.591,-0.6099,-0.6321,-0.6376,-0.6439,-0.6432,-0.6472,-0.6325,-0.6113,-0.5985,-0.5597,-0.5396,-0.5104,-0.4732,-0.4385,-0.4423,-0.4372,-0.4239,-0.4417,-0.4801,-0.4895,-0.471,-0.453,-0.4332,-0.3873,-0.2854,-0.2375,-0.2098,2.3783,2.4248,2.3996,2.3955,2.4051,2.3754,2.3374,2.3032,2.29,2.2302,2.1342,2.11,2.0801,1.9918,1.9416,1.907,1.8631,1.8081,1.7505,1.7122,1.7016,1.6284,1.5738,1.5406,1.4869,1.4714,1.4585,1.4405,1.3915,1.3161,1.2346,1.1461,1.0546,1.0378,1.0155,0.9792,0.9399,0.9014,0.8573,0.8314,0.7984,0.7722,0.7263,0.6641,0.59,0.5298,0.4609,0.3856,0.3198,0.2838,0.2574,0.225,0.1853,0.1644,0.1373,0.1172,0.0986,0.0974,0.0757,0.0514,0.0168,-0.0168,-0.0617,-0.1291,-0.1738,-0.1961,-0.207,-0.2406,-0.274,-0.3016,-0.3105,-0.3004,-0.297,-0.2945,-0.2804,-0.2777,-0.2902,-0.3174,-0.3461,-0.3919,-0.4284,-0.4536,-0.4754,-0.499,-0.5259,-0.5305,-0.5386,-0.5563,-0.577,-0.5922,-0.616,-0.6215,-0.6296,-0.6281,-0.6367,-0.6237,-0.6206,-0.6101,-0.5937,-0.5748,-0.5385,-0.5079,-0.4935,-0.4766,-0.4669,-0.4834,-0.513,-0.5117,-0.4994,-0.4935,-0.4773,-0.4415,-0.4009,-0.3509,-0.3221,2.2521,2.2887,2.3016,2.3107,2.3135,2.2625,2.2156,2.1848,2.1759,2.1227,2.0472,2.0168,1.9668,1.9239,1.8685,1.8234,1.7987,1.7433,1.6844,1.6439,1.5898,1.5579,1.5019,1.4564,1.4369,1.4025,1.3699,1.3558,1.2966,1.2091,1.1205,1.0783,1.0238,1.0257,1.0133,0.9731,0.9335,0.9017,0.8767,0.8571,0.8309,0.8047,0.7589,0.6937,0.6147,0.5485,0.4896,0.4219,0.3714,0.3414,0.3155,0.2857,0.2496,0.2257,0.1897,0.1639,0.149,0.1366,0.1202,0.1022,0.0731,0.0393,0.0112,-0.0505,-0.1066,-0.1402,-0.1569,-0.1849,-0.2182,-0.251,-0.248,-0.2504,-0.2578,-0.2648,-0.2488,-0.2382,-0.2597,-0.2871,-0.3322,-0.3789,-0.4153,-0.4416,-0.4687,-0.4871,-0.501,-0.5066,-0.5011,-0.4981,-0.52,-0.5398,-0.5674,-0.5893,-0.5977,-0.6024,-0.6132,-0.6336,-0.6449,-0.6531,-0.6596,-0.6357,-0.6007,-0.5743,-0.5478,-0.5307,-0.5149,-0.5316,-0.5515,-0.5373,-0.5272,-0.5278,-0.5329,-0.5112,-0.4896,-0.469,-0.4452,2.1693,2.1489,2.2317,2.2475,2.225,2.1901,2.1506,2.1173,2.1229,2.095,2.0377,1.9991,1.962,1.9202,1.8636,1.8194,1.7827,1.7274,1.6752,1.6317,1.6048,1.5641,1.5201,1.4864,1.4371,1.3967,1.3485,1.3034,1.2185,1.1351,1.0538,0.9986,0.9929,0.9935,0.9804,0.9533,0.9204,0.8894,0.8767,0.8638,0.8573,0.8309,0.7979,0.7328,0.6734,0.6123,0.5639,0.4984,0.4378,0.4145,0.3843,0.3461,0.3074,0.2674,0.2238,0.1997,0.1793,0.1723,0.1605,0.1367,0.1186,0.1013,0.0897,0.028,-0.028,-0.0729,-0.0953,-0.1233,-0.1567,-0.1903,-0.1942,-0.1981,-0.2068,-0.2161,-0.2133,-0.2114,-0.2335,-0.2667,-0.3112,-0.3525,-0.3872,-0.4184,-0.4412,-0.4627,-0.4624,-0.4737,-0.4675,-0.4532,-0.4605,-0.4853,-0.5105,-0.5443,-0.5639,-0.575,-0.5988,-0.62,-0.67,-0.6859,-0.6939,-0.6959,-0.6602,-0.6321,-0.6061,-0.5865,-0.5677,-0.5714,-0.5819,-0.5656,-0.5615,-0.5806,-0.5824,-0.5835,-0.5746,-0.5466,-0.5249,2.0907,2.1143,2.1549,2.1535,2.1264,2.1233,2.1019,2.0709,2.0435,2.0328,2.0175,1.9817,1.9506,1.9139,1.8488,1.8116,1.7848,1.7301,1.6848,1.6446,1.6181,1.5672,1.5269,1.4907,1.4424,1.3812,1.3208,1.2536,1.1549,1.0737,1.0174,0.9862,0.9804,0.974,0.9481,0.9207,0.8949,0.8703,0.8576,0.8441,0.8242,0.8047,0.7719,0.7068,0.6478,0.6013,0.547,0.4997,0.4577,0.4379,0.4164,0.3735,0.3159,0.278,0.2473,0.2297,0.2136,0.2059,0.1983,0.1738,0.1557,0.136,0.1238,0.0898,0.0505,0.0056,-0.0336,-0.0617,-0.0897,-0.1233,-0.1454,-0.1499,-0.16,-0.1704,-0.1753,-0.1923,-0.2039,-0.2485,-0.2879,-0.3277,-0.3572,-0.3853,-0.4133,-0.427,-0.4265,-0.4257,-0.4197,-0.4153,-0.4094,-0.4253,-0.4421,-0.4761,-0.5246,-0.5462,-0.5677,-0.6042,-0.6478,-0.6791,-0.6912,-0.7003,-0.7094,-0.6825,-0.655,-0.635,-0.6224,-0.6226,-0.6108,-0.586,-0.5871,-0.6116,-0.6007,-0.5948,-0.5984,-0.5828,-0.5655,2.0372,2.0415,2.0655,2.0789,2.0702,2.0731,2.0623,2.0372,2.0074,1.9881,1.9772,1.9519,1.9204,1.8934,1.8327,1.8001,1.7793,1.7184,1.674,1.64,1.6061,1.5604,1.5201,1.4793,1.4304,1.3636,1.2842,1.1984,1.1055,1.0428,1.005,0.9801,0.974,0.9612,0.9218,0.9017,0.8759,0.8514,0.8382,0.8117,0.7912,0.7717,0.7456,0.687,0.6282,0.582,0.5422,0.5025,0.4916,0.4668,0.4525,0.3988,0.3542,0.3164,0.2867,0.261,0.2438,0.2337,0.2255,0.2132,0.1949,0.1736,0.1605,0.1323,0.1067,0.0617,0.0224,-0.0056,-0.0336,-0.0617,-0.0897,-0.1003,-0.1393,-0.1613,-0.1555,-0.1613,-0.1837,-0.2228,-0.2674,-0.301,-0.3297,-0.3522,-0.3801,-0.4078,-0.4069,-0.3976,-0.3878,-0.3888,-0.3853,-0.3897,-0.4004,-0.4244,-0.4784,-0.5025,-0.5163,-0.5671,-0.6238,-0.6501,-0.6773,-0.6996,-0.7098,-0.7125,-0.6977,-0.6802,-0.6632,-0.6627,-0.6477,-0.6168,-0.6062,-0.6225,-0.6116,-0.5898,-0.5984,-0.6058,-0.5838,1.997,1.9605,1.9801,2.0072,2.0321,2.0263,2.02,2.0118,1.9805,1.9565,1.9309,1.9046,1.8845,1.8625,1.8187,1.8018,1.7628,1.7083,1.6632,1.6291,1.5899,1.543,1.4956,1.4488,1.3941,1.3273,1.2417,1.1677,1.0933,1.0491,1.0174,0.9862,0.967,0.9478,0.9274,0.9081,0.8829,0.8509,0.8184,0.7727,0.7589,0.7451,0.7125,0.6673,0.6218,0.5758,0.5423,0.5223,0.5087,0.4929,0.4702,0.4205,0.3741,0.3394,0.3018,0.2743,0.2566,0.2502,0.2489,0.2414,0.2215,0.2075,0.201,0.1813,0.1543,0.119,0.0793,0.0508,0.0226,-0.0112,-0.0449,-0.0673,-0.1122,-0.1459,-0.1347,-0.1291,-0.1626,-0.1962,-0.2352,-0.274,-0.2964,-0.3188,-0.3466,-0.3745,-0.3809,-0.3666,-0.3666,-0.3665,-0.3696,-0.3859,-0.4033,-0.4263,-0.4615,-0.4761,-0.4883,-0.5379,-0.6053,-0.6296,-0.6604,-0.6907,-0.7147,-0.7147,-0.7147,-0.7201,-0.709,-0.6928,-0.6712,-0.6443,-0.6443,-0.644,-0.6277,-0.6057,-0.6041,-0.604,-0.5859,1.9574,1.9127,1.9195,1.9382,1.9669,1.9564,1.9641,1.9767,1.9356,1.904,1.8893,1.8685,1.853,1.8631,1.8041,1.7767,1.759,1.6976,1.6694,1.6462,1.5846,1.5254,1.4715,1.4185,1.3575,1.2846,1.205,1.1498,1.0996,1.0744,1.0364,0.9983,0.9853,0.9661,0.9277,0.9081,0.8823,0.8503,0.8117,0.7724,0.733,0.7132,0.687,0.6546,0.6286,0.5752,0.5354,0.5153,0.5024,0.4795,0.4537,0.4246,0.3854,0.3481,0.3106,0.2812,0.2695,0.2691,0.264,0.2555,0.2416,0.2374,0.2199,0.2055,0.1782,0.1644,0.1286,0.0926,0.0575,0.0056,-0.0225,-0.0337,-0.0673,-0.1066,-0.1178,-0.1178,-0.1346,-0.1627,-0.1963,-0.2297,-0.2519,-0.2797,-0.3131,-0.3355,-0.3466,-0.3412,-0.3521,-0.3532,-0.352,-0.3776,-0.4024,-0.4268,-0.4558,-0.4822,-0.5035,-0.5409,-0.5946,-0.6166,-0.6384,-0.6691,-0.698,-0.7085,-0.7139,-0.7147,-0.7147,-0.7033,-0.6874,-0.6712,-0.6655,-0.6601,-0.6438,-0.6324,-0.6253,-0.6276,-0.6281]}]]